[[{"header":{"parameterUnit":"m.s-1","parameterCategory":1,"la1":30.6,"la2":28.766,"lo1":-90.7593,"lo2":-88.6598,"dy":0.0162,"dx":0.0183,"nx":116,"ny":114,"refTime":"2023-08-02T00:00:00:Z","depth":0,"parameterNumber":2,"parameterNumberName":"U-component_of_WINDS"},"data":[0.0,0.0,0.0,0.0,0.0,0.0,0.0,0.0,0.0,0.0,0.0,0.0,0.0,0.0,0.0,0.0,0.0,0.0,0.0,0.0,0.0,0.0,0.0,0.0,0.0,0.0,0.0,0.0,0.0,0.0,0.0,0.0,0.0,0.0,0.0,0.0,0.0,0.0,0.0,0.0,0.0,0.0,0.0,0.0,0.0,0.0,0.0,0.0,0.0,0.0,0.0,0.0,0.0,0.0,0.0,0.0,0.0,0.0,0.0,0.0,0.0,0.0,0.0,0.0,0.0,0.0,0.0,0.0,0.0,0.0,0.0,0.0,0.0,0.0,0.0,0.0,0.0,0.0,0.0,0.0,0.0,0.0,0.0,0.0,0.0,0.0,0.0,0.0,0.0,0.0,0.0,0.0,0.0,0.0,0.0,0.0,0.0,0.0,0.0,0.0,0.0,0.0,0.0,0.0,0.0,0.0,0.0,0.0,0.0,0.0,0.0,0.0,0.0,0.0,0.0,0.0,0.0,0.0,0.0,0.0,0.0,0.0,0.0,0.0,0.0,0.0,0.0,0.0,0.0,0.0,0.0,0.0,0.0,0.0,0.0,0.0,0.0,0.0,0.0,0.0,0.0,0.0,0.0,0.0,0.0,0.0,0.0,0.0,0.0,0.0,0.0,0.0,0.0,0.0,0.0,0.0,0.0,0.0,0.0,0.0,0.0,0.0,0.0,0.0,0.0,0.0,0.0,0.0,0.0,0.0,0.0,0.0,0.0,0.0,0.0,0.0,0.0,0.0,0.0,0.0,0.0,0.0,0.0,0.0,0.0,0.0,0.0,0.0,0.0,0.0,0.0,0.0,0.0,0.0,0.0,0.0,0.0,0.0,0.0,0.0,0.0,0.0,0.0,0.0,0.0,0.0,0.0,0.0,0.0,0.0,0.0,0.0,0.0,0.0,0.0,0.0,0.0,0.0,0.0,0.0,0.0,0.0,0.0,0.0,0.0,0.0,0.0,0.0,0.0,0.0,0.0,0.0,0.0,0.0,0.0,0.0,0.0,0.0,0.0,0.0,0.0,0.0,0.0,0.0,0.0,0.0,0.0,0.0,0.0,0.0,0.0,0.0,0.0,0.0,0.0,0.0,0.0,0.0,0.0,0.0,0.0,0.0,0.0,0.0,0.0,0.0,0.0,0.0,0.0,0.0,0.0,0.0,0.0,0.0,0.0,0.0,0.0,0.0,0.0,0.0,0.0,0.0,0.0,0.0,0.0,0.0,0.0,0.0,0.0,0.0,0.0,0.0,0.0,0.0,0.0,0.0,0.0,0.0,0.0,0.0,0.0,0.0,0.0,0.0,0.0,0.0,0.0,0.0,0.0,0.0,0.0,0.0,0.0,0.0,0.0,0.0,0.0,0.0,0.0,0.0,0.0,0.0,0.0,0.0,0.0,0.0,0.0,0.0,0.0,0.0,0.0,0.0,0.0,0.0,0.0,0.0,0.0,0.0,0.0,0.0,0.0,0.0,0.0,0.0,0.0,0.0,0.0,0.0,0.0,0.0,0.0,0.0,0.0,0.0,0.0,0.0,0.0,0.0,0.0,0.0,0.0,0.0,0.0,0.0,0.0,0.0,0.0,0.0,0.0,0.0,0.0,0.0,0.0,0.0,0.0,0.0,0.0,0.0,0.0,0.0,0.0,0.0,0.0,0.0,0.0,0.0,0.0,0.0,0.0,0.0,0.0,0.0,0.0,0.0,0.0,0.0,0.0,0.0,0.0,0.0,0.0,0.0,0.0,0.0,0.0,0.0,0.0,0.0,0.0,0.0,0.0,0.0,0.0,0.0,0.0,0.0,0.0,0.0,0.0,0.0,0.0,0.0,0.0,0.0,0.0,0.0,0.0,0.0,0.0,0.0,0.0,0.0,0.0,0.0,0.0,0.0,0.0,0.0,0.0,0.0,0.0,0.0,0.0,0.0,0.0,0.0,0.0,0.0,0.0,0.0,0.0,0.0,0.0,0.0,0.0,0.0,0.0,0.0,0.0,0.0,0.0,0.0,0.0,0.0,0.0,0.0,0.0,0.0,0.0,0.0,0.0,0.0,0.0,0.0,0.0,0.0,0.0,0.0,0.0,0.0,0.0,0.0,0.0,0.0,0.0,0.0,0.0,0.0,0.0,0.0,0.0,0.0,0.0,0.0,0.0,0.0,0.0,0.0,0.0,0.0,0.0,0.0,0.0,0.0,0.0,0.0,0.0,0.0,0.0,0.0,0.0,0.0,0.0,0.0,0.0,0.0,0.0,0.0,0.0,0.0,0.0,0.0,0.0,0.0,0.0,0.0,0.0,0.0,0.0,0.0,0.0,0.0,0.0,0.0,0.0,0.0,0.0,0.0,0.0,0.0,0.0,0.0,0.0,0.0,0.0,0.0,0.0,0.0,0.0,0.0,0.0,0.0,0.0,0.0,0.0,0.0,0.0,0.0,0.0,0.0,0.0,0.0,0.0,0.0,0.0,0.0,0.0,0.0,0.0,0.0,0.0,0.0,0.0,0.0,0.0,0.0,0.0,0.0,0.0,0.0,0.0,0.0,0.0,0.0,0.0,0.0,0.0,0.0,0.0,0.0,0.0,0.0,0.0,0.0,0.0,0.0,0.0,0.0,0.0,0.0,0.0,0.0,0.0,0.0,0.0,0.0,0.0,0.0,0.0,0.0,0.0,0.0,0.0,0.0,0.0,0.0,0.0,0.0,0.0,0.0,0.0,0.0,0.0,0.0,0.0,0.0,0.0,0.0,0.0,0.0,0.0,0.0,0.0,0.0,0.0,0.0,0.0,0.0,0.0,0.0,0.0,0.0,0.0,0.0,0.0,0.0,0.0,0.0,0.0,0.0,0.0,0.0,0.0,0.0,0.0,0.0,0.0,0.0,0.0,0.0,0.0,0.0,0.0,0.0,0.0,0.0,0.0,0.0,0.0,0.0,0.0,0.0,0.0,0.0,0.0,0.0,0.0,0.0,0.0,0.0,0.0,0.0,0.0,0.0,0.0,0.0,0.0,0.0,0.0,0.0,0.0,0.0,0.0,0.0,0.0,0.0,0.0,0.0,0.0,0.0,0.0,0.0,0.0,0.0,0.0,0.0,0.0,0.0,0.0,0.0,0.0,0.0,0.0,0.0,0.0,0.0,0.0,0.0,0.0,0.0,0.0,0.0,0.0,0.0,0.0,0.0,0.0,0.0,0.0,0.0,0.0,0.0,0.0,0.0,0.0,0.0,0.0,0.0,0.0,0.0,0.0,0.0,0.0,0.0,0.0,0.0,0.0,0.0,0.0,0.0,0.0,0.0,0.0,0.0,0.0,0.0,0.0,0.0,0.0,0.0,0.0,0.0,0.0,0.0,0.0,0.0,0.0,0.0,0.0,0.0,0.0,0.0,0.0,0.0,0.0,0.0,0.0,0.0,0.0,0.0,0.0,0.0,0.0,0.0,0.0,0.0,0.0,0.0,0.0,0.0,0.0,0.0,0.0,0.0,0.0,0.0,0.0,0.0,0.0,0.0,0.0,0.0,0.0,0.0,0.0,0.0,0.0,0.0,0.0,0.0,0.0,0.0,0.0,0.0,0.0,0.0,0.0,0.0,0.0,0.0,0.0,0.0,0.0,0.0,0.0,0.0,0.0,0.0,0.0,0.0,0.0,0.0,0.0,0.0,0.0,0.0,0.0,0.0,0.0,0.0,0.0,0.0,0.0,0.0,0.0,0.0,0.0,0.0,0.0,0.0,0.0,0.0,0.0,0.0,0.0,0.0,0.0,0.0,0.0,0.0,0.0,0.0,0.0,0.0,0.0,0.0,0.0,0.0,0.0,0.0,0.0,0.0,0.0,0.0,0.0,0.0,0.0,0.0,0.0,0.0,0.0,0.0,0.0,0.0,0.0,0.0,0.0,0.0,0.0,0.0,0.0,0.0,0.0,0.0,0.0,0.0,0.0,0.0,0.0,0.0,0.0,0.0,0.0,0.0,0.0,0.0,0.0,0.0,0.0,0.0,0.0,0.0,0.0,0.0,0.0,0.0,0.0,0.0,0.0,0.0,0.0,0.0,0.0,0.0,0.0,0.0,0.0,0.0,0.0,0.0,0.0,0.0,0.0,0.0,0.0,0.0,0.0,0.0,0.0,0.0,0.0,0.0,0.0,0.0,0.0,0.0,0.0,0.0,0.0,0.0,0.0,0.0,0.0,0.0,0.0,0.0,0.0,0.0,0.0,0.0,0.0,0.0,0.0,0.0,0.0,0.0,0.0,0.0,0.0,0.0,0.0,0.0,0.0,0.0,0.0,0.0,0.0,0.0,0.0,0.0,0.0,0.0,0.0,0.0,0.0,0.0,0.0,0.0,0.0,0.0,0.0,0.0,0.0,0.0,0.0,0.0,0.0,0.0,0.0,0.0,0.0,0.0,0.0,0.0,0.0,0.0,0.0,0.0,0.0,0.0,0.0,0.0,0.0,0.0,0.0,0.0,0.0,0.0,0.0,0.0,0.0,0.0,0.0,0.0,0.0,0.0,0.0,0.0,0.0,0.0,0.0,0.0,0.0,0.0,0.0,0.0,0.0,0.0,0.0,0.0,0.0,0.0,0.0,0.0,0.0,0.0,0.0,0.0,0.0,0.0,0.0,0.0,0.0,0.0,0.0,0.0,0.0,0.0,0.0,0.0,0.0,0.0,0.0,0.0,0.0,0.0,0.0,0.0,0.0,0.0,0.0,0.0,0.0,0.0,0.0,0.0,0.0,0.0,0.0,0.0,0.0,0.0,0.0,0.0,0.0,0.0,0.0,0.0,0.0,0.0,0.0,0.0,0.0,0.0,0.0,0.0,0.0,0.0,0.0,0.0,0.0,0.0,0.0,0.0,0.0,0.0,0.0,0.0,0.0,0.0,0.0,0.0,0.0,0.0,0.0,0.0,0.0,0.0,0.0,0.0,0.0,0.0,0.0,0.0,0.0,0.0,0.0,0.0,0.0,0.0,0.0,0.0,0.0,0.0,0.0,0.0,0.0,0.0,0.0,0.0,0.0,0.0,0.0,0.0,0.0,0.0,0.0,0.0,0.0,0.0,0.0,0.0,0.0,0.0,0.0,0.0,0.0,0.0,0.0,0.0,0.0,0.0,0.0,0.0,0.0,0.0,0.0,0.0,0.0,0.0,0.0,0.0,0.0,0.0,0.0,0.0,0.0,0.0,0.0,0.0,0.0,0.0,0.0,0.0,0.0,0.0,0.0,0.0,0.0,0.0,0.0,0.0,0.0,0.0,0.0,0.0,0.0,0.0,0.0,0.0,0.0,0.0,0.0,0.0,0.0,0.0,0.0,0.0,0.0,0.0,0.0,0.0,0.0,0.0,0.0,0.0,0.0,0.0,0.0,0.0,0.0,0.0,0.0,0.0,0.0,0.0,0.0,0.0,0.0,0.0,0.0,0.0,0.0,0.0,0.0,0.0,0.0,0.0,0.0,0.0,0.0,0.0,0.0,0.0,0.0,0.0,0.0,0.0,0.0,0.0,0.0,0.0,0.0,0.0,0.0,0.0,0.0,0.0,0.0,0.0,0.0,0.0,0.0,0.0,0.0,0.0,0.0,0.0,0.0,0.0,0.0,0.0,0.0,0.0,0.0,0.0,0.0,0.0,0.0,0.0,0.0,0.0,0.0,0.0,0.0,0.0,0.0,0.0,0.0,0.0,0.0,0.0,0.0,0.0,0.0,0.0,0.0,0.0,0.0,0.0,0.0,0.0,0.0,0.0,0.0,0.0,0.0,0.0,0.0,0.0,0.0,0.0,0.0,0.0,0.0,0.0,0.0,0.0,0.0,0.0,0.0,0.0,0.0,0.0,0.0,0.0,0.0,0.0,0.0,0.0,0.0,0.0,0.0,0.0,0.0,0.0,0.0,0.0,0.0,0.0,0.0,0.0,0.0,0.0,0.0,0.0,0.0,0.0,0.0,0.0,0.0,0.0,0.0,0.0,0.0,0.0,0.0,0.0,0.0,0.0,0.0,0.0,0.0,0.0,0.0,0.0,0.0,0.0,0.0,0.0,0.0,0.0,0.0,0.0,0.0,0.0,0.0,0.0,0.0,0.0,-2.0175,0.0,0.0,0.0,0.0,0.0,0.0,0.0,0.0,0.0,0.0,0.0,0.0,0.0,0.0,0.0,0.0,0.0,0.0,0.0,0.0,0.0,0.0,0.0,0.0,0.0,0.0,0.0,0.0,0.0,0.0,0.0,0.0,0.0,0.0,0.0,0.0,0.0,0.0,0.0,0.0,0.0,0.0,0.0,0.0,0.0,0.0,0.0,0.0,0.0,0.0,0.0,0.0,0.0,0.0,0.0,0.0,0.0,0.0,0.0,0.0,0.0,0.0,0.0,0.0,0.0,0.0,0.0,0.0,0.0,0.0,0.0,0.0,0.0,0.0,0.0,0.0,0.0,0.0,0.0,0.0,0.0,0.0,0.0,0.0,0.0,0.0,0.0,0.0,0.0,0.0,0.0,0.0,0.0,0.0,0.0,0.0,0.0,0.0,0.0,0.0,0.0,0.0,0.0,0.0,0.0,0.0,0.0,0.0,0.0,0.0,0.0,0.0,0.0,0.0,0.0,0.0,-2.1656,0.0,0.0,0.0,0.0,0.0,0.0,0.0,0.0,0.0,0.0,0.0,0.0,0.0,0.0,0.0,0.0,0.0,0.0,0.0,0.0,0.0,0.0,0.0,0.0,0.0,0.0,0.0,0.0,0.0,0.0,0.0,0.0,0.0,0.0,0.0,0.0,0.0,0.0,0.0,0.0,0.0,0.0,0.0,0.0,0.0,0.0,0.0,0.0,0.0,0.0,0.0,0.0,0.0,0.0,0.0,0.0,0.0,0.0,0.0,0.0,0.0,0.0,0.0,0.0,0.0,0.0,0.0,0.0,0.0,0.0,0.0,0.0,0.0,0.0,0.0,0.0,0.0,0.0,0.0,0.0,0.0,0.0,0.0,0.0,0.0,0.0,0.0,0.0,0.0,0.0,0.0,0.0,0.0,0.0,0.0,0.0,0.0,0.0,0.0,0.0,0.0,0.0,0.0,0.0,0.0,0.0,0.0,0.0,-2.5335,-2.5603,-2.5515,-2.5615,-2.5975,-2.6427,-2.5536,-2.4556,-2.3509,-2.3221,0.0,0.0,0.0,0.0,0.0,0.0,0.0,0.0,0.0,0.0,0.0,0.0,0.0,0.0,0.0,0.0,0.0,0.0,0.0,0.0,0.0,0.0,-1.65,-1.65,-1.65,-1.65,0.0,0.0,0.0,0.0,0.0,0.0,0.0,0.0,0.0,0.0,0.0,0.0,-2.1852,-2.29,-2.2778,-2.1508,-1.9928,0.0,0.0,0.0,0.0,0.0,0.0,0.0,0.0,0.0,0.0,0.0,0.0,0.0,0.0,0.0,0.0,0.0,0.0,0.0,0.0,0.0,0.0,0.0,0.0,0.0,0.0,0.0,0.0,0.0,0.0,0.0,0.0,0.0,0.0,0.0,0.0,0.0,0.0,0.0,0.0,0.0,0.0,0.0,-1.4471,-1.5279,0.0,0.0,0.0,0.0,0.0,0.0,0.0,0.0,0.0,0.0,0.0,0.0,0.0,-2.1917,-2.3758,-2.564,-2.6696,-2.6866,-2.8411,-2.8875,-2.8361,-2.8913,-2.9428,-2.9942,-2.9804,0.0,-2.5159,-2.3697,0.0,0.0,0.0,0.0,0.0,0.0,0.0,0.0,0.0,0.0,0.0,0.0,0.0,0.0,0.0,0.0,0.0,0.0,0.0,0.0,0.0,-1.65,-1.6647,-1.6974,-1.7576,-1.7641,0.0,0.0,0.0,0.0,0.0,0.0,0.0,0.0,0.0,0.0,-2.0608,-2.1655,-2.2005,-2.3026,-2.3193,-2.2617,-2.2062,-2.088,-1.9246,-1.8606,0.0,0.0,0.0,0.0,0.0,0.0,0.0,0.0,0.0,0.0,0.0,0.0,0.0,0.0,0.0,0.0,0.0,0.0,0.0,0.0,0.0,0.0,0.0,0.0,0.0,0.0,0.0,0.0,0.0,0.0,0.0,0.0,0.0,0.0,0.0,0.0,0.0,0.0,0.0,-1.5116,-1.5436,-1.5958,-1.589,-1.5684,0.0,0.0,0.0,0.0,0.0,0.0,0.0,0.0,0.0,-2.035,-2.1247,-2.2986,-2.5734,-2.7358,-2.8639,-2.9603,-3.0984,-3.1512,-3.126,-3.1185,-3.1461,-3.1964,-3.1323,-3.0394,-2.9164,-2.717,-2.5837,-2.4921,0.0,0.0,0.0,0.0,-2.3791,-2.3841,0.0,0.0,0.0,0.0,0.0,0.0,0.0,0.0,0.0,0.0,0.0,0.0,-1.65,-1.6751,-1.7124,-1.7574,-1.8318,-1.8468,-1.7674,0.0,0.0,0.0,0.0,0.0,0.0,0.0,0.0,-1.9586,-2.1584,-2.2611,-2.2712,-2.4131,-2.4718,-2.4608,-2.5099,-2.3231,-1.9752,-1.9672,-1.9137,-1.8353,0.0,0.0,0.0,0.0,0.0,0.0,0.0,0.0,0.0,0.0,0.0,0.0,0.0,0.0,0.0,0.0,0.0,0.0,0.0,0.0,0.0,0.0,0.0,0.0,0.0,0.0,0.0,0.0,0.0,0.0,0.0,0.0,0.0,0.0,0.0,0.0,0.0,-1.5987,-1.6237,-1.6212,-1.6517,-1.6465,0.0,0.0,0.0,0.0,0.0,0.0,-1.8496,-1.9843,-2.1212,-2.2475,-2.3612,-2.547,-2.816,-2.9486,-3.0819,-3.2252,-3.3093,-3.3495,-3.3483,-3.3056,-3.3018,-3.3244,-3.2403,-3.2102,-3.2051,-2.9993,-2.8335,-2.7052,-2.6302,-2.5937,-2.5824,-2.5824,-2.5824,-2.5875,0.0,0.0,0.0,0.0,0.0,0.0,0.0,0.0,0.0,0.0,0.0,-1.65,-1.65,-1.7476,-1.8129,-1.8166,-1.8216,-1.8229,-1.8166,-1.7212,0.0,0.0,0.0,0.0,0.0,0.0,0.0,-2.0631,-2.3821,-2.5419,-2.5451,-2.8197,-2.9167,-2.8609,-2.9237,-2.7638,-2.4321,-2.2057,-2.1209,-2.1153,-1.8556,0.0,0.0,0.0,0.0,0.0,0.0,0.0,0.0,0.0,0.0,0.0,0.0,0.0,0.0,0.0,0.0,0.0,0.0,0.0,0.0,0.0,0.0,0.0,0.0,0.0,0.0,0.0,0.0,0.0,0.0,0.0,0.0,0.0,0.0,0.0,0.0,0.0,0.0,-1.5547,-1.7246,0.0,0.0,0.0,0.0,-1.8576,-2.0309,-2.0943,-1.9852,-2.2617,-2.4204,-2.4164,-2.8211,-3.0603,-3.1177,-3.2839,-3.3966,-3.4505,-3.4568,-3.4638,-3.4638,-3.4613,-3.4324,-3.3859,-3.3796,-3.3181,-3.2089,-3.0432,-2.9377,-2.8662,-2.762,-2.6914,-2.6449,-2.6449,-2.6449,-2.6449,0.0,0.0,0.0,0.0,0.0,0.0,0.0,0.0,0.0,-1.65,-1.65,-1.6776,-1.7526,-1.7965,-1.8781,-2.0188,-2.0313,-2.0313,-2.0313,-1.9258,0.0,0.0,0.0,0.0,0.0,0.0,-2.1461,-2.1981,-2.481,-2.6213,-2.6245,-2.7157,-2.744,-2.7216,-2.7185,-2.6368,-2.4972,-2.4511,-2.3449,-2.2003,-2.054,-1.8901,0.0,0.0,0.0,0.0,0.0,0.0,0.0,0.0,0.0,0.0,0.0,0.0,0.0,0.0,0.0,0.0,0.0,0.0,0.0,0.0,0.0,0.0,0.0,0.0,0.0,0.0,0.0,0.0,0.0,0.0,0.0,0.0,0.0,0.0,0.0,0.0,0.0,-1.791,-1.929,0.0,-1.9268,-2.0227,-2.1184,-2.1967,-2.2635,-2.3355,-2.4126,-2.4848,-2.5374,-2.5665,-2.7982,-2.982,-3.1064,-3.1995,-3.3407,-3.5207,-3.474,-3.4946,-3.5768,-3.5416,-3.5094,-3.4868,-3.4211,-3.3872,-3.3734,-3.2441,-3.1348,-3.0444,-2.9716,-2.9089,-2.8636,-2.8636,-2.8373,-2.8097,0.0,0.0,0.0,0.0,0.0,0.0,0.0,0.0,0.0,-1.65,-1.65,-1.6926,-1.8078,-1.8706,-1.9698,-2.1343,-2.1493,-2.133,-2.0941,-1.971,0.0,0.0,0.0,0.0,0.0,-2.1034,-2.2492,-2.3134,-2.572,-2.6721,-2.6217,-2.6956,-2.7272,-2.7302,-2.7347,-2.7259,-2.7012,-2.7217,-2.56,-2.278,-2.1765,-2.0333,-1.8782,0.0,0.0,0.0,0.0,0.0,0.0,0.0,0.0,0.0,0.0,0.0,0.0,0.0,0.0,0.0,0.0,0.0,0.0,0.0,0.0,0.0,0.0,0.0,0.0,0.0,0.0,0.0,0.0,0.0,0.0,0.0,0.0,0.0,0.0,0.0,-1.9785,-1.9932,-2.1475,-2.2236,-2.1554,-2.2413,-2.3414,-2.425,-2.4875,-2.5583,-2.6434,-2.6851,-2.7309,-2.7885,-2.9532,-3.0993,-3.2183,-3.2908,-3.4042,-3.5508,-3.5218,-3.5523,-3.6405,-3.5994,-3.5671,-3.5445,-3.4575,-3.4274,-3.4374,-3.3458,-3.2629,-3.1901,-3.1373,-3.0821,-3.0319,-3.0131,-2.9942,-2.9792,0.0,0.0,0.0,0.0,0.0,0.0,0.0,0.0,0.0,-1.65,-1.6513,-1.6964,-1.8129,-1.9723,-2.0943,-2.1546,-2.1506,-2.1016,-1.9949,-1.8304,0.0,0.0,0.0,0.0,-1.9761,-2.23,-2.3758,-2.4071,-2.6642,-2.7062,-2.5553,-2.7971,-2.9155,-2.9222,-3.0164,-3.0607,-3.0574,-3.0049,-2.7533,-2.376,-2.2012,-2.1075,-2.0478,0.0,0.0,0.0,0.0,0.0,0.0,0.0,0.0,0.0,0.0,0.0,0.0,0.0,0.0,0.0,0.0,0.0,0.0,0.0,0.0,0.0,0.0,0.0,0.0,0.0,0.0,0.0,0.0,0.0,0.0,0.0,0.0,0.0,-1.8193,-2.0332,-2.1807,-2.1385,-2.3594,-2.4685,-2.3452,-2.5371,-2.631,-2.5326,-2.6947,-2.7543,-2.6585,-2.8552,-3.0099,-3.0856,-3.3149,-3.4485,-3.4698,-3.5725,-3.6,-3.5533,-3.6047,-3.631,-3.6405,-3.6405,-3.6069,-3.5495,-3.4944,-3.4449,-3.3935,-3.3345,-3.3106,-3.3111,-3.2466,-3.1901,-3.1348,-3.0846,-3.0959,-3.1298,0.0,0.0,0.0,0.0,0.0,0.0,0.0,0.0,-1.607,-1.645,-1.6886,-1.7714,-1.9196,-2.0163,-2.1408,-2.315,-2.186,-2.1131,-2.1594,0.0,0.0,0.0,0.0,0.0,-2.1704,-2.4716,-2.5937,-2.5329,-2.7137,-2.777,-2.7228,-2.7345,-2.7785,-2.8487,-2.8509,-2.8523,-2.8513,-2.8391,-2.7672,-2.6496,-2.4905,-2.333,-2.1826,0.0,0.0,0.0,0.0,0.0,0.0,0.0,0.0,0.0,0.0,0.0,0.0,0.0,0.0,0.0,0.0,0.0,0.0,0.0,0.0,0.0,0.0,0.0,0.0,0.0,0.0,0.0,0.0,0.0,0.0,0.0,0.0,-2.0947,-2.084,-2.2227,-2.3574,-2.4358,-2.5674,-2.6348,-2.5996,-2.6557,-2.7332,-2.8373,-2.8056,-2.8236,-2.9199,-2.9797,-3.022,-3.0451,-3.3017,-3.4449,-3.4498,-3.3756,-3.4315,-3.6132,-3.4327,-3.4484,-3.6405,-3.6405,-3.6329,-3.6107,-3.5508,-3.5454,-3.5625,-3.4223,-3.3909,-3.4173,-3.3219,-3.2491,-3.1964,-3.1825,-3.1373,-3.0746,0.0,0.0,0.0,0.0,0.0,0.0,0.0,0.0,-1.6158,-1.645,-1.681,-1.7652,-1.9296,-1.9773,-2.069,-2.2447,-2.1219,-2.0388,-2.0577,0.0,0.0,0.0,0.0,-2.1761,-2.3749,-2.5974,-2.6761,-2.6087,-2.7351,-2.7431,-2.6462,-2.7289,-2.7703,-2.773,-2.8481,-2.8478,-2.793,-2.793,-2.7822,-2.7633,-2.6729,-2.5325,-2.3701,-2.2259,-2.123,-2.0557,-1.9904,-1.9446,-1.9056,-1.8603,0.0,0.0,0.0,0.0,0.0,0.0,0.0,0.0,0.0,0.0,0.0,0.0,0.0,0.0,0.0,0.0,0.0,0.0,0.0,0.0,0.0,0.0,0.0,0.0,-2.2041,-2.3691,-2.4228,-2.4785,-2.5488,-2.6435,-2.7295,-2.7744,-2.7568,-2.7549,-2.8001,-2.9011,-2.8373,-2.8387,-2.9398,-2.946,-2.9964,-3.1122,-3.2705,-3.3962,-3.4846,-3.4291,-3.4679,-3.6019,-3.4643,-3.4848,-3.6405,-3.6405,-3.6405,0.0,-3.5542,-3.5378,-3.5567,-3.4135,-3.3746,0.0,0.0,0.0,0.0,0.0,-3.1185,-3.0256,0.0,0.0,0.0,0.0,0.0,0.0,0.0,0.0,0.0,0.0,0.0,-1.719,-1.8744,-1.8958,-1.9447,-2.0503,-1.9987,-1.9196,0.0,0.0,0.0,-1.9321,-2.0762,-2.2894,-2.5824,-2.6699,-2.6987,-2.6678,-2.7464,-2.681,-2.4848,-2.7689,-2.8363,-2.7286,-2.9302,-2.9514,-2.8291,-2.8291,-2.8076,-2.7787,-2.7787,-2.6963,-2.5586,-2.4053,-2.3154,-2.2607,-2.1668,-2.0869,-2.0244,-2.0049,0.0,0.0,0.0,0.0,0.0,0.0,0.0,0.0,0.0,0.0,0.0,0.0,0.0,0.0,0.0,0.0,0.0,0.0,0.0,0.0,0.0,0.0,0.0,0.0,-2.4699,-2.6328,-2.7627,-2.7471,-2.7353,-2.7695,-2.8437,-2.875,-2.833,-2.8291,-2.8344,-2.8495,-2.8548,-2.8548,-2.8548,0.0,0.0,0.0,0.0,-3.3527,-3.5596,-3.5824,-3.5812,-3.5596,-3.5978,-3.6263,-3.6405,-3.6405,-3.6405,-3.6355,-3.5265,-3.4768,-3.4726,-3.3621,-3.3093,-3.293,-3.2416,-3.2215,-3.2139,-3.1524,-3.0696,-2.9942,0.0,0.0,0.0,0.0,0.0,0.0,0.0,0.0,0.0,-1.6387,-1.6923,-1.7501,-1.8279,-1.8744,-1.9259,-1.9911,-1.9083,-1.8242,0.0,0.0,-1.9572,-2.1553,-2.3623,-2.5619,-2.7582,-2.8675,-2.8729,-2.7804,-2.8375,-2.8164,-2.725,-2.8682,-2.9024,-2.8476,-2.9267,-2.9176,-2.8291,-2.8291,-2.8252,-2.8174,-2.8174,-2.7402,-2.6191,-2.5498,-2.4746,-2.3896,-2.2695,-2.2331,-2.2262,-2.0908,-2.0518,-2.045,-1.9766,0.0,0.0,0.0,0.0,0.0,0.0,0.0,0.0,0.0,0.0,0.0,0.0,0.0,0.0,0.0,0.0,0.0,0.0,0.0,0.0,-2.389,-2.5635,-2.7217,-2.8496,-2.8603,-2.8457,-2.8203,-2.8613,-2.875,-2.833,-2.8291,-2.8751,-2.9807,-2.9911,-2.9911,-2.9911,-3.1999,-3.2955,-3.2331,-3.3415,-3.4715,-3.6207,-3.4144,-3.4144,-3.6207,0.0,0.0,-3.6405,-3.6405,-3.6405,-3.6367,-3.5667,-3.5345,-3.5257,-3.4198,-3.3206,-3.2365,-3.2252,-3.2215,-3.2089,-3.1122,-3.0633,-3.0407,0.0,0.0,0.0,0.0,0.0,0.0,0.0,0.0,0.0,0.0,-1.6773,-1.7162,-1.7739,-1.7777,-1.7967,-1.8543,-1.784,0.0,0.0,-1.8807,-2.0526,-2.305,-2.4996,-2.6804,-2.8449,-2.9352,-2.9236,-2.8096,-2.8237,-2.7843,-2.7051,-2.9222,-2.9737,-2.8974,-3.0303,-3.0303,-2.926,-2.8601,-2.8291,-2.8291,-2.8291,-2.791,-2.7295,-2.6865,-2.6025,-2.4961,-2.4102,-2.3652,-2.3271,-2.1973,-2.1689,-2.1758,-2.1103,-2.0312,-1.9502,0.0,0.0,0.0,0.0,0.0,0.0,0.0,0.0,0.0,0.0,0.0,0.0,0.0,0.0,-2.0225,0.0,0.0,-2.4641,-2.6387,-2.7588,-2.8516,-2.916,-2.9424,-2.9316,-2.8682,-2.8789,-2.875,-2.833,-2.8291,-2.8847,-3.0214,-2.966,-2.9859,-3.1224,-3.1999,-3.2655,-3.3304,-3.4019,-3.503,-3.6405,-3.5041,-3.5041,-3.6405,-3.5715,-3.5763,-3.6405,-3.6081,-3.5956,-3.5906,-3.5077,-3.468,-3.4663,-3.3822,-3.3156,-3.2591,-3.2014,-3.165,-3.1311,-3.0507,-3.0206,-3.0168,0.0,0.0,0.0,0.0,0.0,0.0,0.0,0.0,0.0,0.0,-1.6337,-1.6572,-1.7149,-1.6798,-1.671,0.0,0.0,0.0,0.0,-1.9472,-2.138,-2.418,-2.5933,-2.7507,-2.9026,-2.9553,-2.9365,-2.8426,-2.841,-2.796,-2.7194,-3.018,-3.0917,-2.9802,-3.1396,-3.1444,-3.0214,-2.8847,-2.8291,-2.8291,-2.8291,-2.8291,-2.8252,-2.7822,-2.6963,-2.5869,-2.5391,-2.4482,-2.3447,-2.2842,-2.2471,-2.2246,-2.2158,-2.1777,-2.1123,-1.9893,-1.9414,0.0,0.0,0.0,0.0,0.0,0.0,0.0,0.0,0.0,-1.9297,-2.0742,-2.157,-2.2545,-2.4131,-2.541,-2.6826,-2.8623,-2.9219,-2.9473,-2.9616,-2.9717,-2.96,-2.8984,-2.8916,-2.875,-2.833,-2.8548,-2.9154,-3.0214,-2.9817,-3.0317,-3.218,-3.1774,-3.2241,-3.392,-3.4288,-3.4933,-3.6013,-3.6013,-3.6156,-3.6405,-3.6405,-3.6405,-3.6392,-3.5805,-3.5495,-3.5445,-3.4374,-3.3847,-3.3709,-3.3257,-3.3124,-3.3011,-3.1825,-3.1135,-3.0683,-3.003,-2.9792,-2.9792,0.0,0.0,0.0,0.0,0.0,0.0,0.0,0.0,0.0,0.0,0.0,0.0,0.0,0.0,0.0,0.0,0.0,0.0,-1.8807,-2.0426,-2.2535,-2.5297,-2.703,-2.8473,-2.9666,-2.9767,-2.9753,-2.9624,-3.0512,-3.091,-3.0865,-3.2711,-3.3107,-3.2289,-3.1788,-3.1127,-3.0214,-2.8847,-2.8291,-2.8291,-2.8291,-2.8291,-2.8252,-2.7822,-2.7334,-2.6768,-2.5908,-2.4365,-2.2695,-2.2935,-2.2272,-2.1522,-2.2613,-2.2451,-2.1631,-2.0732,0.0,-1.916,-1.8549,-1.8461,-1.8705,-1.9453,-1.9385,-1.9941,0.0,0.0,-2.2598,-2.4612,-2.5118,-2.5479,-2.6475,-2.7393,-2.8203,-2.8818,-2.8955,-2.9121,-2.9512,-2.8955,-2.8603,-2.8887,-2.8916,-2.875,-2.833,-2.9355,-3.0162,-3.0266,-3.2404,-3.3315,-3.2331,-3.4484,-3.4751,-3.2593,-3.3761,-3.4483,-3.4629,-3.4629,-3.5223,-3.6405,-3.6405,-3.6405,-3.6392,-3.5805,-3.5495,-3.5445,-3.4374,-3.3621,-3.3169,-3.3106,-3.3124,-3.3011,-3.1825,-3.1348,-3.1185,-3.0168,-2.9792,-2.9792,0.0,0.0,0.0,0.0,0.0,0.0,0.0,0.0,0.0,0.0,0.0,0.0,0.0,0.0,0.0,0.0,0.0,0.0,-1.9346,-2.0439,-2.2246,-2.5021,-2.6427,-2.767,-2.8787,-2.9126,-2.9453,-2.9792,-3.0175,-3.0348,-3.0384,-3.2069,-3.282,-3.2828,-3.2708,-3.2218,-3.1378,-3.0016,-2.9006,-2.8291,-2.8291,-2.8144,-2.7881,-2.7451,-2.6396,-2.5059,-2.4397,-2.333,0.0,0.0,-2.121,-2.1337,-2.2158,-2.1992,-2.1387,-2.0791,-2.0137,0.0,-1.9736,-1.9756,0.0,0.0,-2.1484,-2.2422,-2.4355,-2.459,-2.4863,-2.6514,-2.6855,-2.7119,-2.7969,-2.8213,-2.8516,0.0,-2.9082,-2.8896,-2.8838,-2.8516,-2.8086,-2.7519,-2.798,-2.8644,-2.9399,-2.9964,-3.0979,-3.2555,-3.2252,-3.2794,-3.4593,-3.5017,-3.5066,-3.4703,-3.5259,-3.5571,-3.5571,-3.5571,-3.587,-3.6405,-3.6405,-3.6194,-3.5868,-3.527,-3.4668,-3.4085,-3.3621,-3.3294,-3.3124,-3.3124,-3.288,-3.2528,-3.2051,-3.1486,-3.0846,-3.008,-2.9792,-2.9792,0.0,0.0,0.0,0.0,0.0,0.0,0.0,0.0,0.0,0.0,0.0,0.0,0.0,0.0,0.0,0.0,0.0,0.0,0.0,-1.9925,-2.1455,-2.4199,-2.5423,-2.6666,-2.8072,-2.8612,-2.9214,-2.9792,-2.9837,-2.9892,-2.9916,-3.1419,-3.2345,-3.2699,-3.2945,-3.272,-3.2082,-3.0528,-2.9332,-2.8373,-2.796,-2.7588,-2.7268,-2.6299,-2.4912,-2.3398,-2.3086,-2.2041,0.0,0.0,-1.9932,-2.0283,-2.0957,-2.0947,-2.0635,-2.0341,-1.999,-1.9805,-2.0165,0.0,0.0,-2.2275,-2.3467,-2.4619,-2.5713,-2.6299,-2.6914,-2.7978,-2.8096,-2.8261,-2.9001,-2.8701,-2.8515,-2.9213,-2.8996,-2.8555,-2.8018,-2.7939,-2.7549,-2.6514,-2.7585,-2.8828,-2.9949,-3.0464,-3.1495,-3.3231,-3.2361,-3.2887,-3.548,-3.5185,-3.5223,-3.5823,-3.6203,-3.6203,-3.5858,-3.6216,-3.6405,-3.6405,-3.6207,-3.5931,-3.547,-3.4768,-3.3972,-3.3124,-3.3124,-3.2993,-3.283,-3.283,-3.2591,-3.2202,-3.2051,-3.1512,-3.0771,-3.0218,-2.993,-2.9792,0.0,0.0,0.0,0.0,0.0,0.0,0.0,0.0,0.0,0.0,0.0,0.0,0.0,0.0,0.0,0.0,0.0,0.0,0.0,-1.8744,-2.0274,-2.3032,-2.4236,-2.5887,-2.8059,-2.8612,-2.9214,-2.9792,-3.0317,-3.0553,-3.0578,-3.1709,-3.2223,-3.2201,-3.2006,-3.193,-3.1782,-2.9742,-2.8825,-2.8645,-2.7083,-2.6435,-2.6201,-2.4127,-2.2978,-2.2549,-2.2539,0.0,0.0,0.0,-1.8506,-1.7715,-1.8965,-1.9355,0.0,-1.9326,-1.9316,-1.9307,0.0,0.0,-2.1678,-2.3818,-2.4962,-2.6074,-2.7812,-2.8516,-2.8955,-2.9414,-2.918,-2.9065,-2.9722,-2.8996,-2.8377,-2.8683,-2.8475,-2.8018,-2.7168,-2.7051,-2.6894,-2.6435,-2.8148,-2.9406,0.0,-3.0905,-3.1577,-3.0874,-3.3611,-3.4831,-3.3648,-3.5324,-3.5763,-3.4483,-3.5715,-3.5775,-3.4483,-3.5763,-3.6405,-3.6405,-3.583,-3.552,-3.5458,-3.4424,-3.3608,-3.3124,-3.3124,-3.2754,-3.224,-3.224,-3.2227,-3.2164,-3.1625,-3.1399,-3.1298,-3.0783,-3.0256,-2.9792,0.0,0.0,0.0,0.0,0.0,0.0,0.0,0.0,0.0,0.0,0.0,0.0,0.0,0.0,0.0,0.0,0.0,0.0,0.0,-1.838,-1.9183,-2.0853,-2.2008,-2.3301,-2.475,-2.5691,-2.6653,-2.7618,-2.8499,-2.895,-2.8976,-3.008,-3.0984,-3.1687,-3.162,-3.1465,-3.1215,-2.9821,-2.8677,-2.7727,-2.5829,-2.5078,-2.4814,-2.2405,-2.081,-1.9787,0.0,0.0,0.0,-1.7279,-1.7061,-1.7048,-1.7803,-1.7822,-1.7705,-1.8271,-1.8838,-1.9658,0.0,0.0,-2.3867,-2.6025,-2.7217,-2.8154,-2.9297,-2.9668,-2.9726,-2.96,-2.833,-2.7202,-2.7142,-2.635,-2.6091,-2.7305,-2.7462,-2.7535,-2.7769,-2.7321,-2.6823,-2.6245,-2.7411,0.0,0.0,0.0,0.0,-3.2759,-3.3337,-3.3995,-3.4782,-3.5809,-3.6216,-3.5763,-3.6156,-3.6156,-3.5715,-3.5759,-3.5818,-3.5805,-3.4901,-3.4449,-3.4412,-3.3294,-3.2893,-3.3074,-3.2277,-3.2051,-3.2215,-3.2215,-3.2001,-3.1725,-3.229,-3.1838,-3.0896,-3.1072,-3.057,-2.9792,0.0,0.0,0.0,0.0,0.0,0.0,0.0,0.0,0.0,0.0,0.0,0.0,0.0,0.0,0.0,0.0,0.0,0.0,0.0,0.0,-1.8091,-1.9183,-2.0112,-2.1217,-2.2493,-2.3421,-2.4368,-2.5272,-2.5988,-2.6292,-2.6339,-2.7067,-2.7783,-2.8461,-2.8863,-2.8954,-2.8747,-2.7995,-2.6945,-2.5636,-2.3732,-2.2725,-2.21,-1.9862,-1.8472,0.0,0.0,0.0,0.0,-1.5997,-1.6025,-1.6307,-1.6777,-1.7139,-1.7457,-1.7891,-1.916,-2.0869,-2.2842,-2.4336,-2.583,-2.7894,-2.8867,-2.9521,-3.0068,-3.0078,-2.9726,-2.8838,-2.707,-2.5544,-2.4999,-2.4102,-2.398,-2.5711,-2.5987,-2.6519,-2.7823,-2.7031,-2.6328,-2.6364,-2.7412,0.0,0.0,0.0,0.0,-3.3183,-3.3375,-3.3958,-3.5136,-3.5956,-3.6405,-3.6405,-3.6405,-3.6405,-3.6405,-3.6019,-3.5642,-3.5194,-3.4537,-3.3985,-3.3571,-3.2641,-3.2416,-3.2729,-3.2001,-3.1662,-3.1675,-3.2051,-3.1775,-3.121,-3.2114,-3.1712,-3.0658,-3.0997,-3.0557,-2.9792,0.0,0.0,0.0,0.0,0.0,0.0,0.0,0.0,0.0,0.0,0.0,0.0,0.0,0.0,0.0,0.0,0.0,0.0,0.0,0.0,0.0,-1.8078,-1.8619,-1.9672,-2.1292,-2.187,-2.238,-2.2932,-2.2957,-2.2982,-2.2982,-2.3007,-2.3032,-2.3108,-2.4186,-2.4675,-2.4698,-2.4502,-2.3814,-2.2676,-2.0963,-1.9596,-1.8414,-1.6662,0.0,0.0,0.0,0.0,0.0,0.0,0.0,0.0,0.0,-1.7314,-1.8607,-1.8301,-2.0293,-2.2812,-2.374,-2.5537,-2.7549,-2.9219,-2.9922,-3.0185,-3.0137,-2.9756,-2.8916,-2.7207,-2.543,-2.3974,0.0,0.0,-2.2229,-2.4018,-2.4405,-2.5283,-2.7545,-2.6391,-2.5752,0.0,0.0,0.0,0.0,0.0,0.0,-3.2303,0.0,-3.4655,-3.4718,-3.578,-3.6405,-3.6405,-3.6405,-3.6405,-3.6405,-3.638,-3.5768,-3.4675,-3.4675,-3.411,-3.3056,-3.2453,-3.2202,-3.2252,-3.2177,-3.1574,-3.0733,-3.175,-3.1562,-3.067,-3.1185,-3.1072,-3.062,-3.062,-3.0269,-2.9792,0.0,0.0,0.0,0.0,0.0,0.0,0.0,0.0,0.0,0.0,0.0,0.0,0.0,0.0,0.0,0.0,0.0,0.0,0.0,0.0,0.0,0.0,0.0,0.0,0.0,0.0,0.0,0.0,-2.1079,-2.132,-2.1333,-2.1719,-2.2133,-2.2506,-2.2824,-2.3145,-2.3485,-2.2627,-2.2136,-2.1647,0.0,-1.8334,-1.8119,0.0,0.0,0.0,0.0,0.0,0.0,0.0,0.0,0.0,0.0,-1.8213,-1.9728,-2.0644,-2.2334,-2.4336,-2.6182,-2.7826,-2.918,-3.0283,-3.0371,-3.0029,-2.9394,-2.8184,-2.6709,-2.4971,-2.2715,-2.0811,0.0,0.0,0.0,-2.379,-2.5665,0.0,-2.9994,-2.8867,0.0,0.0,0.0,-3.0308,-3.185,-3.2903,0.0,0.0,-3.3872,-3.4462,-3.5245,-3.5994,-3.6405,-3.6405,-3.6405,-3.6405,-3.6405,-3.5956,-3.5203,-3.411,-3.411,-3.3746,-3.3086,-3.2051,-3.2064,-3.278,-3.1549,-3.1085,-3.1223,-3.1486,-3.121,-3.067,-3.1185,-3.1072,-3.062,-3.062,-3.0269,-2.9792,0.0,0.0,0.0,0.0,0.0,0.0,0.0,0.0,0.0,0.0,0.0,0.0,0.0,0.0,0.0,0.0,0.0,0.0,0.0,0.0,0.0,0.0,0.0,0.0,0.0,0.0,0.0,0.0,0.0,0.0,-1.8857,-1.9158,-1.9472,-1.9773,-2.0037,-2.0142,-2.0146,-1.9813,0.0,0.0,0.0,0.0,0.0,0.0,0.0,0.0,0.0,0.0,0.0,0.0,0.0,-1.8379,-1.8906,-2.0107,-2.1592,-2.29,0.0,-2.6191,-2.7783,-2.916,-3.0215,-3.0518,-3.0254,-2.9502,-2.7891,-2.6484,-2.4873,-2.2559,-2.0739,0.0,0.0,0.0,0.0,0.0,0.0,0.0,-3.0144,-2.9319,-2.9338,0.0,-3.1611,0.0,-3.3228,-3.411,-3.4726,0.0,-3.4763,-3.4843,-3.547,-3.6056,-3.6405,-3.6405,-3.6405,-3.6405,-3.6405,-3.6056,-3.5353,-3.4261,-3.4261,-3.3847,-3.3086,-3.2152,-3.2102,-3.2629,0.0,-3.0997,-3.1072,-3.1298,-3.0947,-3.0306,-3.0846,-3.0721,-3.0256,-3.0256,-3.0055,-2.9792,0.0,0.0,0.0,0.0,0.0,0.0,0.0,0.0,0.0,0.0,0.0,0.0,0.0,0.0,0.0,0.0,0.0,0.0,0.0,0.0,0.0,0.0,0.0,0.0,0.0,0.0,0.0,0.0,0.0,0.0,0.0,0.0,0.0,0.0,0.0,0.0,0.0,0.0,0.0,0.0,0.0,0.0,0.0,0.0,0.0,0.0,0.0,0.0,0.0,0.0,-1.8174,-1.9319,-2.1005,-2.2487,-2.3851,-2.5137,-2.6691,-2.8149,-2.8877,-2.9971,-3.0839,-3.0531,-3.0066,-2.8992,-2.6527,-2.5099,-2.3464,-2.0401,0.0,-1.8348,-1.6976,0.0,-1.9846,-2.0968,0.0,-2.5647,-2.9388,-2.8911,-2.9242,-3.2084,-3.2741,-3.3266,-3.3982,-3.5011,-3.5855,-3.6367,-3.5931,-3.5608,-3.5608,-3.6107,-3.6405,-3.6405,-3.6405,-3.6405,-3.6405,-3.6329,-3.5742,-3.468,-3.465,-3.4073,-3.3056,-3.2478,-3.2252,-3.229,-3.1662,0.0,-3.0859,-3.116,-3.0746,-2.9942,-3.0344,-3.0218,-2.9792,-2.9792,-2.9792,-2.9792,0.0,0.0,0.0,0.0,0.0,0.0,0.0,0.0,0.0,0.0,-1.4374,-1.4026,0.0,0.0,0.0,0.0,0.0,0.0,0.0,0.0,0.0,0.0,0.0,0.0,0.0,0.0,0.0,0.0,0.0,0.0,0.0,0.0,0.0,0.0,0.0,0.0,0.0,0.0,0.0,0.0,0.0,0.0,0.0,0.0,0.0,0.0,0.0,0.0,0.0,0.0,-1.9424,-2.1562,-2.292,-2.4727,-2.6523,-2.7461,-2.8447,-2.9346,-2.9844,-3.042,-3.1052,-3.1671,-3.0822,-2.9384,-2.7643,-2.5599,0.0,0.0,0.0,-1.6911,-1.6796,-1.7868,0.0,-2.2131,0.0,0.0,0.0,0.0,-3.0922,0.0,0.0,0.0,0.0,0.0,0.0,0.0,0.0,-3.6267,-3.6267,-3.6355,-3.6405,-3.6405,-3.6405,-3.6405,-3.6405,-3.5918,-3.532,-3.4668,-3.4261,-3.3709,-3.3056,-3.2478,-3.2466,-3.2867,-3.1838,0.0,-3.1876,-3.1085,-3.0645,-3.0432,-3.008,-2.988,-2.9792,-2.9792,-2.9792,-2.9792,0.0,0.0,0.0,0.0,0.0,0.0,0.0,0.0,-1.5089,-1.483,-1.4627,-1.4165,-1.3301,-1.3198,0.0,0.0,0.0,0.0,0.0,0.0,0.0,0.0,0.0,0.0,0.0,0.0,0.0,0.0,0.0,0.0,0.0,0.0,0.0,0.0,0.0,0.0,0.0,0.0,0.0,0.0,0.0,0.0,0.0,0.0,0.0,0.0,0.0,0.0,0.0,0.0,-1.8574,-2.0996,-2.3668,-2.5478,-2.7047,-2.8832,-2.9305,-2.9531,-3.0882,-3.1082,-3.0897,-3.0856,-2.9618,-2.7814,-2.5451,0.0,0.0,0.0,0.0,-1.6596,-1.6432,0.0,0.0,0.0,0.0,0.0,0.0,0.0,0.0,0.0,0.0,0.0,0.0,0.0,0.0,0.0,0.0,-3.6056,-3.6392,-3.6405,-3.6405,-3.6405,-3.6405,-3.6405,-3.6405,-3.5818,-3.5219,-3.4668,-3.4161,-3.3608,-3.3111,-3.2792,-3.2817,-3.3074,-3.219,0.0,-3.1725,-3.0934,-3.0444,-3.0168,-2.9892,-2.9792,-2.9792,-2.9792,-2.9792,-2.9792,0.0,0.0,0.0,0.0,0.0,0.0,0.0,-1.5712,-1.5477,-1.5028,-1.4627,-1.4068,-1.3301,-1.3198,-1.3198,0.0,0.0,0.0,0.0,0.0,0.0,0.0,0.0,0.0,0.0,0.0,0.0,0.0,0.0,0.0,0.0,0.0,0.0,0.0,0.0,0.0,0.0,0.0,0.0,0.0,0.0,0.0,0.0,0.0,0.0,0.0,0.0,0.0,0.0,0.0,-1.7151,-1.9235,-2.2788,-2.4945,-2.6537,-2.8725,-2.9276,-2.9545,-3.1216,-3.1651,-3.1358,-3.0187,-2.8803,-2.6895,-2.3803,-2.1484,0.0,0.0,-1.6857,-1.6806,-1.6521,0.0,0.0,0.0,0.0,0.0,0.0,0.0,0.0,0.0,0.0,0.0,0.0,0.0,0.0,0.0,0.0,0.0,-3.6169,-3.6342,-3.6405,-3.6405,-3.6292,-3.6194,-3.6194,-3.5529,-3.4931,-3.4537,-3.3985,-3.3495,-3.3124,-3.3124,-3.3048,-3.2855,-3.229,0.0,0.0,-3.0696,-3.0256,-2.9955,-2.9842,-2.9792,-2.9792,-2.9792,-2.9792,-2.9792,0.0,0.0,0.0,0.0,0.0,0.0,0.0,-1.5433,-1.5028,-1.4611,-1.4198,-1.3752,-1.3267,-1.3198,-1.3198,0.0,0.0,0.0,0.0,0.0,0.0,0.0,0.0,0.0,0.0,0.0,0.0,0.0,0.0,0.0,0.0,0.0,0.0,0.0,0.0,0.0,0.0,0.0,0.0,0.0,0.0,0.0,0.0,0.0,0.0,0.0,0.0,0.0,0.0,0.0,0.0,-1.6825,-1.9312,-2.2459,-2.5348,-2.6158,0.0,0.0,-2.9918,-3.1926,-3.3562,-3.1411,-3.0385,-2.9046,-2.5849,0.0,0.0,-1.8607,-1.7618,-1.7411,-1.7906,-1.7739,0.0,0.0,0.0,0.0,0.0,0.0,0.0,0.0,0.0,0.0,0.0,0.0,0.0,0.0,0.0,0.0,-3.5596,-3.6094,-3.6405,-3.6405,-3.5881,-3.5571,-3.5571,-3.4575,-3.4022,-3.3972,-3.342,-3.3174,-3.3124,-3.3124,-3.2792,-3.2252,-3.17,0.0,0.0,-3.0294,-3.0131,-3.0495,-2.9993,-2.9792,-2.9792,-2.9792,-2.9792,-2.9792,0.0,0.0,0.0,0.0,0.0,0.0,-1.5155,-1.514,-1.5043,-1.4876,-1.4294,-1.3835,-1.3648,-1.3374,-1.3198,0.0,0.0,0.0,0.0,0.0,0.0,0.0,0.0,0.0,0.0,0.0,0.0,0.0,0.0,0.0,0.0,0.0,0.0,0.0,0.0,0.0,0.0,0.0,0.0,0.0,0.0,0.0,0.0,0.0,0.0,0.0,0.0,0.0,0.0,0.0,0.0,0.0,-1.6286,-1.8466,0.0,0.0,-2.7031,-2.8881,-3.0432,-3.2332,-3.3378,-3.1137,-2.9645,-2.7855,-2.4694,0.0,0.0,-1.8233,-1.7266,-1.6799,-1.7115,-1.7542,-1.8202,0.0,0.0,0.0,0.0,0.0,0.0,0.0,0.0,0.0,0.0,0.0,0.0,0.0,0.0,0.0,-3.5031,-3.5881,-3.6405,-3.6405,-3.583,-3.5495,-3.5495,-3.4449,-3.3897,-3.3884,-3.3345,-3.3124,-3.3124,-3.3124,-3.2754,-3.2202,-3.1976,0.0,0.0,-3.047,-3.0218,-3.0093,-2.988,-2.9792,-2.9792,-2.9792,-2.9792,-2.9792,0.0,0.0,0.0,0.0,0.0,-1.4346,-1.4751,-1.4918,-1.4992,-1.4938,-1.4438,-1.3983,-1.3719,-1.3408,-1.3198,-1.3198,0.0,0.0,0.0,0.0,0.0,0.0,0.0,0.0,0.0,0.0,0.0,0.0,0.0,0.0,0.0,0.0,0.0,0.0,0.0,0.0,0.0,0.0,0.0,0.0,0.0,0.0,0.0,0.0,0.0,0.0,0.0,0.0,0.0,0.0,0.0,0.0,0.0,0.0,0.0,0.0,-2.4823,-2.7127,-2.9311,-3.1675,-3.2893,-3.0518,-2.8899,-2.7057,0.0,0.0,-1.8777,-1.8009,-1.7183,-1.6659,-1.676,-1.7551,-1.8254,-1.8417,0.0,-2.0639,0.0,0.0,0.0,0.0,0.0,0.0,0.0,0.0,0.0,0.0,0.0,0.0,0.0,-3.5705,-3.6044,-3.5881,-3.5341,-3.5019,-3.5019,-3.4123,-3.3658,-3.3658,-3.3269,-3.3124,-3.3111,-3.2905,-3.2516,-3.1951,-3.1813,0.0,0.0,-3.0369,-3.0143,-2.9792,-2.9792,-2.9792,-2.9792,-2.9792,-2.9792,-2.9792,0.0,0.0,0.0,0.0,0.0,0.0,0.0,-1.4797,-1.4728,-1.4528,-1.4501,-1.4165,-1.3301,-1.3198,-1.3198,-1.3198,0.0,0.0,0.0,0.0,0.0,0.0,0.0,0.0,0.0,0.0,-1.4916,-1.4928,-1.5969,-1.5957,0.0,0.0,0.0,0.0,0.0,0.0,0.0,0.0,0.0,0.0,0.0,0.0,0.0,0.0,0.0,0.0,0.0,0.0,0.0,0.0,0.0,0.0,0.0,0.0,0.0,0.0,-2.1239,-2.4952,-2.5579,-2.9366,-3.2462,-2.97,-2.8663,-2.752,0.0,0.0,-1.9014,-1.8325,-1.7765,-1.7398,-1.7398,-1.7827,-1.8356,-1.8907,-1.9936,0.0,0.0,0.0,0.0,0.0,0.0,0.0,0.0,0.0,0.0,0.0,0.0,0.0,0.0,-3.5495,-3.5257,-3.4705,-3.4211,-3.3922,-3.3922,-3.337,-3.3124,-3.3124,-3.3124,-3.3124,-3.3056,-3.2478,-3.1913,0.0,0.0,0.0,0.0,-2.9804,-2.9804,-2.9792,-2.9792,-2.9792,-2.9792,-2.9792,-2.9792,-2.9792,0.0,0.0,0.0,0.0,0.0,0.0,0.0,-1.4329,-1.4716,-1.3921,-1.3986,-1.3868,-1.3267,-1.3198,-1.3198,-1.3198,0.0,0.0,0.0,0.0,0.0,0.0,0.0,0.0,0.0,0.0,-1.4714,-1.5449,-1.5781,-1.5969,-1.5994,-1.5793,0.0,0.0,0.0,0.0,0.0,0.0,0.0,0.0,0.0,0.0,0.0,0.0,0.0,0.0,0.0,0.0,0.0,0.0,0.0,0.0,0.0,0.0,0.0,-1.6135,0.0,0.0,-2.3663,-2.622,-2.8081,-2.5954,-2.5076,-2.4087,-2.1565,-1.9706,-1.8351,-1.7781,-1.7187,-1.6911,-1.7313,-1.784,-1.8505,-1.9409,-2.0214,0.0,0.0,0.0,0.0,0.0,0.0,0.0,0.0,0.0,0.0,0.0,0.0,0.0,0.0,-3.4625,-3.4512,-3.4668,-3.4186,-3.3897,-3.3897,-3.3357,-3.3124,-3.3124,-3.3124,-3.3124,-3.3056,-3.2478,-3.1913,0.0,0.0,0.0,0.0,-2.9792,-2.9792,-2.9792,-2.9792,-2.9792,-2.9792,-2.9792,-2.9792,-2.9792,0.0,0.0,0.0,0.0,0.0,0.0,0.0,-1.362,-1.3983,-1.33,-1.351,-1.3522,-1.2952,-1.3073,-1.3198,-1.3198,0.0,0.0,0.0,0.0,0.0,0.0,0.0,0.0,0.0,-1.3972,-1.4425,-1.5097,-1.5257,-1.5426,-1.5549,-1.5413,-1.5047,-1.4503,-1.4554,0.0,0.0,0.0,0.0,0.0,0.0,0.0,-1.3779,0.0,0.0,0.0,0.0,0.0,0.0,0.0,0.0,0.0,0.0,0.0,0.0,0.0,-1.7506,0.0,0.0,-2.3337,-2.4704,-2.3791,-2.2996,0.0,0.0,-1.8937,-1.779,-1.7473,-1.6923,-1.6685,-1.7297,-1.784,-1.8493,-1.9371,-2.0189,0.0,0.0,0.0,0.0,0.0,0.0,0.0,0.0,0.0,0.0,0.0,0.0,0.0,0.0,-3.4198,-3.396,-3.4098,-3.3771,-3.3583,-3.3583,-3.3257,-3.3124,-3.3124,-3.2855,-3.2754,-3.2717,-3.1951,-3.1424,0.0,0.0,0.0,0.0,-2.9792,-2.9792,-2.9792,-2.9792,-2.9792,-2.9792,-2.9792,-2.9792,-2.9792,0.0,0.0,0.0,0.0,0.0,0.0,0.0,0.0,-1.2817,-1.2677,-1.316,-1.3214,-1.2453,-1.2864,-1.3185,-1.3148,0.0,0.0,0.0,0.0,0.0,0.0,0.0,0.0,0.0,-1.376,-1.411,-1.4099,-1.4566,-1.4562,-1.4116,-1.4532,-1.4464,-1.4048,-1.509,-1.4998,-1.4026,-1.3949,-1.4607,-1.5565,-1.4411,-1.3909,0.0,0.0,0.0,0.0,0.0,0.0,0.0,0.0,0.0,0.0,0.0,0.0,0.0,0.0,0.0,0.0,0.0,0.0,0.0,0.0,0.0,0.0,0.0,-1.8806,0.0,-1.7348,-1.6923,-1.676,-1.736,-1.789,-1.8455,-1.902,-2.0062,0.0,0.0,0.0,0.0,0.0,0.0,0.0,0.0,0.0,0.0,0.0,0.0,0.0,0.0,-3.4173,-3.3646,-3.3136,-3.3074,-3.3061,-3.3061,-3.3061,-3.3036,-3.2955,-3.2416,-3.2152,-3.2127,-3.1085,-3.062,0.0,0.0,0.0,0.0,-2.9792,-2.9792,-2.9792,-2.9792,-2.9792,-2.9792,-2.9792,-2.9792,-2.9792,0.0,0.0,0.0,0.0,0.0,0.0,0.0,0.0,0.0,0.0,-1.3011,-1.3143,-1.2199,-1.2761,-1.3023,0.0,0.0,0.0,0.0,0.0,0.0,0.0,0.0,0.0,0.0,-1.3616,-1.4107,-1.4106,-1.4559,-1.4939,-1.5197,-1.4464,-1.4043,-1.3942,-1.4194,-1.4653,-1.5189,-1.5173,-1.5622,-1.6216,-1.5477,-1.4892,0.0,0.0,0.0,0.0,-1.3802,-1.4365,0.0,0.0,0.0,0.0,0.0,0.0,0.0,0.0,-1.6402,-1.66,-1.7127,0.0,-1.7883,-1.8033,-1.7854,-1.7629,0.0,-1.7064,-1.6701,-1.6701,0.0,0.0,-1.7903,-1.8455,-1.9133,-2.0151,-2.1204,0.0,0.0,0.0,0.0,0.0,0.0,0.0,0.0,0.0,0.0,0.0,0.0,0.0,0.0,-3.3972,-3.3646,-3.3136,-3.2641,-3.2416,-3.2416,-3.2416,-3.2202,-3.1788,-3.165,-3.1587,-3.1562,-3.0909,-3.062,0.0,0.0,0.0,-2.9792,-2.9792,-2.9792,-2.9792,-2.9792,-2.9792,-2.9792,-2.9792,-2.9792,-2.9792,0.0,0.0,0.0,0.0,0.0,0.0,0.0,0.0,0.0,0.0,0.0,0.0,0.0,0.0,0.0,0.0,0.0,0.0,0.0,0.0,0.0,0.0,0.0,-1.3082,-1.2838,-1.3385,-1.3939,-1.4457,-1.4143,-1.4382,-1.5163,-1.426,-1.3846,-1.3846,-1.3846,-1.4664,-1.5952,-1.5141,-1.5276,-1.603,-1.5444,0.0,0.0,0.0,0.0,0.0,-1.3802,-1.4526,0.0,-1.4295,-1.4801,-1.5952,0.0,0.0,0.0,0.0,-1.65,-1.65,-1.65,-1.65,-1.65,-1.65,-1.65,-1.65,-1.65,0.0,0.0,0.0,0.0,0.0,0.0,0.0,0.0,0.0,0.0,0.0,0.0,0.0,0.0,0.0,0.0,0.0,0.0,0.0,0.0,0.0,0.0,0.0,0.0,-3.3658,-3.3382,-3.3124,-3.2516,-3.2215,-3.2215,-3.1964,-3.1687,-3.1386,-3.1148,-3.1035,-3.1022,-3.0482,-3.0231,0.0,0.0,0.0,-2.9792,-2.9792,-2.9792,-2.9792,-2.9792,-2.9792,-2.9792,-2.9792,-2.9792,-2.9792,0.0,0.0,0.0,0.0,0.0,0.0,0.0,0.0,0.0,0.0,0.0,0.0,0.0,0.0,0.0,0.0,0.0,0.0,0.0,0.0,0.0,0.0,0.0,-1.3163,-1.3094,-1.3163,-1.3718,-1.4787,-1.3689,-1.368,-1.4686,-1.4073,-1.3839,-1.3933,-1.3933,-1.4892,-1.6402,-1.4755,-1.4732,-1.5698,-1.5175,0.0,0.0,0.0,0.0,0.0,0.0,0.0,0.0,-1.4526,-1.5073,-1.6402,-1.5798,0.0,0.0,0.0,0.0,0.0,-1.65,-1.65,-1.65,-1.65,-1.65,-1.65,-1.65,0.0,0.0,0.0,0.0,0.0,0.0,0.0,0.0,0.0,0.0,0.0,0.0,0.0,0.0,0.0,0.0,0.0,0.0,0.0,0.0,0.0,0.0,0.0,0.0,-3.3119,-3.286,-3.286,-3.2265,-3.1976,-3.1976,-3.1499,-3.1235,-3.1135,-3.0696,-3.0495,-3.047,-3.0005,-2.9792,-2.9792,0.0,0.0,-2.9792,-2.9792,-2.9792,-2.9792,-2.9792,-2.9792,-2.9792,-2.9792,-2.9792,-2.9779,0.0,0.0,0.0,0.0,0.0,0.0,0.0,0.0,0.0,0.0,0.0,0.0,0.0,0.0,0.0,0.0,0.0,0.0,0.0,0.0,0.0,0.0,-1.3198,-1.3012,-1.2615,-1.3007,-1.3531,-1.4217,-1.3974,-1.415,-1.4686,-1.4073,-1.4073,-1.456,-1.456,-1.5287,-1.6457,-1.5654,-1.5732,-1.6358,-1.6272,0.0,0.0,0.0,0.0,0.0,0.0,0.0,0.0,-1.4994,-1.5421,-1.6402,-1.5798,0.0,0.0,0.0,0.0,0.0,-1.65,-1.65,-1.65,-1.65,-1.65,-1.65,-1.65,0.0,0.0,0.0,0.0,0.0,0.0,0.0,0.0,0.0,0.0,0.0,0.0,0.0,0.0,0.0,0.0,0.0,0.0,0.0,0.0,0.0,0.0,0.0,0.0,-3.1951,-3.165,-3.165,-3.1135,-3.0859,-3.0859,-3.0771,-3.0495,-3.003,-2.9955,-2.9917,-2.9917,-2.9829,-2.9792,-2.9792,0.0,-2.9792,-2.9792,-2.9792,-2.9792,-2.9792,-2.9792,-2.9792,-2.9792,-2.9792,-2.9792,-2.9729,0.0,0.0,0.0,0.0,0.0,0.0,0.0,0.0,0.0,0.0,0.0,0.0,0.0,0.0,0.0,0.0,0.0,0.0,0.0,0.0,0.0,-1.3198,-1.3198,-1.3253,-1.3361,-1.3583,-1.4107,-1.4959,-1.4284,-1.4372,-1.5163,-1.4583,-1.4595,-1.5163,-1.4858,-1.5366,-1.6457,-1.5864,-1.5764,-1.603,0.0,0.0,0.0,0.0,0.0,0.0,0.0,0.0,0.0,0.0,-1.5754,-1.6445,-1.6173,0.0,0.0,0.0,0.0,0.0,-1.65,-1.65,-1.6575,-1.6911,-1.6986,-1.7061,-1.734,0.0,0.0,0.0,0.0,0.0,0.0,0.0,0.0,0.0,0.0,0.0,0.0,0.0,0.0,0.0,0.0,0.0,0.0,0.0,0.0,0.0,0.0,0.0,0.0,0.0,-3.1386,-3.1386,-3.0884,-3.062,-3.062,-3.0319,-3.0043,-2.9792,-2.9792,-2.9792,-2.9792,-2.9792,-2.9792,-2.9792,0.0,-2.9792,-2.9792,-2.9792,-2.9792,-2.9792,-2.9792,-2.9792,-2.9754,-2.944,-2.9139,-2.88,0.0,0.0,0.0,0.0,0.0,0.0,0.0,0.0,0.0,0.0,0.0,0.0,0.0,0.0,0.0,0.0,0.0,0.0,0.0,0.0,-1.3198,-1.3198,-1.3198,-1.3483,-1.4091,-1.4103,-1.4626,-1.5693,-1.4763,-1.4764,-1.5588,-1.513,-1.5163,-1.5588,-1.5265,-1.5634,-1.6466,-1.6008,-1.582,-1.5842,0.0,0.0,0.0,0.0,0.0,0.0,0.0,0.0,0.0,0.0,0.0,0.0,0.0,0.0,0.0,-1.65,-1.65,-1.65,-1.65,-1.65,-1.6638,-1.726,0.0,-1.7426,-1.8367,0.0,0.0,0.0,0.0,0.0,0.0,0.0,0.0,0.0,0.0,0.0,0.0,0.0,0.0,0.0,0.0,0.0,0.0,0.0,0.0,0.0,0.0,0.0,0.0,0.0,-3.1022,-3.1022,-3.0633,-3.0419,-3.0419,-3.0005,-2.9792,-2.9792,-2.9792,-2.9792,-2.9792,-2.9792,-2.9792,-2.9792,-2.9792,-2.9792,-2.9792,-2.9792,-2.9716,-2.9603,-2.9741,-2.9704,-2.9515,-2.895,-2.8386,-2.7846,0.0,0.0,0.0,0.0,0.0,0.0,0.0,0.0,0.0,0.0,0.0,0.0,0.0,0.0,0.0,0.0,0.0,0.0,0.0,0.0,-1.3198,-1.3198,-1.3198,-1.3483,-1.4091,-1.4103,-1.4626,-1.5693,-1.5611,-1.5568,-1.561,-1.5565,-1.5565,-1.561,-1.6151,-1.6423,-1.65,-1.6445,-1.6445,-1.6445,-1.6466,0.0,0.0,0.0,0.0,0.0,0.0,0.0,0.0,0.0,0.0,0.0,0.0,0.0,-1.65,-1.65,-1.65,-1.65,-1.65,-1.65,-1.6638,-1.726,-1.6974,0.0,-1.9208,-2.0126,0.0,-2.2431,0.0,0.0,0.0,0.0,0.0,0.0,0.0,0.0,0.0,0.0,0.0,0.0,0.0,0.0,0.0,0.0,0.0,0.0,0.0,0.0,0.0,0.0,0.0,-2.9917,-2.9867,-2.9854,-2.9854,-2.9817,-2.9792,-2.9792,-2.9792,-2.9792,-2.9792,-2.9792,-2.9792,-2.9792,-2.9792,-2.9792,-2.9792,-2.9792,-2.9478,-2.9001,-2.9578,-2.9465,-2.8888,-2.8373,-2.7821,-2.7344,0.0,0.0,0.0,0.0,0.0,0.0,0.0,0.0,0.0,0.0,0.0,0.0,0.0,0.0,0.0,0.0,0.0,0.0,0.0,0.0,-1.3198,-1.3198,-1.3198,-1.3483,-1.4091,-1.4103,-1.4626,-1.5693,-1.6032,-1.5985,-1.561,-1.5974,-1.6173,-1.6173,-1.6402,-1.65,-1.65,-1.65,-1.65,-1.65,-1.65,-1.65,0.0,0.0,0.0,0.0,0.0,0.0,0.0,0.0,-1.65,-1.65,-1.65,-1.65,-1.65,-1.65,-1.65,-1.65,-1.65,-1.65,-1.6638,-1.726,-1.7234,0.0,0.0,-2.0805,-2.1455,-2.2393,-2.3891,0.0,0.0,0.0,0.0,0.0,0.0,0.0,0.0,0.0,0.0,0.0,0.0,0.0,0.0,0.0,0.0,0.0,0.0,0.0,0.0,0.0,-2.9792,-2.9792,-2.9792,-2.9616,-2.9252,-2.9616,-2.9616,-2.9252,-2.9616,-2.9792,-2.9792,-2.9792,-2.9792,-2.9779,-2.9415,-2.9252,-2.9189,-2.8888,-2.8612,-2.8436,-2.8662,-2.8398,-2.7883,-2.767,-2.7278,-2.6801,0.0,0.0,0.0,0.0,0.0,0.0,0.0,0.0,0.0,0.0,0.0,0.0,0.0,0.0,0.0,0.0,0.0,0.0,-1.2363,-1.2897,-1.3198,-1.3198,-1.3198,-1.3391,-1.3803,-1.3815,-1.4343,-1.5449,-1.5982,-1.612,-1.5886,-1.6315,-1.65,-1.65,-1.65,-1.65,-1.65,-1.65,-1.65,-1.65,-1.65,-1.65,0.0,0.0,0.0,0.0,0.0,0.0,0.0,0.0,-1.65,-1.65,-1.65,-1.65,-1.65,-1.65,-1.65,-1.65,-1.65,-1.65,-1.6588,0.0,0.0,0.0,-2.0453,-2.1659,-2.2585,-2.3665,0.0,0.0,0.0,0.0,0.0,0.0,0.0,0.0,0.0,0.0,0.0,0.0,0.0,0.0,0.0,0.0,0.0,0.0,0.0,0.0,0.0,-2.9691,-2.9704,-2.9528,-2.9515,-2.9252,-2.8637,-2.9063,-2.9063,-2.8637,-2.9076,-2.9352,-2.9515,-2.934,-2.9264,-2.9239,-2.8837,-2.8662,-2.8599,-2.826,-2.8109,-2.8072,-2.772,-2.7457,-2.7291,-2.7115,-2.6813,-2.6499,0.0,0.0,0.0,0.0,0.0,0.0,0.0,0.0,0.0,0.0,0.0,0.0,0.0,0.0,0.0,0.0,0.0,0.0,-1.2363,-1.2897,-1.3198,-1.3198,-1.3198,-1.3198,-1.3198,-1.321,-1.3754,-1.4896,-1.5449,-1.5982,-1.65,-1.65,-1.65,-1.65,-1.65,-1.65,-1.65,-1.65,-1.65,-1.65,-1.65,-1.65,-1.65,0.0,0.0,0.0,0.0,0.0,0.0,0.0,-1.65,-1.65,-1.65,-1.65,-1.65,-1.65,-1.65,-1.65,-1.65,-1.65,0.0,0.0,0.0,0.0,-2.0991,-2.2786,-2.4607,-2.6829,0.0,0.0,0.0,0.0,0.0,0.0,0.0,0.0,0.0,0.0,0.0,0.0,0.0,0.0,0.0,0.0,0.0,0.0,0.0,0.0,0.0,-2.9465,-2.9515,-2.89,-2.8888,-2.8612,-2.8109,-2.8109,-2.8109,-2.8097,-2.8097,-2.8386,-2.8863,-2.8348,-2.8109,-2.8109,-2.8097,-2.8097,-2.8097,-2.8097,-2.8084,-2.7984,-2.6914,-2.6826,-2.7241,-2.67,-2.6499,-2.6499,0.0,0.0,0.0,0.0,0.0,0.0,0.0,0.0,0.0,0.0,0.0,0.0,0.0,0.0,0.0,0.0,0.0,0.0,-1.2939,-1.311,-1.3198,-1.3198,-1.3198,-1.3198,-1.3198,-1.3609,-1.418,-1.4896,-1.5819,-1.6337,-1.65,-1.65,-1.65,-1.65,-1.65,-1.65,-1.65,-1.65,-1.65,-1.65,-1.65,-1.65,-1.65,0.0,0.0,0.0,0.0,0.0,0.0,0.0,0.0,0.0,-1.65,-1.65,-1.65,-1.65,-1.65,-1.65,-1.65,0.0,0.0,0.0,0.0,0.0,0.0,-2.2184,0.0,0.0,0.0,0.0,0.0,0.0,0.0,0.0,0.0,0.0,0.0,0.0,0.0,0.0,0.0,0.0,0.0,0.0,0.0,0.0,0.0,0.0,0.0,-2.8511,-2.8524,-2.8348,-2.8348,-2.8084,-2.7532,-2.7908,-2.7908,-2.7532,-2.7532,-2.7821,-2.8348,-2.8185,-2.8109,-2.8084,-2.7695,-2.7532,-2.7494,-2.714,-2.6977,-2.6952,-2.6625,-2.66,-2.6713,-2.6549,-2.6499,-2.6436,0.0,0.0,0.0,0.0,0.0,0.0,0.0,0.0,0.0,0.0,0.0,0.0,0.0,0.0,0.0,0.0,0.0,0.0,0.0,-1.3198,-1.3198,-1.3198,-1.3198,-1.3315,-1.3546,-1.4123,-1.4689,-1.5223,-1.5869,-1.6287,-1.65,-1.65,-1.65,-1.65,-1.65,-1.65,-1.65,-1.65,-1.65,-1.65,-1.65,-1.65,-1.65,0.0,0.0,0.0,0.0,0.0,0.0,0.0,0.0,0.0,-1.65,-1.65,-1.65,-1.65,-1.65,-1.65,-1.65,0.0,0.0,0.0,0.0,0.0,0.0,0.0,0.0,0.0,0.0,0.0,0.0,0.0,0.0,0.0,0.0,0.0,0.0,0.0,0.0,0.0,0.0,0.0,0.0,0.0,0.0,0.0,0.0,0.0,0.0,-2.7984,-2.8009,-2.7783,-2.777,-2.7507,-2.7002,-2.7055,-2.7055,-2.6989,-2.6515,-2.659,-2.7118,-2.7344,-2.7331,-2.7092,-2.6753,-2.6615,-2.6603,-2.6537,-2.6361,-2.6172,-2.6411,-2.6348,-2.6185,-2.6411,-2.6348,-2.6097,0.0,0.0,0.0,0.0,0.0,0.0,0.0,0.0,0.0,0.0,0.0,0.0,0.0,0.0,0.0,0.0,0.0,0.0,0.0,0.0,-1.3198,-1.3198,-1.3198,-1.3483,-1.4091,-1.4626,-1.516,-1.5693,-1.5743,-1.6019,-1.65,-1.65,-1.65,-1.65,-1.65,-1.65,-1.65,-1.65,-1.65,-1.65,-1.65,-1.65,-1.65,-1.65,0.0,0.0,0.0,0.0,0.0,0.0,0.0,0.0,-1.65,-1.65,-1.65,-1.65,-1.65,-1.65,0.0,0.0,0.0,0.0,0.0,0.0,0.0,0.0,0.0,0.0,0.0,0.0,0.0,0.0,0.0,0.0,0.0,0.0,0.0,0.0,0.0,0.0,0.0,0.0,0.0,0.0,0.0,0.0,0.0,0.0,0.0,-2.7532,-2.7582,-2.708,-2.7055,-2.6851,-2.6348,-2.5787,-2.5787,-2.6336,-2.5297,-2.5071,-2.5548,-2.6109,-2.6059,-2.5523,-2.5523,-2.5523,-2.5573,-2.6135,-2.6034,-2.5573,-2.6135,-2.6021,-2.5586,-2.6147,-2.6009,-2.5523,0.0,0.0,0.0,0.0,0.0,0.0,0.0,0.0,0.0,0.0,0.0,0.0,0.0,0.0,0.0,0.0,0.0,0.0,0.0,0.0,-1.3198,-1.3198,-1.3198,-1.3483,-1.4091,-1.4626,-1.516,-1.5693,-1.6132,-1.6387,-1.65,-1.65,-1.65,-1.65,-1.65,-1.65,-1.65,-1.65,-1.65,-1.65,-1.65,-1.65,-1.65,-1.65,-1.65,0.0,0.0,0.0,0.0,0.0,0.0,0.0,-1.65,-1.65,-1.65,-1.65,-1.65,-1.65,0.0,0.0,0.0,0.0,0.0,0.0,0.0,0.0,0.0,0.0,0.0,0.0,0.0,0.0,0.0,0.0,0.0,0.0,0.0,0.0,0.0,0.0,0.0,0.0,0.0,0.0,0.0,0.0,0.0,0.0,-2.5385,-2.546,-2.5473,-2.536,-2.5347,-2.5297,-2.5172,-2.5059,-2.5059,0.0,-2.4933,-2.485,-2.4996,-2.5121,-2.5109,-2.4983,-2.4983,-2.4983,-2.4996,-2.5121,-2.5096,-2.4963,-2.5121,-2.5096,-2.5008,-2.5134,-2.5096,-2.4888,0.0,0.0,0.0,0.0,0.0,0.0,0.0,0.0,0.0,0.0,0.0,0.0,0.0,0.0,0.0,0.0,0.0,0.0,0.0,0.0,-1.3198,-1.3198,-1.3198,-1.3591,-1.4462,-1.4765,-1.5299,-1.6082,-1.635,-1.65,-1.65,-1.65,-1.65,-1.65,-1.65,-1.65,-1.65,-1.65,-1.65,-1.65,-1.65,-1.65,-1.65,-1.65,-1.65,-1.65,-1.65,0.0,0.0,0.0,0.0,0.0,0.0,0.0,-1.65,-1.65,-1.65,-1.65,0.0,0.0,0.0,0.0,0.0,0.0,0.0,0.0,0.0,0.0,0.0,0.0,0.0,0.0,0.0,0.0,0.0,0.0,0.0,0.0,0.0,0.0,0.0,0.0,0.0,0.0,0.0,0.0,0.0,-2.5109,-2.48,-2.4788,-2.4788,-2.4788,-2.4788,-2.4788,-2.4788,-2.4556,-2.4556,-2.4775,-2.4249,-2.3985,-2.3998,-2.4305,-2.4431,-2.4431,-2.4431,-2.4431,-2.4456,-2.4675,-2.4637,-2.4456,-2.4687,-2.4625,-2.4456,-2.472,-2.4625,-2.4393,0.0,0.0,0.0,0.0,0.0,0.0,0.0,0.0,0.0,0.0,0.0,0.0,0.0,0.0,0.0,0.0,0.0,0.0,0.0,0.0,0.0,-1.3198,-1.3303,-1.3848,-1.489,-1.4984,-1.5525,-1.65,-1.65,-1.65,0.0,-1.65,-1.65,-1.65,-1.65,-1.65,-1.65,-1.65,-1.65,-1.65,-1.65,-1.65,-1.65,-1.65,-1.65,-1.65,-1.65,-1.65,-1.65,-1.65,0.0,0.0,0.0,0.0,-1.65,-1.65,-1.65,-1.65,0.0,0.0,0.0,0.0,0.0,0.0,0.0,0.0,0.0,0.0,0.0,0.0,0.0,0.0,0.0,0.0,0.0,0.0,0.0,0.0,0.0,0.0,0.0,0.0,0.0,0.0,0.0,0.0,0.0,-2.4462,-2.4362,-2.4362,-2.4311,-2.4211,-2.4211,-2.4261,-2.4362,-2.3941,-2.3941,-2.4349,-2.3308,-2.2819,-2.2832,-2.3351,-2.3665,-2.3853,-2.3853,-2.3853,-2.3891,-2.4311,-2.4268,-2.3891,-2.4324,-2.4255,-2.3904,-2.4324,-2.4243,-2.3853,0.0,0.0,0.0,0.0,0.0,0.0,0.0,0.0,0.0,0.0,0.0,0.0,0.0,0.0,0.0,0.0,0.0,0.0,-1.3198,0.0,0.0,-1.3198,-1.3702,-1.4274,-1.489,-1.5361,-1.5894,-1.65,-1.65,0.0,0.0,0.0,0.0,-1.65,-1.65,-1.65,-1.65,-1.65,-1.65,-1.65,-1.65,-1.65,-1.65,-1.65,-1.65,-1.65,-1.65,-1.65,-1.65,-1.65,-1.65,0.0,0.0,0.0,-1.65,-1.65,-1.65,-1.65,0.0,0.0,0.0,0.0,0.0,0.0,0.0,0.0,0.0,0.0,0.0,0.0,0.0,0.0,0.0,0.0,0.0,0.0,0.0,0.0,0.0,0.0,0.0,0.0,0.0,0.0,0.0,0.0,-2.3333,-2.312,-2.2673,-2.2619,-2.2422,-2.1945,-2.1933,-2.2159,-2.2636,-2.2573,-2.2573,-2.2636,-2.2008,-2.1707,-2.1707,-2.1794,-2.2347,-2.3221,-2.3221,-2.3221,-2.3233,-2.3296,-2.3283,-2.3233,-2.3296,-2.3283,-2.3233,-2.3296,-2.3283,-2.3221,0.0,0.0,0.0,0.0,0.0,0.0,0.0,0.0,0.0,0.0,0.0,0.0,0.0,0.0,0.0,-1.3885,-1.3476,-1.3198,-1.3198,-1.3198,-1.3353,-1.369,-1.3959,-1.4488,-1.5336,-1.5567,-1.5969,-1.65,0.0,0.0,0.0,-1.65,-1.65,0.0,0.0,0.0,-1.65,0.0,-1.65,-1.65,-1.65,-1.65,-1.65,-1.65,-1.65,-1.65,-1.65,-1.65,-1.65,-1.65,-1.65,-1.65,-1.65,0.0,0.0,0.0,0.0,0.0,0.0,0.0,0.0,0.0,0.0,0.0,0.0,0.0,0.0,0.0,0.0,0.0,0.0,0.0,0.0,0.0,0.0,0.0,0.0,0.0,0.0,0.0,0.0,0.0,0.0,0.0,0.0,0.0,-2.2209,-2.2108,-2.187,-2.1845,-2.1732,-2.1493,-2.1493,-2.1606,-2.1845,-2.1845,-2.1845,-2.1845,-2.1606,-2.1493,-2.1493,-2.1493,-2.1757,-2.2209,-2.2209,-2.2209,-2.2234,-2.2518,-2.2644,-2.2681,-2.2982,-2.3108,-2.3108,-2.3108,-2.3108,-2.3108,0.0,0.0,0.0,0.0,0.0,0.0,0.0,0.0,0.0,0.0,0.0,0.0,0.0,0.0,0.0,0.0,-1.3698,-1.3323,-1.3215,-1.3341,-1.3622,-1.4091,-1.4362,-1.4871,-1.568,-1.5831,-1.6107,-1.65,0.0,0.0,-1.65,-1.65,-1.65,0.0,-1.65,-1.65,0.0,0.0,0.0,-1.65,-1.65,-1.65,-1.65,-1.65,-1.6588,-1.6735,-1.6735,-1.6823,-1.6901,-1.6763,-1.6735,-1.671,-1.6538,-1.65,0.0,0.0,0.0,0.0,0.0,0.0,0.0,0.0,0.0,0.0,0.0,0.0,0.0,0.0,0.0,0.0,0.0,0.0,0.0,0.0,0.0,0.0,0.0,0.0,0.0,0.0,0.0,0.0,0.0,0.0,0.0,0.0,-2.1355,-2.1307,-2.1307,-2.1307,-2.1245,-2.1066,-2.1054,-2.1129,-2.1307,-2.1307,-2.1307,-2.1307,-2.1129,-2.1054,-2.1054,-2.1054,-2.1054,-2.1079,-2.1506,-2.1619,-2.1543,-2.2234,-2.2406,-2.2343,-2.2895,-2.3108,-2.3108,-2.3108,-2.3108,-2.3108,0.0,0.0,0.0,0.0,0.0,0.0,0.0,0.0,0.0,0.0,0.0,0.0,-1.5711,-1.4997,-1.4627,-1.5013,-1.4326,-1.3682,-1.3232,-1.374,-1.4078,-1.4103,-1.5072,0.0,-1.5693,-1.6208,-1.6475,0.0,0.0,0.0,-1.65,-1.65,-1.65,-1.65,-1.65,-1.65,-1.65,0.0,0.0,0.0,-1.65,-1.65,-1.65,0.0,0.0,0.0,0.0,0.0,-1.8041,-1.7513,-1.736,-1.7237,0.0,0.0,0.0,0.0,0.0,0.0,0.0,0.0,0.0,0.0,0.0,0.0,0.0,0.0,0.0,0.0,0.0,0.0,0.0,0.0,0.0,0.0,0.0,0.0,0.0,0.0,0.0,0.0,0.0,0.0,0.0,0.0,0.0,0.0,-2.1031,-2.0729,-2.0729,-2.0729,-2.0478,-1.9911,-1.9886,-2.015,-2.0729,-2.0729,-2.0729,-2.0729,-2.015,-1.9886,-1.9886,-1.9886,-1.9886,-1.9974,-2.1581,-2.197,-2.1568,-2.2619,-2.2757,-2.2343,-2.2895,-2.3108,-2.3108,-2.3108,-2.3108,-2.3108,0.0,0.0,0.0,0.0,0.0,0.0,0.0,0.0,0.0,0.0,0.0,0.0,0.0,-1.6099,-1.6116,-1.6016,-1.5746,-1.5351,-1.4833,-1.5323,-1.5639,-1.5632,-1.6346,-1.6725,-1.6723,-1.6931,-1.7013,0.0,0.0,-1.668,-1.7013,-1.6659,-1.65,-1.65,-1.65,-1.65,-1.65,-1.65,0.0,0.0,0.0,0.0,0.0,0.0,0.0,0.0,0.0,0.0,0.0,0.0,0.0,0.0,0.0,0.0,0.0,0.0,0.0,0.0,0.0,0.0,0.0,0.0,0.0,0.0,0.0,0.0,0.0,0.0,0.0,0.0,0.0,0.0,0.0,0.0,0.0,0.0,0.0,0.0,0.0,0.0,0.0,0.0,0.0,0.0,0.0,0.0,0.0,-2.0112,-2.0112,-2.0112,-2.0012,-1.9811,-1.9798,-1.9899,-2.0112,-2.0112,-2.0112,-2.0112,-1.9899,-1.9798,-1.9798,-1.9798,-1.9798,-1.9861,-2.0828,-2.1169,-2.1069,-2.2146,-2.2456,-2.2343,-2.2895,-2.3108,-2.3108,-2.3108,-2.3108,-2.3108,0.0,0.0,0.0,0.0,0.0,0.0,0.0,0.0,0.0,0.0,0.0,0.0,0.0,0.0,-1.7139,-1.6749,-1.6697,-1.6491,-1.5992,-1.6472,-1.6762,-1.6777,-1.7287,-1.7575,-1.7572,-1.7565,-1.7483,0.0,0.0,0.0,0.0,-1.6858,-1.6774,-1.6752,-1.6573,-1.65,0.0,0.0,0.0,-1.681,0.0,0.0,-1.7664,0.0,0.0,0.0,0.0,0.0,0.0,0.0,0.0,0.0,0.0,0.0,0.0,0.0,0.0,0.0,0.0,0.0,0.0,0.0,0.0,0.0,0.0,0.0,0.0,0.0,0.0,0.0,0.0,0.0,0.0,0.0,0.0,0.0,0.0,0.0,0.0,0.0,0.0,0.0,0.0,0.0,0.0,0.0,0.0,0.0,-1.9798,-1.9798,-1.9798,-1.9798,-1.9798,-1.9798,-1.9798,-1.9798,-1.9798,-1.9798,-1.9798,-1.9798,-1.9798,-1.9798,-1.9798,-1.9836,-2.044,-2.0578,-2.049,-2.1581,-2.2033,-2.2083,-2.2606,-2.2945,-2.3108,-2.3108,-2.2995,-2.2832,0.0,0.0,0.0,0.0,0.0,0.0,0.0,0.0,0.0,-1.6726,0.0,0.0,0.0,0.0,0.0,-1.7214,-1.718,-1.6996,-1.66,-1.7069,-1.7353,-1.7348,-1.7866,-1.8145,-1.8125,-1.8125,-1.7867,0.0,0.0,0.0,0.0,0.0,-1.7333,-1.7271,-1.6752,-1.6522,-1.65,0.0,-1.6861,-1.741,0.0,-1.7714,-1.8229,0.0,0.0,0.0,-1.902,-1.9346,0.0,0.0,0.0,0.0,0.0,0.0,0.0,0.0,0.0,0.0,0.0,0.0,0.0,0.0,0.0,0.0,0.0,0.0,0.0,0.0,0.0,0.0,0.0,0.0,0.0,0.0,0.0,0.0,0.0,0.0,0.0,0.0,0.0,0.0,0.0,0.0,0.0,0.0,-1.9798,-1.9798,-1.9798,-1.9798,-1.9798,-1.9798,-1.9798,-1.9798,-1.9798,-1.9798,-1.9798,-1.9798,-1.9798,-1.9798,-1.9798,-1.9798,-1.9798,-1.9836,-2.0427,-2.0352,-1.9886,-2.1029,-2.1493,-2.1543,-2.2083,-2.2594,-2.3083,-2.3083,-2.2744,-2.2309,0.0,0.0,0.0,0.0,0.0,0.0,0.0,0.0,0.0,0.0,0.0,0.0,-1.8416,-1.8852,-1.9101,-1.898,-1.898,-1.8785,-1.8282,-1.875,-1.887,-1.8469,-1.8975,-1.908,-1.8688,-1.8669,-1.8612,0.0,0.0,0.0,0.0,0.0,0.0,0.0,-1.7126,-1.6858,-1.65,-1.65,0.0,0.0,-1.741,-1.7953,0.0,0.0,0.0,0.0,0.0,-1.9673,-1.9773,0.0,-1.9585,-1.9497,0.0,0.0,0.0,0.0,0.0,0.0,-1.6613,0.0,0.0,0.0,0.0,0.0,0.0,0.0,0.0,0.0,0.0,0.0,0.0,0.0,0.0,0.0,0.0,0.0,0.0,0.0,0.0,0.0,0.0,0.0,0.0,0.0,0.0,0.0,-1.9798,-1.9798,-1.9798,-1.9798,-1.9798,-1.9798,-1.9798,-1.9798,-1.9798,-1.9798,-1.9798,-1.9798,-1.9798,-1.9798,-1.9798,-1.9798,-1.9798,-1.9811,-1.9974,-1.9949,-1.9886,-2.1029,-2.1493,-2.1506,-2.1656,-2.2058,-2.2506,-2.2506,-2.2447,-2.2309,0.0,0.0,0.0,0.0,0.0,0.0,0.0,0.0,0.0,0.0,0.0,0.0,-1.9106,-1.9468,-1.9708,-1.9708,-1.9708,-1.9566,-1.9244,-1.953,-1.9566,-1.9244,-1.953,-1.9548,-1.9244,-1.9225,-1.9132,0.0,0.0,0.0,0.0,-1.8477,0.0,0.0,0.0,0.0,0.0,0.0,0.0,0.0,-1.7976,0.0,0.0,-1.9321,-1.9535,0.0,0.0,0.0,-1.9798,-1.9798,-1.9798,0.0,0.0,0.0,0.0,0.0,0.0,0.0,0.0,0.0,0.0,0.0,0.0,0.0,-1.65,-1.6974,0.0,0.0,0.0,0.0,0.0,0.0,0.0,0.0,0.0,0.0,0.0,0.0,0.0,0.0,0.0,0.0,0.0,0.0,0.0,-1.9459,-1.9472,-1.9572,-1.9798,-1.9798,-1.9798,-1.9798,-1.9798,-1.9798,-1.9798,-1.9798,-1.9798,-1.9798,-1.9798,-1.9798,-1.9798,-1.9798,-1.9798,-1.9798,-1.9798,-1.9798,-1.9849,-2.0514,-2.0928,-2.1169,-2.1169,-2.1619,-2.2255,-2.2058,-2.197,-2.1933,0.0,0.0,0.0,0.0,0.0,0.0,0.0,0.0,0.0,0.0,-1.9333,-1.9708,-1.9708,-1.9708,-1.9708,-1.9708,-1.9708,-1.9708,-1.9708,-1.9708,-1.9708,-1.9708,-1.9708,-1.9708,-1.9708,-1.9708,-1.946,0.0,0.0,0.0,0.0,0.0,-1.8968,0.0,0.0,0.0,0.0,0.0,0.0,-1.8339,-1.8807,-1.9379,0.0,0.0,-1.985,0.0,-1.9824,-1.9798,-1.9798,-1.9798,-1.9798,0.0,0.0,0.0,0.0,0.0,-1.7953,0.0,0.0,0.0,0.0,0.0,0.0,0.0,-1.6588,-1.7011,-1.7385,0.0,0.0,0.0,0.0,0.0,0.0,0.0,0.0,0.0,0.0,0.0,0.0,0.0,0.0,0.0,0.0,-1.8204,-1.8405,-1.887,-1.8907,-1.9146,-1.9685,-1.971,-1.9748,-1.9798,-1.9798,-1.9798,-1.9798,-1.9798,-1.9798,-1.9798,-1.9798,-1.9798,-1.9798,-1.9798,-1.9798,-1.9798,-1.9798,-1.9798,-1.9798,-1.9798,-2.0138,-2.0591,-2.0591,-2.1232,-2.2071,-2.1581,-2.1393,-2.1358,-1.6556,0.0,0.0,0.0,0.0,0.0,0.0,0.0,0.0,-1.9513,-1.9633,-1.9708,-1.9708,-1.9708,-1.9708,-1.9708,-1.9708,-1.9708,-1.9708,-1.9708,-1.9708,-1.9708,-1.9708,-1.9708,-1.9708,-1.9708,-1.9639,-1.9548,0.0,0.0,0.0,0.0,0.0,0.0,0.0,0.0,0.0,0.0,0.0,-1.8845,-1.8955,0.0,-2.056,-2.0003,-2.0131,-2.0522,-2.0003,-1.9798,-1.9798,0.0,-1.9798,-1.9786,0.0,0.0,0.0,0.0,0.0,0.0,0.0,0.0,0.0,0.0,0.0,0.0,-1.7212,-1.7322,-1.725,0.0,0.0,0.0,0.0,0.0,0.0,0.0,0.0,0.0,0.0,0.0,0.0,0.0,0.0,0.0,0.0,-1.8204,-1.8242,-1.8355,-1.8367,-1.8581,-1.9121,-1.9158,-1.9346,-1.9786,-1.9798,-1.9798,-1.9798,-1.9798,-1.9798,-1.9798,-1.9798,-1.9798,-1.9798,-1.9798,-1.9798,-1.9798,-1.9798,-1.9798,-1.9798,-1.9798,-1.9874,-1.9974,-1.9974,-2.0415,-2.0993,-2.0893,-2.0855,-2.0842,-1.7076,0.0,0.0,0.0,0.0,0.0,0.0,0.0,0.0,-1.9708,-1.9708,-1.9708,-1.9708,-1.9708,-1.9708,-1.9708,-1.9708,-1.9708,-1.9708,-1.9708,-1.9708,-1.9708,-1.9708,-1.9708,-1.9708,-1.9708,-1.9854,-2.0198,0.0,0.0,0.0,0.0,0.0,0.0,0.0,0.0,0.0,0.0,-2.0376,-2.0348,-2.0348,0.0,-2.0295,-2.0295,-2.0295,-2.0258,-1.9927,-1.9798,-1.9798,-1.9798,-1.9798,0.0,0.0,-1.9798,-1.9748,0.0,-1.9208,-1.8945,0.0,0.0,0.0,-1.8141,0.0,0.0,0.0,-1.7162,-1.6873,0.0,0.0,0.0,0.0,0.0,0.0,0.0,0.0,0.0,0.0,0.0,0.0,0.0,0.0,0.0,0.0,-1.734,-1.7488,-1.7777,-1.8053,-1.8329,-1.8581,-1.8594,-1.8832,-1.9371,-1.9384,-1.9547,-1.9798,-1.9798,-1.9798,-1.9798,-1.9798,-1.9798,-1.9798,-1.9798,-1.9798,-1.9798,-1.9798,-1.9798,-1.9798,-1.9798,-1.9798,-1.9798,-1.9798,-2.0189,-2.0654,-2.0365,-2.044,-2.0707,-1.7616,0.0,0.0,0.0,0.0,0.0,0.0,0.0,0.0,-1.9708,-1.9813,-1.9902,-1.9902,0.0,0.0,0.0,-2.0097,-2.0097,0.0,0.0,0.0,-2.0097,-2.0097,-2.0097,-2.0097,-2.0097,-2.0348,-2.0882,0.0,0.0,0.0,0.0,0.0,0.0,0.0,0.0,0.0,0.0,0.0,-2.1733,0.0,-2.1296,-2.0207,-2.0497,-2.0346,-1.9978,-1.985,-1.9875,-1.9978,-1.985,0.0,-1.9978,-1.985,-1.9798,0.0,0.0,0.0,0.0,0.0,0.0,0.0,0.0,0.0,-1.7702,0.0,0.0,0.0,0.0,0.0,0.0,0.0,0.0,0.0,0.0,0.0,0.0,0.0,0.0,0.0,0.0,0.0,0.0,0.0,-1.65,-1.671,-1.7187,-1.7626,-1.7928,-1.8041,-1.8053,-1.8342,-1.8983,-1.9008,-1.9259,-1.9798,-1.9798,-1.9798,-1.9798,-1.9798,-1.9798,-1.9798,-1.9798,-1.9798,-1.9798,-1.9798,-1.9798,-1.9798,-1.9798,-1.9798,-1.9798,-1.9798,-2.0087,-2.0465,-2.0129,-2.0295,-2.0717,-1.8708,-1.8965,0.0,0.0,0.0,0.0,0.0,0.0,0.0,0.0,-2.0228,0.0,0.0,0.0,0.0,0.0,0.0,0.0,-2.147,0.0,0.0,-2.147,-2.147,-2.147,-2.147,-2.147,-2.15,-2.159,0.0,0.0,0.0,0.0,0.0,0.0,-2.0909,0.0,0.0,0.0,-2.1802,0.0,-2.2922,-2.2616,0.0,-2.0295,-2.0232,-2.0597,-2.0003,-2.0182,-2.0597,0.0,-2.0194,-2.0572,0.0,-1.9798,-1.9798,0.0,0.0,0.0,0.0,0.0,0.0,0.0,-1.9233,0.0,0.0,0.0,0.0,0.0,0.0,0.0,0.0,0.0,0.0,0.0,0.0,0.0,0.0,0.0,0.0,0.0,0.0,0.0,0.0,0.0,-1.6525,-1.6588,-1.6651,-1.6936,-1.7473,-1.7498,-1.7953,-1.897,-1.9008,-1.9259,-1.9798,-1.9798,-1.9798,-1.9798,-1.9798,-1.9798,-1.9798,-1.9798,-1.9798,-1.9798,-1.9798,-1.9798,-1.9798,-1.9798,-1.9798,-1.9798,-1.9798,-1.9849,-1.9964,-2.0498,-2.0724,-2.0801,-1.9264,-1.9184,0.0,0.0,0.0,0.0,0.0,0.0,0.0,0.0,0.0,0.0,0.0,0.0,0.0,0.0,0.0,-2.1695,0.0,0.0,0.0,0.0,0.0,0.0,0.0,-2.1695,-2.1874,-2.2283,-2.1874,0.0,0.0,0.0,0.0,0.0,-2.2295,0.0,-2.2811,0.0,0.0,0.0,0.0,0.0,0.0,-2.1677,-2.1428,-2.1293,-2.0988,-2.0868,-2.0746,0.0,-2.0295,0.0,0.0,0.0,0.0,0.0,0.0,0.0,0.0,0.0,0.0,0.0,0.0,0.0,-1.9008,0.0,-1.8138,0.0,0.0,0.0,0.0,0.0,0.0,0.0,0.0,0.0,0.0,0.0,0.0,0.0,0.0,0.0,0.0,0.0,0.0,0.0,-1.65,-1.66,-1.6861,-1.6886,-1.725,-1.8053,-1.8356,-1.8782,-1.9321,-1.9648,-1.9798,-1.9798,-1.9798,-1.9798,-1.9798,-1.9798,-1.9798,-1.9798,-1.9798,-1.9798,-1.9798,-1.9798,-1.9798,-1.9798,-1.9798,-1.9798,-1.9824,-2.0131,-2.022,-2.0283,-1.9578,0.0,0.0,0.0,0.0,0.0,0.0,0.0,0.0,0.0,0.0,0.0,-2.1919,-2.2293,0.0,0.0,-2.2398,-2.2428,0.0,0.0,-2.2218,0.0,0.0,0.0,0.0,0.0,-2.2458,-2.2957,0.0,0.0,0.0,0.0,0.0,0.0,0.0,-2.3595,-2.3595,0.0,0.0,-2.3551,-2.312,-2.2957,-2.292,-2.2566,-2.2123,-2.1697,-2.1697,-2.1534,-2.1296,-2.1102,-2.0856,0.0,-2.0942,0.0,0.0,0.0,0.0,0.0,-2.0245,0.0,0.0,0.0,0.0,0.0,0.0,0.0,0.0,0.0,0.0,0.0,0.0,0.0,0.0,0.0,0.0,0.0,0.0,0.0,0.0,0.0,0.0,0.0,0.0,0.0,0.0,-1.65,-1.65,-1.65,-1.65,-1.65,-1.6785,-1.7385,-1.7915,-1.8468,-1.8995,-1.9547,-1.9798,-1.9798,-1.9798,-1.9798,-1.9798,-1.9798,-1.9798,-1.9798,-1.9798,-1.9798,-1.9798,-1.9798,-1.9798,-1.9798,-1.9798,-1.9798,-1.9824,-2.0003,-2.0067,-2.0169,-1.977,-2.0004,0.0,0.0,0.0,0.0,0.0,0.0,0.0,0.0,0.0,0.0,0.0,0.0,0.0,0.0,0.0,-2.4231,-2.358,0.0,-2.3535,0.0,0.0,-2.3535,0.0,0.0,0.0,0.0,0.0,0.0,0.0,0.0,0.0,0.0,0.0,-2.3595,-2.3595,-2.3595,-2.3595,-2.3595,-2.3573,-2.3573,-2.3443,0.0,-2.172,-2.1697,-2.1697,0.0,0.0,-2.1875,-2.2077,0.0,0.0,0.0,0.0,0.0,0.0,0.0,0.0,0.0,0.0,-1.9952,0.0,0.0,0.0,0.0,-1.9609,0.0,0.0,0.0,0.0,0.0,0.0,0.0,0.0,0.0,0.0,0.0,0.0,0.0,0.0,0.0,0.0,0.0,0.0,-1.65,-1.65,-1.65,-1.65,-1.65,-1.6785,-1.7385,-1.7915,-1.8468,-1.8995,-1.9547,-1.9798,-1.9798,-1.9798,-1.9798,-1.9798,-1.9798,-1.9798,-1.9798,-1.9798,-1.9798,-1.9798,-1.9798,-1.9798,-1.9798,-1.9798,-1.9798,-1.9875,-2.0522,-2.0771,-2.0832,0.0,0.0,0.0,0.0,0.0,0.0,0.0,-2.0539,0.0,0.0,0.0,0.0,0.0,-2.5016,-2.4978,0.0,0.0,-2.4807,-2.367,-2.4029,0.0,0.0,0.0,-2.3595,0.0,0.0,0.0,0.0,0.0,0.0,0.0,0.0,0.0,0.0,0.0,-2.3595,0.0,0.0,0.0,0.0,0.0,-2.3595,-2.3551,0.0,0.0,-2.2958,-2.2958,-2.2838,0.0,-2.2452,-2.2216,-2.2077,-2.23,-2.2369,-2.2369,-2.2369,-2.2369,0.0,0.0,0.0,-2.1342,-2.111,0.0,0.0,0.0,0.0,0.0,0.0,0.0,0.0,0.0,0.0,0.0,0.0,0.0,0.0,0.0,0.0,0.0,0.0,0.0,0.0,0.0,0.0,0.0,-1.65,-1.65,-1.65,-1.65,-1.65,-1.6588,-1.681,-1.7363,-1.7928,-1.848,-1.8995,-1.9459,-1.9798,-1.9798,-1.9798,-1.9798,-1.9798,-1.9798,-1.9798,-1.9798,-1.9798,-1.9798,-1.9798,-1.9798,-1.9798,-1.9798,-2.008,-2.0497,-2.0734,-2.0795,-2.0944,-2.0052,0.0,0.0,0.0,0.0,0.0,0.0,0.0,0.0,0.0,-2.4014,0.0,-2.551,0.0,-2.56,0.0,-2.5435,-2.5285,-2.3699,-2.4216,0.0,-2.3625,-2.3595,0.0,0.0,0.0,0.0,0.0,0.0,-2.3595,0.0,0.0,0.0,0.0,0.0,0.0,0.0,0.0,-2.3595,0.0,0.0,-2.3595,0.0,0.0,-2.3595,-2.3595,0.0,-2.3355,-2.3009,-2.3009,-2.2733,-2.2446,-2.2883,-2.3009,-2.3009,-2.3009,-2.3009,-2.2875,-2.2239,-2.2053,0.0,-2.1758,-2.1697,0.0,-2.121,0.0,0.0,0.0,0.0,0.0,0.0,0.0,0.0,0.0,0.0,0.0,0.0,-1.7524,0.0,0.0,0.0,0.0,0.0,0.0,-1.6573,-1.6774,-1.6616,-1.65,0.0,0.0,-1.65,-1.65,-1.7087,-1.7674,-1.8191,-1.8719,-1.9259,-1.9798,-1.9798,-1.9798,-1.9798,-1.9798,-1.9798,-1.9798,-1.9798,-1.9798,-1.9798,-1.9798,-1.9952,-2.0156,-2.0156,-2.0534,-2.1088,-2.0894,-2.1091,-2.1585,0.0,0.0,0.0,0.0,-2.0333,0.0,0.0,0.0,-2.3625,0.0,-2.4837,-2.5674,-2.5704,-2.6243,-2.6078,-2.4769,-2.5809,0.0,-2.3729,-2.4216,0.0,0.0,-2.3595,-2.3595,-2.3595,0.0,0.0,0.0,0.0,0.0,0.0,0.0,0.0,0.0,-2.3595,0.0,-2.3595,-2.3595,-2.3595,-2.3595,-2.3595,-2.3595,-2.3595,-2.3595,-2.3595,-2.3595,-2.3595,-2.3595,-2.3595,-2.3595,-2.3595,-2.3595,-2.3595,-2.3595,-2.3595,-2.3595,-2.3595,-2.3465,-2.2897,-2.274,-2.2589,-2.1946,0.0,0.0,0.0,0.0,-2.2409,0.0,0.0,0.0,0.0,0.0,0.0,0.0,0.0,0.0,0.0,0.0,0.0,0.0,0.0,0.0,0.0,-1.6837,-1.6731,-1.7209,-1.6816,0.0,0.0,0.0,-1.65,-1.65,-1.7049,-1.7614,-1.8191,-1.8669,-1.9208,-1.9798,-1.9773,-1.9773,-1.9798,-1.9798,-1.9798,-1.9798,-1.9798,-1.9798,-1.9798,-1.9824,-2.0232,-2.0795,-2.0795,-2.1161,-2.1625,-2.1088,-2.168,-2.274,-2.074,-2.0918,-2.1205,0.0,-2.1321,-2.1605,0.0,0.0,0.0,0.0,-2.5824,-2.6527,-2.7046,-2.6806,-2.6258,-2.5435,-2.5674,0.0,0.0,0.0,0.0,-2.3625,-2.3595,-2.3595,-2.3595,-2.3595,0.0,-2.3595,0.0,0.0,-2.3595,0.0,0.0,0.0,0.0,0.0,-2.3595,-2.3595,-2.3595,-2.3595,-2.3595,-2.3595,0.0,0.0,-2.3595,-2.3595,-2.3595,-2.3595,-2.3595,-2.3595,-2.3595,-2.3595,-2.3595,-2.3595,-2.3595,-2.3595,-2.3595,-2.3573,-2.3421,-2.3377,-2.3319,-2.315,-2.3106,-2.298,0.0,0.0,0.0,0.0,0.0,0.0,0.0,0.0,0.0,0.0,0.0,0.0,0.0,0.0,0.0,-1.8496,0.0,0.0,0.0,-1.7167,-1.6993,-1.671,-1.6951,0.0,0.0,0.0,0.0,-1.65,-1.6638,-1.7212,-1.8191,-1.794,-1.848,-1.9798,-1.9384,-1.9409,-1.9798,-1.9798,-1.9798,-1.9798,-1.9798,-1.9798,-1.9824,-2.0334,-2.0646,-2.0795,-2.0795,-2.1161,-2.1734,-2.2091,-2.2703,-2.3377,-2.1552,0.0,0.0,-2.2149,0.0,0.0,-2.3092,0.0,0.0,-2.5457,-2.6183,0.0,-2.6731,-2.6926,-2.6632,-2.5689,-2.5869,0.0,-2.4111,0.0,0.0,-2.3625,-2.3595,-2.3595,-2.3595,-2.3595,0.0,-2.3595,0.0,0.0,-2.3595,0.0,0.0,0.0,0.0,-2.3595,0.0,-2.3595,-2.3595,-2.3595,-2.3595,0.0,0.0,-2.3595,-2.3595,-2.3595,-2.3595,-2.3595,-2.3595,-2.3595,-2.3595,-2.3595,-2.3595,-2.3595,-2.3595,-2.3595,-2.3595,-2.3595,-2.3595,-2.3595,-2.3595,-2.3595,-2.3595,-2.3508,-2.3179,-2.3355,-2.3508,0.0,0.0,0.0,0.0,0.0,0.0,0.0,0.0,0.0,0.0,0.0,0.0,0.0,0.0,0.0,0.0,0.0,-1.7167,0.0,0.0,0.0,0.0,0.0,0.0,-1.65,-1.65,-1.6914,-1.784,-1.7777,-1.8317,-1.9434,-1.9371,-1.9522,-1.9798,-1.9798,-1.9798,-1.9798,-1.9798,-1.9798,-1.9824,-2.0194,-2.0535,-2.087,-2.1417,-2.1997,-2.2583,-2.295,-2.3312,-2.3595,0.0,0.0,0.0,0.0,0.0,0.0,0.0,-2.4425,0.0,-2.5555,0.0,-2.6333,-2.5674,-2.6557,-2.6746,-2.5561,0.0,-2.5719,-2.4545,-2.447,-2.4201,-2.3625,-2.3595,-2.3595,-2.3595,-2.3595,0.0,0.0,0.0,0.0,0.0,0.0,0.0,0.0,0.0,0.0,0.0,-2.3595,-2.3595,0.0,-2.3595,-2.3655,-2.3729,-2.3729,-2.3729,-2.3729,-2.3729,-2.367,-2.3595,-2.3595,-2.3595,-2.3595,-2.3595,-2.3595,-2.3595,-2.3595,-2.3595,-2.3595,-2.3595,-2.3595,-2.3595,-2.3595,-2.3595,-2.3595,-2.3595,-2.3595,-2.3595,-2.3595,-2.3595,-2.3236,0.0,0.0,0.0,0.0,0.0,0.0,0.0,0.0,0.0,0.0,0.0,0.0,0.0,0.0,0.0,0.0,0.0,0.0,0.0,0.0,0.0,-1.6824,-1.6687,-1.698,-1.7736,0.0,-1.8494,-1.9108,-1.9522,-1.9736,-1.9798,-1.9798,-1.9798,-1.9798,-1.9798,-1.9798,-1.9798,-1.9901,-2.0321,-2.1028,-2.2221,-2.3009,-2.3486,-2.3486,-2.353,-2.3595,0.0,0.0,0.0,0.0,0.0,-2.4754,-2.5196,-2.5824,-2.6093,-2.5674,-2.6183,-2.6333,-2.5674,-2.5307,-2.5023,-2.4799,-2.4388,0.0,0.0,0.0,0.0,-2.361,-2.3595,-2.3595,-2.3595,-2.3595,-2.3595,0.0,0.0,0.0,0.0,0.0,0.0,0.0,0.0,0.0,-2.3595,-2.3595,0.0,-2.3595,-2.3595,-2.3939,-2.4425,-2.4425,-2.4425,-2.4425,-2.4425,-2.4066,-2.3595,-2.3595,-2.3595,-2.3595,-2.3595,-2.3595,-2.3595,-2.3595,-2.3595,-2.3595,-2.3595,-2.3595,-2.3595,-2.3595,-2.3595,-2.3595,-2.3595,-2.3595,-2.3595,-2.3595,-2.3595,-2.337,-2.2658,0.0,0.0,0.0,0.0,0.0,0.0,0.0,0.0,0.0,0.0,0.0,0.0,0.0,0.0,0.0,0.0,0.0,0.0,0.0,0.0,0.0,-1.7739,0.0,0.0,0.0,-1.8694,-1.966,-1.9296,-1.9359,-1.9798,-1.9798,-1.9798,-1.9798,-1.9798,-1.9798,-1.985,-2.0396,-2.0991,-2.1615,-2.2406,-2.2762,-2.2852,-2.2852,-2.3165,-2.3595,0.0,0.0,0.0,0.0,0.0,0.0,0.0,-2.6701,0.0,-2.6213,-2.6093,-2.5959,-2.5644,-2.5307,-2.5113,-2.5113,-2.45,-2.4111,-2.4111,-2.3789,-2.3595,-2.3595,-2.3595,0.0,-2.3595,-2.3595,-2.3595,-2.3595,0.0,0.0,0.0,0.0,0.0,0.0,0.0,-2.3789,0.0,0.0,0.0,-2.4582,-2.3879,-2.4223,-2.5068,-2.4739,-2.4605,-2.4649,-2.4993,-2.4679,-2.4066,-2.3729,-2.3834,-2.4111,-2.4111,-2.4111,-2.4111,-2.4111,-2.3879,-2.3595,-2.3595,-2.3595,-2.3595,-2.3595,-2.3595,-2.3595,-2.3595,-2.3595,-2.3595,-2.3595,-2.3595,-2.3505,-2.3227,-2.2353,0.0,0.0,0.0,0.0,0.0,0.0,0.0,0.0,0.0,0.0,0.0,0.0,0.0,0.0,0.0,0.0,0.0,0.0,0.0,0.0,0.0,0.0,0.0,0.0,0.0,-1.9895,-1.956,-1.956,-1.9798,-1.9798,-1.9798,-1.9798,-1.9798,-2.0003,-2.0371,-2.1015,-2.1629,-2.2253,-2.2566,-2.2875,-2.3179,-2.3179,-2.3355,-2.3595,0.0,-2.6896,0.0,0.0,-2.6214,0.0,-2.6537,-2.718,-2.736,-2.6701,-2.6019,-2.5555,-2.5397,-2.5247,-2.5181,-2.5181,-2.4679,-2.4395,-2.4395,-2.3894,-2.3595,-2.3595,-2.3595,-2.3595,-2.3595,-2.3744,-2.3744,0.0,0.0,0.0,0.0,0.0,0.0,0.0,0.0,0.0,0.0,0.0,-2.4642,-2.551,-2.4448,-2.4747,-2.5749,-2.5217,-2.5023,-2.5083,-2.563,-2.5367,-2.4724,-2.4208,-2.4365,-2.4814,-2.4814,-2.4709,-2.4605,-2.4605,-2.4126,-2.3595,-2.3595,-2.3595,-2.3595,-2.3595,-2.3595,-2.3595,-2.3595,-2.3595,-2.3595,-2.3595,-2.3595,-2.3595,-2.3595,-2.2772,0.0,0.0,0.0,0.0,0.0,0.0,0.0,0.0,0.0,0.0,0.0,0.0,0.0,0.0,0.0,0.0,0.0,0.0,0.0,0.0,0.0,-1.9277,-2.0637,0.0,-2.0229,-2.0371,-2.0126,-2.0003,-2.0003,-2.0003,-2.0003,-2.0003,-2.0003,-2.0396,-2.1028,-2.1653,-2.2216,-2.2694,-2.283,-2.3187,-2.3595,-2.3595,-2.3595,-2.3595,0.0,0.0,0.0,0.0,0.0,0.0,-2.6669,-2.718,-2.736,-2.6701,-2.6019,-2.5375,-2.4769,-2.4141,-2.3789,-2.3789,-2.3729,-2.3684,-2.3684,-2.3625,-2.3595,-2.3595,-2.3595,-2.3595,-2.3595,-2.4201,-2.4201,0.0,0.0,0.0,0.0,0.0,0.0,0.0,0.0,0.0,0.0,-2.545,-2.5495,-2.56,-2.5465,-2.5854,-2.6497,-2.6437,-2.6408,-2.6422,-2.6482,-2.6078,-2.551,-2.5435,-2.5442,-2.5501,-2.5501,-2.5083,-2.4605,-2.4605,-2.4126,-2.3595,-2.3595,-2.3595,-2.3595,-2.3595,-2.3595,-2.3595,-2.3595,-2.3595,-2.3595,-2.3595,-2.3595,-2.3595,-2.3595,-2.3505,-2.3445,0.0,0.0,0.0,0.0,0.0,0.0,0.0,0.0,0.0,0.0,0.0,0.0,0.0,0.0,0.0,0.0,0.0,0.0,-2.1326,0.0,-2.0628,-2.2439,-2.1308,-2.0984,-2.1519,-2.0977,-2.0696,-2.0696,-2.0696,-2.0696,-2.0696,-2.0696,-2.104,-2.1663,-2.2323,-2.2649,-2.274,-2.3312,-2.3551,-2.3595,-2.3595,-2.3595,-2.3595,0.0,0.0,0.0,0.0,0.0,0.0,0.0,-2.742,-2.7495,-2.724,-2.6258,-2.5659,-2.5794,-2.4477,-2.3759,-2.4156,-2.3834,-2.3595,-2.3595,-2.3595,-2.3595,-2.3595,-2.3595,-2.3595,-2.3595,-2.4261,-2.447,0.0,0.0,0.0,0.0,0.0,0.0,0.0,0.0,-2.5824,-2.6168,-2.5779,-2.6063,-2.6746,-2.5929,-2.6243,-2.7165,-2.6761,-2.6587,-2.6632,-2.7061,-2.6752,-2.6198,-2.6198,-2.5929,-2.5615,-2.5615,-2.5128,-2.4605,-2.4605,-2.4126,-2.3595,-2.3595,-2.3595,-2.3595,-2.3595,-2.3595,-2.3595,-2.3595,-2.3595,-2.3595,-2.3595,-2.3595,-2.3595,-2.3595,-2.3595,-2.3595,0.0,0.0,0.0,0.0,0.0,0.0,0.0,0.0,0.0,0.0,0.0,0.0,0.0,0.0,0.0,0.0,0.0,0.0,-2.071,0.0,-2.1377,-2.3231,-2.1983,-2.1653,-2.23,-2.1272,-2.0979,-2.1342,-2.0968,-2.1004,-2.1366,-2.1775,-2.2081,-2.2346,-2.2987,-2.3246,-2.3253,-2.3508,-2.3595,-2.3595,-2.3595,-2.3595,-2.3595,-3.2446,0.0,-3.0417,0.0,-2.8518,-2.775,-2.761,-2.76,-2.76,-2.76,-2.6587,-2.6004,-2.6273,-2.4866,-2.4014,-2.4276,-2.3879,-2.3595,-2.3595,-2.3595,-2.3595,-2.3595,-2.3595,0.0,-2.3595,-2.444,-2.4799,-2.4605,-2.5457,0.0,0.0,0.0,0.0,0.0,-2.6183,-2.6437,-2.6866,-2.6378,-2.6722,-2.751,-2.6557,-2.6761,-2.754,-2.7076,-2.6871,-2.6971,-2.742,-2.73,-2.6866,-2.6686,-2.6153,-2.5615,-2.5615,-2.5128,-2.4605,-2.4605,-2.4126,-2.3595,-2.3595,-2.3595,-2.3595,-2.3595,-2.3595,-2.3595,-2.3595,-2.3595,-2.3595,-2.3595,-2.3595,-2.3595,-2.3595,-2.3595,-2.3595,-2.3595,0.0,0.0,0.0,0.0,0.0,0.0,-1.9708,-1.9708,-1.9708,0.0,0.0,0.0,0.0,0.0,0.0,0.0,0.0,0.0,0.0,0.0,0.0,-2.2538,-2.2308,-2.2942,-2.187,-2.1571,-2.1969,-2.1547,-2.1595,-2.2016,-2.268,-2.2965,-2.2987,-2.3421,-2.3595,-2.3595,-2.3595,-2.3595,-2.3595,-2.3595,-2.3595,-2.3595,-3.2446,-3.1809,-3.0986,-2.963,-2.888,-2.8295,-2.7685,-2.76,-2.76,-2.76,-2.7016,-2.6333,-2.5689,-2.4993,-2.4321,-2.367,-2.3595,-2.3595,-2.3595,-2.3595,-2.3595,0.0,0.0,-2.3595,-2.3595,-2.4911,-2.5247,-2.4605,0.0,0.0,-2.5615,0.0,-2.6941,-2.757,-2.757,-2.757,-2.7585,-2.757,-2.7585,-2.76,-2.7585,-2.7585,-2.76,-2.7585,-2.7585,-2.7585,-2.76,-2.7585,-2.748,-2.6811,-2.6153,-2.5615,-2.5615,-2.5128,-2.4605,-2.4605,-2.4126,-2.3595,-2.3595,-2.3595,-2.3595,-2.3595,-2.3595,-2.3595,-2.3595,-2.3595,-2.3595,-2.3595,-2.3595,-2.3595,-2.3595,-2.3595,-2.3595,-2.3595,0.0,0.0,0.0,0.0,0.0,0.0,-1.9708,-1.9708,-1.9708,0.0,0.0,0.0,0.0,0.0,0.0,0.0,0.0,-2.2622,-2.2667,0.0,-2.3595,-2.2987,-2.2987,-2.3573,-2.2965,-2.2672,-2.2694,-2.2672,-2.2672,-2.2717,-2.3334,-2.3595,-2.3595,-2.3595,-2.3595,-2.3595,-2.3595,-2.3595,-2.3595,-2.3595,-2.3595,-2.3595,-3.2547,-3.2133,-3.1592,-3.0238,-2.9848,-2.9518,-2.8927,-2.8834,-2.8685,-2.8271,-2.7624,-2.6993,-2.6351,-2.5689,-2.5008,0.0,-2.4276,-2.4081,0.0,-2.3595,-2.3595,-2.3595,-2.4044,-2.4276,-2.4276,-2.56,-2.6183,-2.5959,0.0,0.0,0.0,-2.718,-2.7405,-2.76,-2.76,-2.76,-2.76,-2.76,-2.76,-2.76,-2.76,-2.76,-2.76,-2.76,-2.76,-2.754,-2.7091,-2.6926,-2.6761,-2.563,-2.5083,-2.4829,-2.4388,-2.4088,-2.3924,-2.3924,-2.3774,-2.3595,-2.3595,-2.3595,-2.3595,-2.3595,-2.3595,-2.3595,-2.3595,-2.3595,-2.3595,-2.3595,-2.3595,-2.3595,-2.3595,-2.3251,-2.2987,-2.2987,-2.1874,0.0,0.0,0.0,0.0,0.0,-1.9708,-1.9708,0.0,-1.9708,0.0,0.0,0.0,0.0,0.0,0.0,0.0,0.0,-2.2498,0.0,-2.3595,-2.3009,-2.3009,-2.3595,-2.2987,-2.2694,-2.2717,-2.3135,-2.3312,-2.3334,-2.3508,-2.3595,-2.3595,-2.3595,-2.3595,-2.3595,-2.3595,-2.3595,-2.3595,-2.3595,-2.3595,-2.3595,-3.2547,-3.2113,-3.1612,-3.0488,-3.0123,-2.9827,-2.9451,-2.9406,-2.9248,-2.8896,-2.848,-2.7967,-2.7319,-2.6679,0.0,-2.4702,-2.4365,-2.4059,-2.3625,-2.3595,-2.3714,-2.3947,-2.438,-2.4724,-2.4963,-2.6033,0.0,-2.6587,-2.727,-2.76,-2.76,-2.76,-2.76,-2.76,-2.76,-2.76,-2.76,-2.76,-2.76,-2.76,-2.76,-2.76,-2.76,-2.76,-2.76,-2.751,-2.6851,-2.6587,-2.6393,-2.5053,-2.4605,-2.4485,-2.3819,-2.3595,-2.3595,-2.3595,-2.3595,-2.3595,-2.3595,-2.3595,-2.3595,-2.3595,-2.3595,-2.3595,-2.3595,-2.3595,-2.3595,-2.3595,-2.3595,-2.3595,-2.3595,-2.3122,-2.2703,-2.2703,-2.1575,-2.0703,-2.0703,0.0,0.0,0.0,0.0,0.0,0.0,-1.9708,-1.9708,0.0,0.0,0.0,0.0,0.0,0.0,-2.254,-2.2849,0.0,-2.3595,-2.3224,-2.3231,-2.361,-2.3209,-2.3031,-2.3054,-2.3421,-2.3595,-2.3595,-2.3595,-2.3595,-2.3595,-2.3595,-2.3595,-2.3595,-2.3595,-2.3595,-2.3595,-2.3595,-2.3595,-2.3595,-3.253,-3.188,-3.1257,0.0,-2.9924,0.0,-2.9518,-2.9518,-2.9518,-2.9473,-2.9425,-2.9115,-2.8393,-2.7771,-2.6687,-2.4874,0.0,0.0,0.0,-2.3595,-2.3909,-2.4575,-2.4649,-2.4978,-2.5659,-2.6318,-2.6662,-2.6662,-2.73,-2.76,-2.76,-2.76,-2.76,-2.76,-2.76,-2.76,-2.76,-2.76,-2.76,-2.76,-2.76,-2.76,-2.7585,-2.754,-2.7525,-2.7435,-2.6731,-2.6452,-2.6258,-2.4963,-2.453,-2.4425,-2.3804,-2.3595,-2.3595,-2.3595,-2.3595,-2.3595,-2.3595,-2.3595,-2.3595,-2.3595,-2.3595,-2.3595,-2.3595,-2.3595,-2.3595,-2.3595,-2.3595,-2.3595,-2.3595,-2.3077,-2.2628,-2.2628,-2.15,-2.0628,-2.0628,0.0,0.0,0.0,0.0,0.0,0.0,-1.9708,-1.9708,0.0,0.0,0.0,0.0,0.0,-2.2987,-2.358,-2.3595,-2.3595,-2.3595,-2.3595,-2.3595,-2.3595,-2.3595,-2.3595,-2.3595,-2.3595,-2.3595,-2.3595,-2.3595,-2.3595,-2.3595,-2.3595,-2.3595,-2.3595,-2.3595,-2.3595,-2.3595,-2.3595,-2.3595,-2.3595,0.0,0.0,-3.2042,-3.1873,-3.1247,-3.076,-3.076,-3.076,-3.0617,-3.0145,-2.9648,-2.9056,-2.8372,-2.7269,-2.6381,-2.5874,-2.4933,-2.4141,-2.3625,-2.3595,-2.3909,-2.4575,-2.5083,-2.5689,-2.6348,-2.7031,-2.736,-2.736,-2.7525,-2.76,-2.76,-2.76,-2.76,-2.76,-2.76,-2.76,-2.76,-2.76,-2.76,-2.76,-2.76,-2.76,-2.754,-2.7046,-2.6851,-2.6677,-2.551,-2.5068,-2.4948,-2.4118,-2.3849,-2.3819,-2.3655,-2.3595,-2.3595,-2.3595,-2.3595,-2.3595,-2.3595,-2.3595,-2.3595,-2.3595,-2.3595,-2.3595,-2.3595,-2.3595,-2.3595,-2.3595,-2.3595,-2.3595,-2.3595,-2.2682,-2.1934,-2.1934,-2.0797,-1.9947,-1.9947,-1.9813,0.0,0.0,-1.9708,-1.9708,-1.9708,-1.9708,-1.9708,0.0,0.0,0.0,0.0,-2.2343,-2.2987,-2.358,-2.3595,-2.3595,-2.3595,-2.3595,-2.3595,-2.3595,-2.3595,-2.3595,-2.3595,-2.3595,-2.3595,-2.3595,-2.3595,-2.3595,-2.3595,-2.3595,-2.3595,-2.3595,-2.3595,-2.3595,-2.3595,-2.3595,-2.3595,-2.3595,-3.2899,-3.2581,-3.2293,-3.2293,-3.1972,-3.1599,-3.1241,-3.119,-3.1075,-3.074,-3.0389,-2.9902,-2.9194,-2.7943,-2.7026,-2.6639,-2.5316,-2.4359,-2.3979,-2.401,-2.435,-2.5023,-2.5704,-2.6363,-2.7046,-2.7405,-2.76,-2.76,-2.76,-2.76,-2.76,-2.76,-2.76,-2.76,-2.76,-2.76,-2.757,-2.727,-2.733,-2.757,-2.727,-2.7151,-2.7106,-2.6746,-2.6408,-2.6019,-2.4963,-2.4605,-2.45,-2.3834,-2.3595,-2.3595,-2.3595,-2.3819,-2.4014,-2.3684,-2.3595,-2.3595,-2.3595,-2.3595,-2.3595,-2.3595,-2.3595,-2.3595,-2.3595,-2.3595,-2.3595,-2.3595,-2.3595,-2.3595,-2.3595,-2.2562,-2.1695,-2.1695,-2.0576,-1.9708,-1.9708,-1.9708,0.0,-1.9708,-1.9708,-1.9708,-1.9708,-1.9708,-1.9708,-1.9708,-2.0034,0.0,-2.165,-2.2059,-2.2673,-2.3565,-2.3595,-2.3595,-2.3595,-2.3595,-2.3595,-2.3595,-2.3595,-2.3595,-2.3595,-2.3595,-2.3595,-2.3595,-2.3595,-2.3595,-2.3595,-2.3595,-2.3595,-2.3595,-2.3595,-2.3595,-2.3595,-2.3595,-2.3595,-2.3595,-3.2496,-3.2547,-3.2479,-3.2479,-3.2378,-3.2056,-3.1309,-3.119,-3.119,-3.119,-3.119,-3.092,-3.0192,-2.9042,-2.8078,-2.7446,-2.5723,-2.458,-2.441,-2.4531,-2.4903,-2.5561,-2.6243,-2.6926,-2.7585,-2.76,-2.76,-2.76,-2.76,-2.76,-2.76,-2.76,-2.76,-2.76,-2.76,-2.76,-2.7555,-2.7001,-2.7091,-2.754,-2.6881,-2.6587,-2.6572,-2.6378,-2.5944,-2.5352,-2.4694,-2.4455,-2.4365,-2.3789,-2.3595,-2.3625,-2.3729,-2.4141,-2.4485,-2.3924,-2.3759,-2.3729,-2.3625,-2.3595,-2.3595,-2.3595,-2.3595,-2.3595,-2.3595,-2.3595,-2.3595,-2.3595,-2.3595,-2.3595,-2.3595,-2.2562,-2.1695,-2.1695,-2.0647,-1.9839,-1.9839,0.0,-2.0007,-2.0007,-1.9899,-1.9839,-1.9839,-1.9768,-1.9708,-1.9708,-1.9708,-2.0292,-2.162,-2.1695,-2.2278,-2.3565,-2.3595,-2.3595,-2.3595,-2.3595,-2.3595,-2.3595,-2.3595,-2.3595,-2.3595,-2.3595,-2.3595,-2.3595,-2.3595,-2.3595,-2.3595,-2.3595,-2.3595,-2.3595,-2.3595,-2.3595,-2.3595,-2.3595,-2.3595,-2.3595,-3.3998,-3.366,-3.3237,-3.3237,-3.2716,-3.2056,-3.1309,-3.119,-3.119,-3.119,-3.119,-3.092,-3.0192,-2.9375,-2.8832,-2.8714,-2.6987,-2.5498,-2.4477,-2.4531,-2.4903,-2.5561,-2.6243,-2.6926,-2.7585,-2.76,-2.76,-2.76,-2.76,-2.76,-2.76,-2.76,-2.76,-2.76,-2.76,-2.76,-2.7585,-2.748,-2.7495,-2.754,-2.6881,-2.6587,-2.6467,-2.5337,-2.4844,-2.4664,-2.3999,-2.3759,-2.3744,-2.364,-2.3595,-2.3699,-2.4261,-2.4515,-2.459,-2.4485,-2.444,-2.4321,-2.3759,-2.3595,-2.3595,-2.3595,-2.3595,-2.3595,-2.3595,-2.3595,-2.3595,-2.3595,-2.3595,-2.3595,-2.3595,-2.2562,-2.1695,-2.1695,-2.1051,-2.0539,-2.0539,0.0,-2.138,-2.138,-2.0902,-2.0539,-2.0539,-2.0034,-1.9708,-1.9708,-1.9708,-2.0292,-2.162,-2.1695,-2.2278,-2.3565,-2.3595,-2.3595,-2.3595,-2.3595,-2.3595,-2.3595,-2.3595,-2.3595,-2.3595,-2.3595,-2.3595,-2.3595,-2.3595,-2.3595,-2.3595,-2.3595,-2.3595,-2.3595,-2.3595,-2.3595,-2.3595,-2.3595,-2.3595,-2.3595,-3.3173,-3.3355,-3.3271,-3.2882,-3.2848,-3.251,-3.136,-3.119,-3.119,-3.119,-3.119,-3.1072,-3.0734,-2.9687,-2.9162,-2.955,-2.7455,-2.5905,-2.5444,-2.5574,-2.5659,-2.5615,-2.6572,-2.7285,-2.7585,-2.76,-2.76,-2.76,-2.76,-2.76,-2.76,-2.76,-2.76,-2.76,-2.76,-2.76,-2.754,-2.6836,-2.6746,-2.6986,-2.5944,-2.5516,-2.5465,-2.4844,-2.438,-2.4007,-2.3714,-2.3595,-2.3595,-2.3595,-2.3595,-2.3729,-2.4395,-2.4605,-2.4605,-2.4605,-2.4335,-2.3999,-2.3684,-2.3595,-2.3595,-2.3595,-2.3595,-2.3595,-2.3595,-2.3595,-2.3595,-2.3595,-2.3595,-2.349,-2.3182,-2.2338,-2.1695,-2.1695,-2.1141,0.0,0.0,-2.15,-2.156,-2.1201,-2.0882,-2.0572,-2.0198,-2.0213,-2.0243,-2.0243,-2.0557,-2.1186,-2.2194,-2.2239,-2.2673,-2.3565,-2.3595,-2.3595,-2.3595,-2.3595,-2.3595,-2.3595,-2.3595,-2.3595,-2.3595,-2.3595,-2.3595,-2.3595,-2.3595,-2.3595,-2.3595,-2.3595,-2.3595,-2.3595,-2.3595,-2.3595,-2.3595,-2.3595,-2.3595,-2.3595,-3.2158,-3.2767,-3.2966,-3.2395,-3.2763,-3.2696,-3.1393,-3.119,-3.119,-3.119,-3.119,-3.1123,-3.0954,-2.9922,-2.9482,-3.0057,-2.7896,-2.6552,-2.6742,-2.6903,-2.6583,-2.5644,-2.6896,-2.76,-2.76,-2.76,-2.76,-2.76,-2.76,-2.76,-2.76,-2.76,-2.76,-2.76,-2.76,-2.76,-2.7525,-2.6333,-2.6123,-2.6482,-2.5128,-2.4605,-2.459,-2.4425,-2.4059,-2.3595,-2.3595,-2.3595,-2.3595,-2.3595,-2.3595,-2.3729,-2.4395,-2.4605,-2.4605,-2.4605,-2.4126,-2.3595,-2.3595,-2.3595,-2.3595,-2.3595,-2.3595,-2.3595,-2.3595,-2.3595,-2.3595,-2.3595,-2.3595,-2.3445,-2.3002,-2.2353,-2.1919,-2.1919,0.0,0.0,0.0,-2.1919,-2.1739,-2.1231,-2.1036,-2.0677,-1.9989,-2.0543,-2.0872,-2.0703,-2.1321,-2.1999,-2.2658,-2.2553,-2.2763,-2.337,-2.352,-2.3595,-2.3595,-2.3595,-2.3595,-2.3595,-2.3595,-2.3595,-2.3595,-2.3595,-2.3595,-2.3595,-2.3595,-2.3595,-2.3595,-2.3595,-2.3595,-2.3595,-2.3595,-2.3505,-2.3385,-2.3385,-2.3295,-2.3161,-3.2158,-3.2344,-3.2361,-3.231,-3.2344,-3.2107,-3.1309,-3.119,-3.119,-3.119,-3.119,-3.0937,-3.026,-3.0072,-3.004,-3.0108,-2.8791,-2.7984,-2.8056,-2.813,-2.7395,-2.5676,-2.6896,-2.76,-2.76,-2.76,-2.76,-2.76,-2.76,-2.76,-2.76,-2.76,-2.76,-2.76,-2.76,-2.76,-2.754,-2.6811,-2.6542,-2.6482,-2.5128,-2.4605,-2.453,-2.3924,-2.364,-2.3595,-2.3595,-2.3595,-2.3595,-2.3595,-2.3595,-2.3729,-2.4395,-2.4605,-2.4605,-2.4605,-2.4126,-2.3595,-2.3595,-2.3595,-2.3595,-2.3595,-2.3595,-2.3595,-2.3595,-2.3595,-2.3595,-2.3595,-2.3595,-2.3595,-2.3535,-2.3047,-2.2628,-2.2628,0.0,0.0,-2.2628,-2.2628,-2.2613,-2.2568,-2.1994,-2.1365,-2.0688,-2.1231,-2.138,-2.0748,-2.1321,-2.1999,-2.2658,-2.2119,-2.2089,-2.2748,-2.3295,-2.3595,-2.3595,-2.3595,-2.3595,-2.3595,-2.3595,-2.3595,-2.3595,-2.3595,-2.3595,-2.3595,-2.3595,-2.3595,-2.3595,-2.3595,-2.3595,-2.3595,-2.3595,-2.3251,-2.2763,-2.2763,-2.2373,-2.1844,-3.1546,-3.1989,-3.2158,-3.1701,-3.2005,-3.2056,-3.1309,-3.119,-3.119,-3.119,-3.119,-3.092,-3.0192,-3.0108,-2.9922,-2.9448,-2.8505,-2.7996,-2.8199,-2.8536,-2.8506,-2.7988,-2.8436,-2.8543,-2.8165,-2.8165,-2.7968,-2.76,-2.76,-2.76,-2.7585,-2.718,-2.6986,-2.6986,-2.6986,-2.6761,-2.6333,-2.6093,-2.5749,-2.5277,-2.4335,-2.3984,-2.3947,-2.3699,-2.3595,-2.3595,-2.3595,-2.3595,-2.3595,-2.3595,-2.3595,-2.3729,-2.4395,-2.4306,-2.3984,-2.3984,-2.3804,-2.3595,-2.3595,-2.3595,-2.3595,-2.3595,-2.3595,-2.3595,-2.3595,-2.3595,-2.3595,-2.3595,-2.3595,-2.349,-2.3122,-2.2853,-2.2703,-2.2703,0.0,-2.2838,-2.3212,-2.2942,-2.2553,-2.2134,-2.1485,-2.0827,-2.0139,-2.1066,-2.159,-2.1335,-2.2293,-2.2981,-2.3236,-2.3011,-2.2817,-2.2703,-2.3302,-2.3595,-2.3595,-2.3595,-2.3595,-2.3595,-2.3595,-2.3595,-2.3595,-2.3595,-2.3595,-2.3595,-2.3595,-2.3595,-2.3595,-2.3595,-2.337,-2.3047,-2.3047,-2.2658,-2.2089,-2.2089,-2.1924,-2.1695,-3.119,-3.1616,-3.1802,-3.1275,-3.1633,-3.1785,-3.1275,-3.119,-3.1106,-3.0886,-3.0852,-3.048,-2.948,-2.9802,-2.9702,-2.8704,-2.8551,-2.8491,-2.8462,-2.9011,-2.9451,-2.9669,-2.9496,-2.9203,-2.8779,-2.8606,-2.831,-2.787,-2.7685,-2.748,-2.7285,-2.6821,-2.6587,-2.6587,-2.6587,-2.6452,-2.6198,-2.5779,-2.5322,-2.4829,-2.3954,-2.3595,-2.3595,-2.3595,-2.3595,-2.3595,-2.3595,-2.3595,-2.3595,-2.3595,-2.3595,-2.3684,-2.4141,-2.3984,-2.3595,-2.3595,-2.3595,-2.3595,-2.3595,-2.3595,-2.3595,-2.3595,-2.3595,-2.3595,-2.3595,-2.3595,-2.3595,-2.3595,-2.3595,-2.3475,-2.3062,-2.2987,-2.2987,-2.2987,-2.2987,-2.3137,-2.3535,-2.3092,-2.2523,-2.2074,-2.1605,-2.0976,-2.0094,-2.1395,-2.2128,-2.1724,-2.2877,-2.352,-2.3325,-2.349,-2.331,-2.2718,-2.3302,-2.3595,-2.3595,-2.3595,-2.3595,-2.3595,-2.3595,-2.3595,-2.3595,-2.3595,-2.3595,-2.3595,-2.3595,-2.3595,-2.3595,-2.3385,-2.3077,-2.2673,-2.2463,-2.1984,-2.1395,-2.1395,-2.1246,-2.1066,-3.1207,-3.119,-3.119,-3.1207,-3.119,-3.119,-3.119,-3.119,-3.0937,-3.019,-3.0125,-2.9514,-2.7993,-2.9176,-2.948,-2.7942,-2.921,-2.9786,-2.9061,-2.9702,-3.018,-3.0302,-2.9739,-2.9406,-2.9406,-2.8803,-2.8487,-2.8487,-2.7894,-2.727,-2.6587,-2.6587,-2.6572,-2.6572,-2.6572,-2.6956,-2.748,-2.6153,-2.56,-2.548,-2.4148,-2.3595,-2.3595,-2.3595,-2.3595,-2.3595,-2.3595,-2.3595,-2.3595,-2.3595,-2.3595,-2.3595,-2.3595,-2.3595,-2.3595,-2.3595,-2.3595,-2.3595,-2.3595,-2.3595,-2.3595,-2.3595,-2.3595,-2.3595,-2.3595,-2.3595,-2.3595,-2.3595,-2.3595,-2.3595,-2.3595,-2.3595,-2.3595,-2.3595,-2.3595,-2.3595,-2.3595,-2.3092,-2.2703,-2.2703,-2.2703,-2.2179,-2.0838,-2.2458,-2.3071,-2.1799,-2.2877,-2.3325,-2.2733,-2.3266,-2.331,-2.2718,-2.3302,-2.3595,-2.3595,-2.3595,-2.3595,-2.3595,-2.3595,-2.3595,-2.3595,-2.3595,-2.3595,-2.3595,-2.3595,-2.3595,-2.355,-2.2957,-2.2703,-2.2628,-2.1949,-2.1291,-2.0688,-2.0688,-2.0273,-1.9708,-3.187,-3.1565,-3.136,-3.1887,-3.1529,-3.119,-3.119,-3.119,-3.1123,-3.0903,-3.0869,-3.0497,-2.9514,-3.0294,-3.026,-2.8772,-2.955,-3.0023,-2.9786,-3.0463,-3.0895,-3.0938,-3.0777,-3.0272,-2.9429,-2.9225,-2.8732,-2.7885,-2.7685,-2.727,-2.6572,-2.6123,-2.5659,-2.5187,-2.5187,-2.5061,-2.4792,-2.4881,-2.4619,-2.4163,-2.3759,-2.3595,-2.3595,-2.3595,-2.3595,-2.3595,-2.3595,-2.3595,-2.3595,-2.3595,-2.3595,-2.3595,-2.3595,-2.3595,-2.3595,-2.3595,-2.3595,-2.3595,-2.3595,-2.3595,-2.3595,-2.3595,-2.3595,-2.3595,-2.3595,-2.3595,-2.3595,-2.3595,-2.3595,-2.3595,-2.3595,-2.3595,-2.3595,-2.3595,-2.3595,-2.3595,-2.3595,-2.3092,-2.2703,-2.2703,-2.2283,-2.1829,-2.144,-2.2338,-2.2823,-2.2433,-2.3146,-2.352,-2.3325,-2.349,-2.331,-2.2718,-2.3302,-2.3385,-2.2972,-2.3385,-2.3595,-2.3595,-2.3595,-2.3595,-2.3595,-2.3595,-2.3595,-2.3595,-2.3595,-2.3595,-2.3595,-2.34,-2.2802,-2.1984,-2.1769,-2.0991,-1.9989,-1.9989,-1.9872,-1.9708,-3.1785,-3.1752,-3.1684,-3.1853,-3.1752,-3.1549,-3.1241,-3.119,-3.1089,-3.0801,-3.0768,-3.048,-2.9753,-3.0328,-3.0294,-2.9094,-2.9668,-3.0207,-3.0531,-3.0954,-3.119,-3.119,-3.119,-3.0858,-3.0123,-2.9651,-2.9042,-2.8304,-2.782,-2.727,-2.6572,-2.5914,-2.5367,-2.4978,-2.4724,-2.4515,-2.4403,-2.4545,-2.4365,-2.3962,-2.3714,-2.3595,-2.3595,-2.3595,-2.3595,-2.3595,-2.3595,-2.3595,-2.3595,-2.3595,-2.3595,-2.3595,-2.3595,-2.3595,-2.3595,-2.3595,-2.3595,-2.3595,-2.3595,-2.3595,-2.3595,-2.3595,-2.3595,-2.3595,-2.3595,-2.3595,-2.3595,-2.3595,-2.3595,-2.3595,-2.3595,-2.3595,-2.3595,-2.3595,-2.3595,-2.3595,-2.3595,-2.3302,-2.3062,-2.3062,-2.2697,-2.2353,-2.2134,-2.2688,-2.3182,-2.343,-2.3789,-2.4014,-2.4014,-2.3744,-2.343,-2.3077,-2.34,-2.3415,-2.3062,-2.3415,-2.3595,-2.3595,-2.3595,-2.3595,-2.3595,-2.3595,-2.3595,-2.3595,-2.3595,-2.3595,-2.358,-2.3325,-2.2622,-2.1665,-2.141,-2.0647,-1.9708,-1.9708,-1.9708,-1.9708,-3.1275,-3.1802,-3.2005,-3.1393,-3.1802,-3.1989,-3.1292,-3.119,-3.0954,-3.0294,-3.0209,-2.9939,-2.9264,-2.9803,-2.9922,-2.9264,-2.9803,-3.048,-3.1157,-3.119,-3.119,-3.119,-3.119,-3.119,-3.119,-3.0015,-2.9387,-2.9406,-2.8218,-2.7344,-2.6669,-2.5993,-2.5616,-2.5495,-2.4814,-2.4844,-2.5367,-2.4769,-2.4515,-2.4455,-2.3849,-2.3595,-2.3595,-2.3595,-2.3595,-2.3595,-2.3595,-2.3595,-2.3595,-2.3595,-2.3595,-2.3595,-2.3595,-2.3595,-2.3595,-2.3595,-2.3595,-2.3595,-2.3595,-2.3595,-2.3595,-2.3595,-2.3595,-2.3595,-2.3595,-2.3595,-2.3595,-2.3595,-2.3655,-2.3684,-2.3684,-2.3744,-2.3774,-2.3774,-2.3774,-2.3759,-2.3699,-2.3744,-2.3759,-2.3699,-2.3744,-2.355,-2.3017,-2.3445,-2.4044,-2.4649,-2.4634,-2.4605,-2.4605,-2.3947,-2.3595,-2.3595,-2.3595,-2.3595,-2.3595,-2.3595,-2.3595,-2.3595,-2.3595,-2.3595,-2.3595,-2.3595,-2.3595,-2.3595,-2.3595,-2.3595,-2.355,-2.3017,-2.2403,-2.1724,-2.1051,-2.0378,-1.9783,-1.9723,-1.9708,-1.9708,-3.1955,-3.1735,-3.1582,-3.1989,-3.1718,-3.1376,-3.1207,-3.119,-3.114,-3.097,-3.0954,-3.0903,-3.0734,-3.0869,-3.0903,-3.0734,-3.0869,-3.1021,-3.119,-3.119,-3.119,-3.119,-3.119,-3.119,-3.119,-2.9914,-2.928,-2.9406,-2.8557,-2.7849,-2.7296,-2.6603,-2.5765,-2.4784,-2.4133,-2.3909,-2.4029,-2.3879,-2.3819,-2.3804,-2.3655,-2.3595,-2.3595,-2.3595,-2.3595,-2.3595,-2.3595,-2.3595,-2.3595,-2.3595,-2.3595,-2.3595,-2.3595,-2.3595,-2.3595,-2.3595,-2.3595,-2.3595,-2.3595,-2.3595,-2.3595,-2.3595,-2.3595,-2.3595,-2.3595,-2.3595,-2.3595,-2.3595,-2.4007,-2.438,-2.438,-2.4799,-2.5181,-2.5181,-2.5181,-2.4986,-2.4455,-2.4829,-2.4963,-2.444,-2.4844,-2.5121,-2.4986,-2.5091,-2.5241,-2.5367,-2.4903,-2.4605,-2.4605,-2.3947,-2.3595,-2.3595,-2.3595,-2.3595,-2.3595,-2.3595,-2.3595,-2.3595,-2.3595,-2.3595,-2.3595,-2.3595,-2.3595,-2.3595,-2.3595,-2.3595,-2.3595,-2.3445,-2.3047,-2.2418,-2.1739,-2.1081,-2.0423,-1.9902,-1.9708,-1.9708,-3.1701,-3.1752,-3.1752,-3.1769,-3.1752,-3.1616,-3.1241,-3.119,-3.119,-3.119,-3.119,-3.119,-3.119,-3.119,-3.119,-3.119,-3.119,-3.119,-3.119,-3.119,-3.119,-3.119,-3.119,-3.119,-3.119,-3.0157,-2.9505,-2.9286,-2.8685,-2.8059,-2.7434,-2.6842,-2.6016,-2.5053,-2.4365,-2.3909,-2.3595,-2.3595,-2.3595,-2.3595,-2.3595,-2.3595,-2.3595,-2.3595,-2.3595,-2.3595,-2.3595,-2.3595,-2.3595,-2.3595,-2.3595,-2.3595,-2.3595,-2.3595,-2.3595,-2.3595,-2.3595,-2.3595,-2.3595,-2.3595,-2.3595,-2.3595,-2.3849,-2.4066,-2.4066,-2.4066,-2.4178,-2.4492,-2.4814,-2.5068,-2.5068,-2.5352,-2.5615,-2.5615,-2.5615,-2.5495,-2.5128,-2.5367,-2.5457,-2.5113,-2.5382,-2.5615,-2.5615,-2.5899,-2.6078,-2.6078,-2.5749,-2.5555,-2.5555,-2.4926,-2.4552,-2.4552,-2.4253,-2.4066,-2.4066,-2.4066,-2.4066,-2.4066,-2.3759,-2.3774,-2.4066,-2.3744,-2.3595,-2.3595,-2.3595,-2.3595,-2.3595,-2.3595,-2.3236,-2.2628,-2.1949,-2.1291,-2.0613,-1.9962,-1.9708,-1.9708,-3.119,-3.1701,-3.1921,-3.1309,-3.1718,-3.1921,-3.1275,-3.119,-3.119,-3.119,-3.119,-3.119,-3.119,-3.119,-3.119,-3.119,-3.119,-3.119,-3.119,-3.119,-3.119,-3.119,-3.1072,-3.1004,-3.1004,-3.0412,-2.9864,-2.9347,-2.8748,-2.8139,-2.7542,-2.6892,-2.6242,-2.557,-2.5002,-2.4304,-2.3595,-2.3702,-2.3666,-2.3595,-2.3595,-2.3595,-2.3595,-2.3595,-2.3595,-2.3595,-2.3595,-2.3595,-2.3595,-2.3595,-2.3595,-2.3595,-2.3595,-2.3595,-2.3595,-2.3595,-2.3595,-2.3595,-2.3595,-2.3595,-2.3625,-2.3744,-2.4186,-2.4664,-2.4889,-2.4844,-2.4933,-2.5495,-2.5689,-2.5779,-2.5779,-2.5869,-2.5944,-2.5944,-2.5944,-2.5899,-2.5794,-2.5869,-2.5899,-2.5794,-2.5869,-2.5944,-2.5944,-2.6437,-2.6752,-2.6752,-2.6647,-2.6587,-2.6587,-2.5959,-2.5615,-2.5615,-2.5053,-2.4769,-2.4769,-2.4769,-2.4829,-2.4933,-2.4268,-2.4178,-2.459,-2.4007,-2.3714,-2.3595,-2.3595,-2.3595,-2.3595,-2.3595,-2.3295,-2.2793,-2.2113,-2.153,-2.0961,-2.0154,-1.9813,-1.9708,-3.119,-3.1275,-3.1309,-3.1207,-3.1275,-3.1309,-3.1207,-3.119,-3.119,-3.119,-3.119,-3.119,-3.119,-3.119,-3.119,-3.119,-3.119,-3.119,-3.119,-3.119,-3.119,-3.119,-3.0598,-3.026,-3.026,-3.014,-3.007,-2.9977,-2.8814,-2.8216,-2.8144,-2.7032,-2.6199,-2.5585,-2.5375,-2.4646,-2.3638,-2.4095,-2.4012,-2.3595,-2.3595,-2.3595,-2.3595,-2.3595,-2.3595,-2.3595,-2.3595,-2.3595,-2.3595,-2.3595,-2.3595,-2.3595,-2.3595,-2.3595,-2.3595,-2.3595,-2.3595,-2.3595,-2.3595,-2.3595,-2.3744,-2.4321,-2.453,-2.4903,-2.6063,-2.5884,-2.5495,-2.5576,-2.6063,-2.6452,-2.6452,-2.6941,-2.733,-2.733,-2.733,-2.7136,-2.6542,-2.6971,-2.7121,-2.6527,-2.6986,-2.733,-2.733,-2.7405,-2.7465,-2.7465,-2.6941,-2.6587,-2.6587,-2.5959,-2.5615,-2.5615,-2.5501,-2.5457,-2.5457,-2.5457,-2.5764,-2.6318,-2.5659,-2.5068,-2.4605,-2.4515,-2.4141,-2.3595,-2.3595,-2.3595,-2.3595,-2.3595,-2.355,-2.3415,-2.2808,-2.2508,-2.2283,-2.1036,-2.0198,-1.9708,-3.119,-3.119,-3.119,-3.119,-3.119,-3.119,-3.119,-3.119,-3.119,-3.119,-3.119,-3.1038,-3.0632,-3.0581,-3.0751,-3.1157,-3.119,-3.119,-3.119,-3.119,-3.119,-3.119,-3.0497,-3.0108,-3.0108,-2.9702,-2.9262,-2.8821,-2.8788,-2.8204,-2.7136,-2.7036,-2.6621,-2.5951,-2.5942,-2.5256,-2.4053,-2.4287,-2.4095,-2.3595,-2.3595,-2.3595,-2.3595,-2.3595,-2.3595,-2.3595,-2.3595,-2.3595,-2.3595,-2.3595,-2.3595,-2.3595,-2.3595,-2.3595,-2.3595,-2.3595,-2.3595,-2.3684,-2.4073,-2.4156,-2.4321,-2.4993,-2.545,-2.5869,-2.6452,-2.6647,-2.6731,-2.6731,-2.6956,-2.7165,-2.7165,-2.7405,-2.76,-2.76,-2.76,-2.7495,-2.721,-2.7405,-2.748,-2.7195,-2.742,-2.76,-2.76,-2.76,-2.76,-2.76,-2.733,-2.7165,-2.7165,-2.6881,-2.6731,-2.6731,-2.6348,-2.6153,-2.6153,-2.6153,-2.6303,-2.6587,-2.6686,-2.6363,-2.5704,-2.5322,-2.5016,-2.4702,-2.4306,-2.4156,-2.4126,-2.3759,-2.3595,-2.3535,-2.2942,-2.2239,-2.147,-2.0498,-1.9944,-1.9708]},{"header":{"parameterUnit":"m.s-1","parameterCategory":1,"la1":30.6,"la2":28.766,"lo1":-90.7593,"lo2":-88.6598,"dy":0.0162,"dx":0.0183,"nx":116,"ny":114,"refTime":"2023-08-02T00:00:00:Z","depth":0,"parameterNumber":3,"parameterNumberName":"V-component_of_WINDS"},"data":[0.0,0.0,0.0,0.0,0.0,0.0,0.0,0.0,0.0,0.0,0.0,0.0,0.0,0.0,0.0,0.0,0.0,0.0,0.0,0.0,0.0,0.0,0.0,0.0,0.0,0.0,0.0,0.0,0.0,0.0,0.0,0.0,0.0,0.0,0.0,0.0,0.0,0.0,0.0,0.0,0.0,0.0,0.0,0.0,0.0,0.0,0.0,0.0,0.0,0.0,0.0,0.0,0.0,0.0,0.0,0.0,0.0,0.0,0.0,0.0,0.0,0.0,0.0,0.0,0.0,0.0,0.0,0.0,0.0,0.0,0.0,0.0,0.0,0.0,0.0,0.0,0.0,0.0,0.0,0.0,0.0,0.0,0.0,0.0,0.0,0.0,0.0,0.0,0.0,0.0,0.0,0.0,0.0,0.0,0.0,0.0,0.0,0.0,0.0,0.0,0.0,0.0,0.0,0.0,0.0,0.0,0.0,0.0,0.0,0.0,0.0,0.0,0.0,0.0,0.0,0.0,0.0,0.0,0.0,0.0,0.0,0.0,0.0,0.0,0.0,0.0,0.0,0.0,0.0,0.0,0.0,0.0,0.0,0.0,0.0,0.0,0.0,0.0,0.0,0.0,0.0,0.0,0.0,0.0,0.0,0.0,0.0,0.0,0.0,0.0,0.0,0.0,0.0,0.0,0.0,0.0,0.0,0.0,0.0,0.0,0.0,0.0,0.0,0.0,0.0,0.0,0.0,0.0,0.0,0.0,0.0,0.0,0.0,0.0,0.0,0.0,0.0,0.0,0.0,0.0,0.0,0.0,0.0,0.0,0.0,0.0,0.0,0.0,0.0,0.0,0.0,0.0,0.0,0.0,0.0,0.0,0.0,0.0,0.0,0.0,0.0,0.0,0.0,0.0,0.0,0.0,0.0,0.0,0.0,0.0,0.0,0.0,0.0,0.0,0.0,0.0,0.0,0.0,0.0,0.0,0.0,0.0,0.0,0.0,0.0,0.0,0.0,0.0,0.0,0.0,0.0,0.0,0.0,0.0,0.0,0.0,0.0,0.0,0.0,0.0,0.0,0.0,0.0,0.0,0.0,0.0,0.0,0.0,0.0,0.0,0.0,0.0,0.0,0.0,0.0,0.0,0.0,0.0,0.0,0.0,0.0,0.0,0.0,0.0,0.0,0.0,0.0,0.0,0.0,0.0,0.0,0.0,0.0,0.0,0.0,0.0,0.0,0.0,0.0,0.0,0.0,0.0,0.0,0.0,0.0,0.0,0.0,0.0,0.0,0.0,0.0,0.0,0.0,0.0,0.0,0.0,0.0,0.0,0.0,0.0,0.0,0.0,0.0,0.0,0.0,0.0,0.0,0.0,0.0,0.0,0.0,0.0,0.0,0.0,0.0,0.0,0.0,0.0,0.0,0.0,0.0,0.0,0.0,0.0,0.0,0.0,0.0,0.0,0.0,0.0,0.0,0.0,0.0,0.0,0.0,0.0,0.0,0.0,0.0,0.0,0.0,0.0,0.0,0.0,0.0,0.0,0.0,0.0,0.0,0.0,0.0,0.0,0.0,0.0,0.0,0.0,0.0,0.0,0.0,0.0,0.0,0.0,0.0,0.0,0.0,0.0,0.0,0.0,0.0,0.0,0.0,0.0,0.0,0.0,0.0,0.0,0.0,0.0,0.0,0.0,0.0,0.0,0.0,0.0,0.0,0.0,0.0,0.0,0.0,0.0,0.0,0.0,0.0,0.0,0.0,0.0,0.0,0.0,0.0,0.0,0.0,0.0,0.0,0.0,0.0,0.0,0.0,0.0,0.0,0.0,0.0,0.0,0.0,0.0,0.0,0.0,0.0,0.0,0.0,0.0,0.0,0.0,0.0,0.0,0.0,0.0,0.0,0.0,0.0,0.0,0.0,0.0,0.0,0.0,0.0,0.0,0.0,0.0,0.0,0.0,0.0,0.0,0.0,0.0,0.0,0.0,0.0,0.0,0.0,0.0,0.0,0.0,0.0,0.0,0.0,0.0,0.0,0.0,0.0,0.0,0.0,0.0,0.0,0.0,0.0,0.0,0.0,0.0,0.0,0.0,0.0,0.0,0.0,0.0,0.0,0.0,0.0,0.0,0.0,0.0,0.0,0.0,0.0,0.0,0.0,0.0,0.0,0.0,0.0,0.0,0.0,0.0,0.0,0.0,0.0,0.0,0.0,0.0,0.0,0.0,0.0,0.0,0.0,0.0,0.0,0.0,0.0,0.0,0.0,0.0,0.0,0.0,0.0,0.0,0.0,0.0,0.0,0.0,0.0,0.0,0.0,0.0,0.0,0.0,0.0,0.0,0.0,0.0,0.0,0.0,0.0,0.0,0.0,0.0,0.0,0.0,0.0,0.0,0.0,0.0,0.0,0.0,0.0,0.0,0.0,0.0,0.0,0.0,0.0,0.0,0.0,0.0,0.0,0.0,0.0,0.0,0.0,0.0,0.0,0.0,0.0,0.0,0.0,0.0,0.0,0.0,0.0,0.0,0.0,0.0,0.0,0.0,0.0,0.0,0.0,0.0,0.0,0.0,0.0,0.0,0.0,0.0,0.0,0.0,0.0,0.0,0.0,0.0,0.0,0.0,0.0,0.0,0.0,0.0,0.0,0.0,0.0,0.0,0.0,0.0,0.0,0.0,0.0,0.0,0.0,0.0,0.0,0.0,0.0,0.0,0.0,0.0,0.0,0.0,0.0,0.0,0.0,0.0,0.0,0.0,0.0,0.0,0.0,0.0,0.0,0.0,0.0,0.0,0.0,0.0,0.0,0.0,0.0,0.0,0.0,0.0,0.0,0.0,0.0,0.0,0.0,0.0,0.0,0.0,0.0,0.0,0.0,0.0,0.0,0.0,0.0,0.0,0.0,0.0,0.0,0.0,0.0,0.0,0.0,0.0,0.0,0.0,0.0,0.0,0.0,0.0,0.0,0.0,0.0,0.0,0.0,0.0,0.0,0.0,0.0,0.0,0.0,0.0,0.0,0.0,0.0,0.0,0.0,0.0,0.0,0.0,0.0,0.0,0.0,0.0,0.0,0.0,0.0,0.0,0.0,0.0,0.0,0.0,0.0,0.0,0.0,0.0,0.0,0.0,0.0,0.0,0.0,0.0,0.0,0.0,0.0,0.0,0.0,0.0,0.0,0.0,0.0,0.0,0.0,0.0,0.0,0.0,0.0,0.0,0.0,0.0,0.0,0.0,0.0,0.0,0.0,0.0,0.0,0.0,0.0,0.0,0.0,0.0,0.0,0.0,0.0,0.0,0.0,0.0,0.0,0.0,0.0,0.0,0.0,0.0,0.0,0.0,0.0,0.0,0.0,0.0,0.0,0.0,0.0,0.0,0.0,0.0,0.0,0.0,0.0,0.0,0.0,0.0,0.0,0.0,0.0,0.0,0.0,0.0,0.0,0.0,0.0,0.0,0.0,0.0,0.0,0.0,0.0,0.0,0.0,0.0,0.0,0.0,0.0,0.0,0.0,0.0,0.0,0.0,0.0,0.0,0.0,0.0,0.0,0.0,0.0,0.0,0.0,0.0,0.0,0.0,0.0,0.0,0.0,0.0,0.0,0.0,0.0,0.0,0.0,0.0,0.0,0.0,0.0,0.0,0.0,0.0,0.0,0.0,0.0,0.0,0.0,0.0,0.0,0.0,0.0,0.0,0.0,0.0,0.0,0.0,0.0,0.0,0.0,0.0,0.0,0.0,0.0,0.0,0.0,0.0,0.0,0.0,0.0,0.0,0.0,0.0,0.0,0.0,0.0,0.0,0.0,0.0,0.0,0.0,0.0,0.0,0.0,0.0,0.0,0.0,0.0,0.0,0.0,0.0,0.0,0.0,0.0,0.0,0.0,0.0,0.0,0.0,0.0,0.0,0.0,0.0,0.0,0.0,0.0,0.0,0.0,0.0,0.0,0.0,0.0,0.0,0.0,0.0,0.0,0.0,0.0,0.0,0.0,0.0,0.0,0.0,0.0,0.0,0.0,0.0,0.0,0.0,0.0,0.0,0.0,0.0,0.0,0.0,0.0,0.0,0.0,0.0,0.0,0.0,0.0,0.0,0.0,0.0,0.0,0.0,0.0,0.0,0.0,0.0,0.0,0.0,0.0,0.0,0.0,0.0,0.0,0.0,0.0,0.0,0.0,0.0,0.0,0.0,0.0,0.0,0.0,0.0,0.0,0.0,0.0,0.0,0.0,0.0,0.0,0.0,0.0,0.0,0.0,0.0,0.0,0.0,0.0,0.0,0.0,0.0,0.0,0.0,0.0,0.0,0.0,0.0,0.0,0.0,0.0,0.0,0.0,0.0,0.0,0.0,0.0,0.0,0.0,0.0,0.0,0.0,0.0,0.0,0.0,0.0,0.0,0.0,0.0,0.0,0.0,0.0,0.0,0.0,0.0,0.0,0.0,0.0,0.0,0.0,0.0,0.0,0.0,0.0,0.0,0.0,0.0,0.0,0.0,0.0,0.0,0.0,0.0,0.0,0.0,0.0,0.0,0.0,0.0,0.0,0.0,0.0,0.0,0.0,0.0,0.0,0.0,0.0,0.0,0.0,0.0,0.0,0.0,0.0,0.0,0.0,0.0,0.0,0.0,0.0,0.0,0.0,0.0,0.0,0.0,0.0,0.0,0.0,0.0,0.0,0.0,0.0,0.0,0.0,0.0,0.0,0.0,0.0,0.0,0.0,0.0,0.0,0.0,0.0,0.0,0.0,0.0,0.0,0.0,0.0,0.0,0.0,0.0,0.0,0.0,0.0,0.0,0.0,0.0,0.0,0.0,0.0,0.0,0.0,0.0,0.0,0.0,0.0,0.0,0.0,0.0,0.0,0.0,0.0,0.0,0.0,0.0,0.0,0.0,0.0,0.0,0.0,0.0,0.0,0.0,0.0,0.0,0.0,0.0,0.0,0.0,0.0,0.0,0.0,0.0,0.0,0.0,0.0,0.0,0.0,0.0,0.0,0.0,0.0,0.0,0.0,0.0,0.0,0.0,0.0,0.0,0.0,0.0,0.0,0.0,0.0,0.0,0.0,0.0,0.0,0.0,0.0,0.0,0.0,0.0,0.0,0.0,0.0,0.0,0.0,0.0,0.0,0.0,0.0,0.0,0.0,0.0,0.0,0.0,0.0,0.0,0.0,0.0,0.0,0.0,0.0,0.0,0.0,0.0,0.0,0.0,0.0,0.0,0.0,0.0,0.0,0.0,0.0,0.0,0.0,0.0,0.0,0.0,0.0,0.0,0.0,0.0,0.0,0.0,0.0,0.0,0.0,0.0,0.0,0.0,0.0,0.0,0.0,0.0,0.0,0.0,0.0,0.0,0.0,0.0,0.0,0.0,0.0,0.0,0.0,0.0,0.0,0.0,0.0,0.0,0.0,0.0,0.0,0.0,0.0,0.0,0.0,0.0,0.0,0.0,0.0,0.0,0.0,0.0,0.0,0.0,0.0,0.0,0.0,0.0,0.0,0.0,0.0,0.0,0.0,0.0,0.0,0.0,0.0,0.0,0.0,0.0,0.0,0.0,0.0,0.0,0.0,0.0,0.0,0.0,0.0,0.0,0.0,0.0,0.0,0.0,0.0,0.0,0.0,0.0,0.0,0.0,0.0,0.0,0.0,0.0,0.0,0.0,0.0,0.0,0.0,0.0,0.0,0.0,0.0,0.0,0.0,0.0,0.0,0.0,0.0,0.0,0.0,0.0,0.0,0.0,0.0,0.0,0.0,0.0,0.0,0.0,0.0,0.0,0.0,0.0,0.0,0.0,0.0,0.0,0.0,0.0,0.0,0.0,0.0,0.0,0.0,0.0,0.0,0.0,0.0,0.0,0.0,0.0,0.0,0.0,0.0,0.0,0.0,0.0,0.0,0.0,0.0,0.0,0.0,0.0,0.0,0.0,0.0,0.0,0.0,0.0,0.0,0.0,0.0,0.0,0.0,0.0,0.0,0.0,0.0,0.0,0.0,0.0,0.0,0.0,0.0,0.0,0.0,0.0,0.0,0.0,0.0,0.0,0.0,0.0,0.0,0.0,0.0,0.0,0.0,0.0,0.0,0.0,0.0,0.0,0.0,0.0,0.0,0.0,0.0,-2.4044,0.0,0.0,0.0,0.0,0.0,0.0,0.0,0.0,0.0,0.0,0.0,0.0,0.0,0.0,0.0,0.0,0.0,0.0,0.0,0.0,0.0,0.0,0.0,0.0,0.0,0.0,0.0,0.0,0.0,0.0,0.0,0.0,0.0,0.0,0.0,0.0,0.0,0.0,0.0,0.0,0.0,0.0,0.0,0.0,0.0,0.0,0.0,0.0,0.0,0.0,0.0,0.0,0.0,0.0,0.0,0.0,0.0,0.0,0.0,0.0,0.0,0.0,0.0,0.0,0.0,0.0,0.0,0.0,0.0,0.0,0.0,0.0,0.0,0.0,0.0,0.0,0.0,0.0,0.0,0.0,0.0,0.0,0.0,0.0,0.0,0.0,0.0,0.0,0.0,0.0,0.0,0.0,0.0,0.0,0.0,0.0,0.0,0.0,0.0,0.0,0.0,0.0,0.0,0.0,0.0,0.0,0.0,0.0,0.0,0.0,0.0,0.0,0.0,0.0,0.0,0.0,-2.5809,0.0,0.0,0.0,0.0,0.0,0.0,0.0,0.0,0.0,0.0,0.0,0.0,0.0,0.0,0.0,0.0,0.0,0.0,0.0,0.0,0.0,0.0,0.0,0.0,0.0,0.0,0.0,0.0,0.0,0.0,0.0,0.0,0.0,0.0,0.0,0.0,0.0,0.0,0.0,0.0,0.0,0.0,0.0,0.0,0.0,0.0,0.0,0.0,0.0,0.0,0.0,0.0,0.0,0.0,0.0,0.0,0.0,0.0,0.0,0.0,0.0,0.0,0.0,0.0,0.0,0.0,0.0,0.0,0.0,0.0,0.0,0.0,0.0,0.0,0.0,0.0,0.0,0.0,0.0,0.0,0.0,0.0,0.0,0.0,0.0,0.0,0.0,0.0,0.0,0.0,0.0,0.0,0.0,0.0,0.0,0.0,0.0,0.0,0.0,0.0,0.0,0.0,0.0,0.0,0.0,0.0,0.0,0.0,-3.0193,-3.058,-3.0475,-3.0595,-3.0956,-3.1495,-3.0432,-2.9265,-2.8079,-2.7735,0.0,0.0,0.0,0.0,0.0,0.0,0.0,0.0,0.0,0.0,0.0,0.0,0.0,0.0,0.0,0.0,0.0,0.0,0.0,0.0,0.0,0.0,-1.9708,-1.9708,-1.9708,-1.9708,0.0,0.0,0.0,0.0,0.0,0.0,0.0,0.0,0.0,0.0,0.0,0.0,-2.6333,-2.7595,-2.9024,-3.0433,-2.7937,0.0,0.0,0.0,0.0,0.0,0.0,0.0,0.0,0.0,0.0,0.0,0.0,0.0,0.0,0.0,0.0,0.0,0.0,0.0,0.0,0.0,0.0,0.0,0.0,0.0,0.0,0.0,0.0,0.0,0.0,0.0,0.0,0.0,0.0,0.0,0.0,0.0,0.0,0.0,0.0,0.0,0.0,0.0,-2.4752,-2.6135,0.0,0.0,0.0,0.0,0.0,0.0,0.0,0.0,0.0,0.0,0.0,0.0,0.0,-3.0236,-3.1032,-3.1663,-3.1957,-3.2018,-3.3858,-3.4412,-3.3874,-3.4457,-3.507,-3.5684,-3.5519,0.0,-2.9983,-2.8304,0.0,0.0,0.0,0.0,0.0,0.0,0.0,0.0,0.0,0.0,0.0,0.0,0.0,0.0,0.0,0.0,0.0,0.0,0.0,0.0,0.0,-1.9708,-1.9839,-2.0228,-2.0946,-2.107,0.0,0.0,0.0,0.0,0.0,0.0,0.0,0.0,0.0,0.0,-2.5055,-2.6922,-2.9468,-2.9672,-3.0848,-3.2755,-3.1951,-3.1102,-3.021,-2.9275,0.0,0.0,0.0,0.0,0.0,0.0,0.0,0.0,0.0,0.0,0.0,0.0,0.0,0.0,0.0,0.0,0.0,0.0,0.0,0.0,0.0,0.0,0.0,0.0,0.0,0.0,0.0,0.0,0.0,0.0,0.0,0.0,0.0,0.0,0.0,0.0,0.0,0.0,0.0,-2.5096,-2.6337,-2.6298,-2.6909,-2.7165,0.0,0.0,0.0,0.0,0.0,0.0,0.0,0.0,0.0,-3.2332,-3.2639,-3.3212,-3.3995,-3.4938,-3.5366,-3.528,-3.6926,-3.7554,-3.7255,-3.7165,-3.7494,-3.8093,-3.733,-3.6222,-3.4756,-3.2452,-3.0791,-2.9699,0.0,0.0,0.0,0.0,-2.8353,-2.8412,0.0,0.0,0.0,0.0,0.0,0.0,0.0,0.0,0.0,0.0,0.0,0.0,-1.9708,-2.0007,-2.0408,-2.0897,-2.1879,-2.2009,-2.1017,0.0,0.0,0.0,0.0,0.0,0.0,0.0,0.0,-2.6228,-2.6654,-2.8682,-3.2212,-3.2023,-3.2951,-3.4819,-3.5596,-3.4605,-3.2312,-3.1558,-3.0257,-2.8602,0.0,0.0,0.0,0.0,0.0,0.0,0.0,0.0,0.0,0.0,0.0,0.0,0.0,0.0,0.0,0.0,0.0,0.0,0.0,0.0,0.0,0.0,0.0,0.0,0.0,0.0,0.0,0.0,0.0,0.0,0.0,0.0,0.0,0.0,0.0,0.0,0.0,-2.6805,-2.7634,-2.6327,-2.7831,-2.8518,0.0,0.0,0.0,0.0,0.0,0.0,-3.2036,-3.3602,-3.4785,-3.5448,-3.5759,-3.629,-3.7033,-3.791,-3.84,-3.8437,-3.9439,-3.9918,-3.9903,-3.9394,-3.9349,-3.9619,-3.8616,-3.8257,-3.8197,-3.5744,-3.3769,-3.2168,-3.1345,-3.0911,-3.0776,-3.0776,-3.0776,-3.0836,0.0,0.0,0.0,0.0,0.0,0.0,0.0,0.0,0.0,0.0,0.0,-1.9708,-1.9708,-2.0827,-2.1605,-2.165,-2.171,-2.1724,-2.165,-2.0513,0.0,0.0,0.0,0.0,0.0,0.0,0.0,-2.7691,-2.9416,-3.1389,-3.3621,-3.4743,-3.6019,-3.7452,-3.8103,-3.7351,-3.547,-3.4046,-3.3291,-3.2886,-3.073,0.0,0.0,0.0,0.0,0.0,0.0,0.0,0.0,0.0,0.0,0.0,0.0,0.0,0.0,0.0,0.0,0.0,0.0,0.0,0.0,0.0,0.0,0.0,0.0,0.0,0.0,0.0,0.0,0.0,0.0,0.0,0.0,0.0,0.0,0.0,0.0,0.0,0.0,-2.686,-2.9871,0.0,0.0,0.0,0.0,-3.2013,-3.2818,-3.3597,-3.4298,-3.6282,-3.7449,-3.7567,-3.8651,-3.9614,-4.0356,-4.0283,-4.0569,-4.1212,-4.1287,-4.128,-4.128,-4.125,-4.0905,-4.0352,-4.0277,-3.9544,-3.8242,-3.6267,-3.5011,-3.4234,-3.2916,-3.2004,-3.1451,-3.1451,-3.1451,-3.1451,0.0,0.0,0.0,0.0,0.0,0.0,0.0,0.0,0.0,-1.9708,-1.9708,-2.0037,-2.0887,-2.141,-2.2383,-2.4059,-2.4208,-2.4208,-2.4208,-2.2951,0.0,0.0,0.0,0.0,0.0,0.0,-2.7102,-3.0887,-3.1051,-3.2881,-3.6289,-3.6784,-3.8028,-3.9879,-4.1661,-4.1791,-4.0452,-3.6944,-3.4929,-3.3801,-3.1328,-3.0174,0.0,0.0,0.0,0.0,0.0,0.0,0.0,0.0,0.0,0.0,0.0,0.0,0.0,0.0,0.0,0.0,0.0,0.0,0.0,0.0,0.0,0.0,0.0,0.0,0.0,0.0,0.0,0.0,0.0,0.0,0.0,0.0,0.0,0.0,0.0,0.0,0.0,-3.1021,-3.3495,0.0,-3.3372,-3.4169,-3.4825,-3.4984,-3.7119,-3.8488,-3.8609,-4.0848,-4.2333,-4.2819,-4.268,-4.2686,-4.2855,-4.3239,-4.2952,-4.2051,-4.3092,-4.3252,-4.2626,-4.2207,-4.1916,-4.1647,-4.0771,-4.0367,-4.0202,-3.8661,-3.736,-3.6282,-3.5415,-3.4666,-3.4052,-3.4052,-3.3814,-3.3484,0.0,0.0,0.0,0.0,0.0,0.0,0.0,0.0,0.0,-1.9708,-1.9708,-2.0217,-2.1545,-2.2293,-2.3475,-2.5435,-2.5615,-2.542,-2.4956,-2.349,0.0,0.0,0.0,0.0,0.0,-2.6444,-2.9246,-3.3347,-3.3293,-3.506,-3.8504,-3.9039,-4.0054,-4.1444,-4.3552,-4.4158,-4.3439,-4.0162,-3.7954,-3.6456,-3.3676,-3.2619,-3.2367,0.0,0.0,0.0,0.0,0.0,0.0,0.0,0.0,0.0,0.0,0.0,0.0,0.0,0.0,0.0,0.0,0.0,0.0,0.0,0.0,0.0,0.0,0.0,0.0,0.0,0.0,0.0,0.0,0.0,0.0,0.0,0.0,0.0,0.0,0.0,-3.4269,-3.4523,-3.7195,-3.8514,-3.7239,-3.805,-3.868,-3.8808,-4.0992,-4.2367,-4.251,-4.4248,-4.5226,-4.5172,-4.4723,-4.4058,-4.3196,-4.4069,-4.3769,-4.241,-4.3685,-4.3966,-4.329,-4.2895,-4.2605,-4.2336,-4.1205,-4.0846,-4.0965,-3.9873,-3.8886,-3.8018,-3.7389,-3.6731,-3.6133,-3.5908,-3.5684,-3.5504,0.0,0.0,0.0,0.0,0.0,0.0,0.0,0.0,0.0,-1.9708,-1.9723,-2.0262,-2.1605,-2.3454,-2.4903,-2.5621,-2.563,-2.5046,-2.3774,-2.1814,0.0,0.0,0.0,0.0,-2.5407,-2.8801,-3.1961,-3.486,-3.6169,-3.7939,-4.011,-4.1468,-4.2125,-4.2221,-4.3684,-4.4327,-4.4278,-4.362,-4.26,-4.1153,-3.8125,-3.6411,-3.538,0.0,0.0,0.0,0.0,0.0,0.0,0.0,0.0,0.0,0.0,0.0,0.0,0.0,0.0,0.0,0.0,0.0,0.0,0.0,0.0,0.0,0.0,0.0,0.0,0.0,0.0,0.0,0.0,0.0,0.0,0.0,0.0,0.0,-3.1512,-3.5216,-3.777,-3.7134,-4.0865,-4.2648,-4.0519,-4.1605,-4.2724,-4.3428,-4.419,-4.4947,-4.5701,-4.6252,-4.5799,-4.4273,-4.4595,-4.3745,-4.1535,-4.2764,-4.3094,-4.244,-4.3054,-4.3369,-4.329,-4.329,-4.2985,-4.2396,-4.1737,-4.1055,-4.0442,-3.9738,-3.9454,-3.9373,-3.8691,-3.8018,-3.736,-3.6761,-3.6896,-3.73,0.0,0.0,0.0,0.0,0.0,0.0,0.0,0.0,-1.9151,-1.9648,-2.0124,-2.1111,-2.2877,-2.3977,-2.5457,-2.759,-2.5995,-2.5128,-2.5734,0.0,0.0,0.0,0.0,0.0,-2.8349,-3.0727,-3.3347,-3.6174,-3.6507,-3.7787,-3.9989,-4.151,-4.2785,-4.3866,-4.5958,-4.6889,-4.6872,-4.6672,-4.6398,-4.5662,-4.1042,-3.8731,-3.7804,0.0,0.0,0.0,0.0,0.0,0.0,0.0,0.0,0.0,0.0,0.0,0.0,0.0,0.0,0.0,0.0,0.0,0.0,0.0,0.0,0.0,0.0,0.0,0.0,0.0,0.0,0.0,0.0,0.0,0.0,0.0,0.0,-3.6282,-3.6096,-3.8497,-4.0832,-4.2296,-4.4468,-4.5635,-4.5026,-4.531,-4.56,-4.5628,-4.6464,-4.6993,-4.707,-4.7225,-4.7095,-4.6667,-4.5444,-4.4492,-4.3859,-4.4898,-4.462,-4.306,-4.4635,-4.4637,-4.329,-4.329,-4.32,-4.303,-4.241,-4.2252,-4.2363,-4.0786,-4.0412,-4.0726,-3.9589,-3.8721,-3.8093,-3.7928,-3.7389,-3.6641,0.0,0.0,0.0,0.0,0.0,0.0,0.0,0.0,-1.9256,-1.9648,-2.0034,-2.1036,-2.2996,-2.3565,-2.4657,-2.6752,-2.5232,-2.4298,-2.4522,0.0,0.0,0.0,0.0,-2.7113,-2.9924,-3.2146,-3.4562,-3.7169,-3.7731,-3.8994,-4.0943,-4.2733,-4.4227,-4.5474,-4.7051,-4.7987,-4.8376,-4.8376,-4.8189,-4.7622,-4.4595,-4.2567,-4.1052,-3.8456,-3.6772,-3.5605,-3.4561,-3.3766,-3.3089,-3.2222,0.0,0.0,0.0,0.0,0.0,0.0,0.0,0.0,0.0,0.0,0.0,0.0,0.0,0.0,0.0,0.0,0.0,0.0,0.0,0.0,0.0,0.0,0.0,0.0,-3.8176,-4.1035,-4.1965,-4.2929,-4.4147,-4.5788,-4.7276,-4.8054,-4.775,-4.7716,-4.7656,-4.7575,-4.8049,-4.8312,-4.8208,-4.8193,-4.7836,-4.702,-4.5957,-4.4865,-4.3808,-4.4589,-4.4288,-4.2925,-4.4341,-4.4403,-4.329,-4.329,-4.329,0.0,-4.2357,-4.2162,-4.2387,-4.0681,-4.0217,0.0,0.0,0.0,0.0,0.0,-3.7165,-3.6058,0.0,0.0,0.0,0.0,0.0,0.0,0.0,0.0,0.0,0.0,0.0,-2.0531,-2.2388,-2.2643,-2.3176,-2.438,-2.3819,-2.2877,0.0,0.0,0.0,-2.3077,-2.616,-2.8782,-3.0776,-3.3267,-3.557,-3.7661,-3.9042,-4.0505,-4.2078,-4.4098,-4.5611,-4.6671,-4.7236,-4.8045,-4.9001,-4.9001,-4.8629,-4.8007,-4.8007,-4.6701,-4.4429,-4.166,-4.0104,-3.9157,-3.7625,-3.6237,-3.5064,-3.4726,0.0,0.0,0.0,0.0,0.0,0.0,0.0,0.0,0.0,0.0,0.0,0.0,0.0,0.0,0.0,0.0,0.0,0.0,0.0,0.0,0.0,0.0,0.0,0.0,-4.2888,-4.5602,-4.7851,-4.7581,-4.7378,-4.797,-4.9255,-4.9796,-4.9069,-4.9001,-4.897,-4.8861,-4.8829,-4.8829,-4.8829,0.0,0.0,0.0,0.0,-4.4898,-4.2515,-4.3265,-4.325,-4.2515,-4.3163,-4.3409,-4.329,-4.329,-4.329,-4.323,-4.2028,-4.1527,-4.1384,-4.0068,-3.9439,-3.9245,-3.8631,-3.8392,-3.8302,-3.7569,-3.6582,-3.5684,0.0,0.0,0.0,0.0,0.0,0.0,0.0,0.0,0.0,-1.9573,-2.0168,-2.0857,-2.1784,-2.2388,-2.3002,-2.3729,-2.2742,-2.1739,0.0,0.0,-2.3377,-2.5743,-2.8467,-3.0872,-3.2871,-3.4478,-3.5795,-3.6813,-3.7654,-3.8854,-4.0399,-4.1929,-4.3747,-4.5794,-4.6497,-4.7611,-4.9001,-4.9001,-4.8934,-4.8798,-4.8798,-4.7462,-4.5365,-4.4164,-4.2861,-4.139,-3.9309,-3.8776,-3.8657,-3.6214,-3.5537,-3.5509,-3.4235,0.0,0.0,0.0,0.0,0.0,0.0,0.0,0.0,0.0,0.0,0.0,0.0,0.0,0.0,0.0,0.0,0.0,0.0,0.0,0.0,-4.1484,-4.4401,-4.7141,-4.9357,-4.9543,-4.9289,-4.8849,-4.956,-4.9796,-4.9069,-4.9001,-4.8688,-4.7933,-4.7868,-4.7868,-4.7868,-4.6451,-4.5778,-4.6173,-4.5468,-4.4433,-4.315,-4.48,-4.48,-4.315,0.0,0.0,-4.329,-4.329,-4.329,-4.3245,-4.2506,-4.2216,-4.2111,-4.0756,-3.9574,-3.8571,-3.8437,-3.8392,-3.8242,-3.709,-3.6507,-3.6237,0.0,0.0,0.0,0.0,0.0,0.0,0.0,0.0,0.0,0.0,-1.9989,-2.0453,-2.1141,-2.1186,-2.146,-2.2099,-2.1261,0.0,0.0,-2.2413,-2.4462,-2.747,-2.9789,-3.1943,-3.3979,-3.4981,-3.5863,-3.6615,-3.8074,-3.9396,-4.058,-4.2221,-4.3881,-4.548,-4.611,-4.7111,-4.8338,-4.8798,-4.9001,-4.9001,-4.9001,-4.8342,-4.7276,-4.6532,-4.5077,-4.3234,-4.1745,-4.0967,-4.0307,-3.8058,-3.7567,-3.7686,-3.6552,-3.5182,-3.3778,0.0,0.0,0.0,0.0,0.0,0.0,0.0,0.0,0.0,0.0,0.0,0.0,0.0,0.0,-3.512,0.0,0.0,-4.2787,-4.5703,-4.7784,-4.939,-5.0507,-5.0963,-5.0777,-4.9678,-4.9864,-4.9796,-4.9069,-4.9001,-4.8608,-4.7655,-4.8047,-4.7901,-4.6952,-4.6451,-4.5992,-4.5525,-4.5042,-4.4335,-4.329,-4.4251,-4.4251,-4.329,-4.381,-4.3771,-4.329,-4.3,-4.2851,-4.2791,-4.1803,-4.1422,-4.1309,-4.0307,-3.9514,-3.8841,-3.8153,-3.7719,-3.7315,-3.6357,-3.5998,-3.5953,0.0,0.0,0.0,0.0,0.0,0.0,0.0,0.0,0.0,0.0,-1.9513,-1.975,-2.0438,-2.0019,-1.9914,0.0,0.0,0.0,0.0,-2.3206,-2.548,-2.8816,-3.0838,-3.2781,-3.4668,-3.522,-3.5782,-3.6384,-3.8481,-3.9839,-4.0507,-4.2408,-4.3848,-4.4919,-4.5681,-4.6617,-4.7655,-4.8608,-4.9001,-4.9001,-4.9001,-4.9001,-4.8934,-4.8189,-4.6701,-4.4919,-4.3978,-4.2405,-4.0612,-3.9563,-3.892,-3.8531,-3.8379,-3.7719,-3.6586,-3.4455,-3.3626,0.0,0.0,0.0,0.0,0.0,0.0,0.0,0.0,0.0,-3.3423,-3.5926,-3.7455,-3.9148,-4.1796,-4.4012,-4.6464,-4.9576,-5.0608,-5.1048,-5.1168,-5.1471,-5.1268,-5.0202,-5.0084,-4.9796,-4.9069,-4.8829,-4.8401,-4.7655,-4.795,-4.7589,-4.6279,-4.6558,-4.626,-4.5116,-4.4887,-4.4412,-4.3591,-4.3591,-4.3472,-4.329,-4.329,-4.329,-4.3275,-4.2671,-4.2396,-4.2336,-4.0965,-4.0337,-4.0172,-3.9634,-3.9388,-3.9254,-3.7928,-3.7105,-3.6567,-3.5789,-3.5504,-3.5504,0.0,0.0,0.0,0.0,0.0,0.0,0.0,0.0,0.0,0.0,0.0,0.0,0.0,0.0,0.0,0.0,0.0,0.0,-2.2463,-2.4343,-2.6856,-3.0148,-3.2213,-3.3933,-3.5355,-3.5474,-3.5537,-3.5619,-3.7014,-3.7748,-3.7861,-3.9858,-4.1622,-4.3142,-4.4668,-4.6147,-4.7655,-4.8608,-4.9001,-4.9001,-4.9001,-4.9001,-4.8934,-4.8189,-4.7344,-4.6363,-4.4987,-4.2202,-3.9309,-3.9825,-3.8674,-3.7371,-3.9266,-3.8886,-3.7466,-3.5819,0.0,-3.3186,-3.2209,-3.2056,-3.2479,-3.3694,-3.3575,-3.4539,0.0,0.0,-3.914,-4.2736,-4.3616,-4.4242,-4.5855,-4.7445,-4.8849,-4.9915,-5.0152,-5.0439,-5.1116,-5.0152,-4.9543,-5.0033,-5.0084,-4.9796,-4.9069,-4.8257,-4.7688,-4.7622,-4.617,-4.5541,-4.6173,-4.4637,-4.4479,-4.6012,-4.5211,-4.4737,-4.4624,-4.4624,-4.4182,-4.329,-4.329,-4.329,-4.3275,-4.2671,-4.2396,-4.2336,-4.0965,-4.0068,-3.9529,-3.9454,-3.9388,-3.9254,-3.7928,-3.736,-3.7165,-3.5953,-3.5504,-3.5504,0.0,0.0,0.0,0.0,0.0,0.0,0.0,0.0,0.0,0.0,0.0,0.0,0.0,0.0,0.0,0.0,0.0,0.0,-2.3056,-2.4358,-2.6512,-2.9819,-3.1495,-3.2976,-3.4307,-3.4711,-3.51,-3.5504,-3.7263,-3.8152,-3.8198,-4.0226,-4.1725,-4.2782,-4.3901,-4.5273,-4.685,-4.7803,-4.8513,-4.9001,-4.9001,-4.8748,-4.8291,-4.7547,-4.572,-4.3403,-4.2364,-4.0409,0.0,0.0,-3.6829,-3.7049,-3.8379,-3.8091,-3.7043,-3.5921,-3.4878,0.0,-3.4184,-3.4218,0.0,0.0,-3.7212,-3.8836,-4.2185,-4.2591,-4.3064,-4.5923,-4.6515,-4.6972,-4.8443,-4.8866,-4.939,0.0,-5.0371,-5.005,-4.9949,-4.939,-4.8646,-4.7665,-4.7147,-4.7204,-4.8093,-4.7836,-4.7138,-4.6064,-4.6276,-4.5869,-4.4577,-4.432,-4.4282,-4.4517,-4.4128,-4.3927,-4.3927,-4.3927,-4.3708,-4.329,-4.329,-4.3135,-4.2746,-4.2126,-4.1407,-4.0621,-4.0068,-3.9679,-3.9388,-3.9388,-3.9185,-3.8766,-3.8197,-3.7524,-3.6761,-3.5848,-3.5504,-3.5504,0.0,0.0,0.0,0.0,0.0,0.0,0.0,0.0,0.0,0.0,0.0,0.0,0.0,0.0,0.0,0.0,0.0,0.0,0.0,-2.3693,-2.557,-2.8903,-3.0298,-3.1779,-3.3455,-3.4174,-3.4816,-3.5504,-3.726,-3.8089,-3.8119,-3.9944,-4.103,-4.1572,-4.2741,-4.3917,-4.5082,-4.6452,-4.74,-4.8049,-4.8064,-4.7784,-4.7111,-4.5551,-4.3149,-4.0527,-3.9986,-3.8176,0.0,0.0,-3.4523,-3.5131,-3.6299,-3.6282,-3.574,-3.5143,-3.4624,-3.4303,-3.4839,0.0,0.0,-3.8582,-4.0646,-4.2642,-4.4536,-4.5551,-4.6616,-4.846,-4.8663,-4.8703,-4.9356,-4.9215,-4.9142,-4.9594,-4.9721,-4.9458,-4.8528,-4.8392,-4.7716,-4.5923,-4.4577,-4.439,-4.5898,-4.6026,-4.5612,-4.4705,-4.5578,-4.5369,-4.3523,-4.4037,-4.4182,-4.3747,-4.3433,-4.3433,-4.3693,-4.3448,-4.329,-4.329,-4.315,-4.2821,-4.2366,-4.1527,-4.0487,-3.9388,-3.9388,-3.932,-3.9125,-3.9125,-3.8841,-3.8377,-3.8197,-3.7554,-3.6671,-3.6013,-3.5669,-3.5504,0.0,0.0,0.0,0.0,0.0,0.0,0.0,0.0,0.0,0.0,0.0,0.0,0.0,0.0,0.0,0.0,0.0,0.0,0.0,-2.2388,-2.4215,-2.751,-2.8948,-3.0851,-3.344,-3.4174,-3.4816,-3.5504,-3.6211,-3.6573,-3.6603,-3.7873,-3.8487,-3.8632,-4.0874,-4.1895,-4.2081,-4.4513,-4.5575,-4.5619,-4.5749,-4.5788,-4.5382,-4.1685,-3.98,-3.9056,-3.9039,0.0,0.0,0.0,-3.2053,-3.0683,-3.2848,-3.3525,0.0,-3.3474,-3.3457,-3.344,0.0,0.0,-3.7642,-4.1255,-4.3345,-4.5275,-4.8173,-4.939,-5.0152,-5.0947,-5.0541,-4.959,-4.8147,-4.8497,-4.8296,-4.6125,-4.7625,-4.8528,-4.7056,-4.6853,-4.6583,-4.5788,-4.3551,-4.2094,0.0,-4.2053,-4.2576,-4.4093,-4.3214,-4.2917,-4.3753,-4.3524,-4.3771,-4.4737,-4.381,-4.3786,-4.4737,-4.3771,-4.329,-4.329,-4.2701,-4.2425,-4.2351,-4.1025,-4.0053,-3.9388,-3.9388,-3.9035,-3.8422,-3.8422,-3.8407,-3.8332,-3.7689,-3.7419,-3.73,-3.6686,-3.6058,-3.5504,0.0,0.0,0.0,0.0,0.0,0.0,0.0,0.0,0.0,0.0,0.0,0.0,0.0,0.0,0.0,0.0,0.0,0.0,0.0,-2.1904,-2.2912,-2.4852,-2.6228,-2.7769,-2.9562,-3.0685,-3.1764,-3.2841,-3.3963,-3.4502,-3.4532,-3.5848,-3.6926,-3.7764,-3.853,-3.9734,-4.1236,-4.2589,-4.3532,-4.4051,-4.3631,-4.3436,-4.298,-3.871,-3.6045,-3.4358,0.0,0.0,0.0,-2.9852,-2.955,-2.9602,-3.0835,-3.0869,-3.0666,-3.1647,-3.2628,-3.4049,0.0,0.0,-4.1339,-4.5077,-4.7141,-4.8765,-5.0744,-5.1386,-5.1488,-5.1268,-4.9069,-4.6879,-4.5849,-4.5069,-4.4293,-4.3486,-4.5704,-4.6978,-4.5427,-4.6152,-4.5765,-4.3039,-4.1512,0.0,0.0,0.0,0.0,-4.1648,-4.2287,-4.2738,-4.2857,-4.3151,-4.3448,-4.3771,-4.3472,-4.3472,-4.381,-4.3091,-4.2686,-4.2671,-4.1594,-4.1055,-4.101,-3.9679,-3.92,-3.9328,-3.8467,-3.8197,-3.8392,-3.8392,-3.8138,-3.7808,-3.8482,-3.7943,-3.6821,-3.703,-3.6432,-3.5504,0.0,0.0,0.0,0.0,0.0,0.0,0.0,0.0,0.0,0.0,0.0,0.0,0.0,0.0,0.0,0.0,0.0,0.0,0.0,0.0,-2.156,-2.2862,-2.3969,-2.5285,-2.6866,-2.7974,-2.9041,-3.0118,-3.0971,-3.1404,-3.139,-3.2258,-3.311,-3.3918,-3.4397,-3.5437,-3.6877,-3.818,-3.9023,-3.9476,-3.9013,-3.8772,-3.8278,-3.4315,-3.1914,0.0,0.0,0.0,0.0,-2.7638,-2.7757,-2.8316,-2.9059,-2.9685,-3.0313,-3.0987,-3.3186,-3.6146,-3.9563,-4.2151,-4.4739,-4.8193,-4.9999,-5.1133,-5.208,-5.2097,-5.1488,-4.9949,-4.6887,-4.3911,-4.2125,-4.0613,-3.9616,-3.9498,-4.2097,-4.381,-4.2947,-4.4436,-4.4584,-4.1886,-4.0832,0.0,0.0,0.0,0.0,-3.9721,-4.1307,-4.2217,-4.2059,-4.2851,-4.329,-4.329,-4.329,-4.329,-4.329,-4.2925,-4.2476,-4.2036,-4.116,-4.0502,-4.0008,-3.8901,-3.8631,-3.9005,-3.8138,-3.7734,-3.7749,-3.8197,-3.7868,-3.7195,-3.8272,-3.7793,-3.6537,-3.6941,-3.6417,-3.5504,0.0,0.0,0.0,0.0,0.0,0.0,0.0,0.0,0.0,0.0,0.0,0.0,0.0,0.0,0.0,0.0,0.0,0.0,0.0,0.0,0.0,-2.1545,-2.2239,-2.3496,-2.5375,-2.6063,-2.6731,-2.739,-2.742,-2.745,-2.745,-2.748,-2.751,-2.76,-2.8888,-2.9472,-2.963,-3.1716,-3.2478,-3.2309,-3.2357,-3.2293,-3.1813,-2.8787,0.0,0.0,0.0,0.0,0.0,0.0,0.0,0.0,0.0,-2.9989,-3.231,-3.1698,-3.5148,-3.9512,-4.1119,-4.4231,-4.7716,-5.0608,-5.1826,-5.2283,-5.2198,-5.1539,-5.0084,-4.7124,-4.4045,-4.0802,0.0,0.0,-3.4725,-3.4541,-3.7224,-3.9495,-3.9985,-4.203,-4.3177,0.0,0.0,0.0,0.0,0.0,0.0,-3.8497,0.0,-4.1392,-4.1467,-4.2641,-4.329,-4.329,-4.329,-4.329,-4.329,-4.326,-4.2626,-4.1324,-4.1324,-4.0651,-3.9394,-3.8676,-3.8377,-3.8437,-3.8347,-3.7629,-3.6626,-3.7838,-3.7614,-3.6552,-3.7165,-3.703,-3.6492,-3.6492,-3.6073,-3.5504,0.0,0.0,0.0,0.0,0.0,0.0,0.0,0.0,0.0,0.0,0.0,0.0,0.0,0.0,0.0,0.0,0.0,0.0,0.0,0.0,0.0,0.0,0.0,0.0,0.0,0.0,0.0,0.0,-2.5121,-2.5352,-2.5367,-2.5884,-2.6378,-2.6881,-2.72,-2.7645,-2.8175,-2.9289,-2.9711,-2.9659,0.0,-2.9699,-2.9785,0.0,0.0,0.0,0.0,0.0,0.0,0.0,0.0,0.0,0.0,-3.1546,-3.4257,-3.5757,-3.8684,-4.2151,-4.5348,-4.8075,-5.0541,-5.2452,-5.2604,-5.2012,-5.0913,-4.8815,-4.6261,-4.325,-3.9343,-3.5864,0.0,0.0,0.0,-3.3507,-3.7082,0.0,-4.0443,-4.3101,0.0,0.0,0.0,-4.1811,-3.9952,-3.9826,0.0,0.0,-4.0367,-4.107,-4.2096,-4.2895,-4.329,-4.329,-4.329,-4.329,-4.329,-4.2851,-4.1953,-4.0651,-4.0651,-4.0217,-3.9343,-3.8197,-3.8212,-3.9065,-3.7599,-3.7045,-3.721,-3.7524,-3.7195,-3.6552,-3.7165,-3.703,-3.6492,-3.6492,-3.6073,-3.5504,0.0,0.0,0.0,0.0,0.0,0.0,0.0,0.0,0.0,0.0,0.0,0.0,0.0,0.0,0.0,0.0,0.0,0.0,0.0,0.0,0.0,0.0,0.0,0.0,0.0,0.0,0.0,0.0,0.0,0.0,-2.2473,-2.2832,-2.3206,-2.3565,-2.3879,-2.4326,-2.4878,-2.5589,0.0,0.0,0.0,0.0,0.0,0.0,0.0,0.0,0.0,0.0,0.0,0.0,0.0,-3.1833,-3.2747,-3.4827,-3.7398,-3.9665,0.0,-4.5365,-4.8122,-5.0507,-5.2334,-5.2858,-5.2401,-5.1099,-4.8308,-4.5872,-4.3081,-3.9073,-3.5296,0.0,0.0,0.0,0.0,0.0,0.0,0.0,-3.8238,-4.1103,-4.2687,0.0,-4.2429,0.0,-4.1401,-4.1287,-4.1384,0.0,-4.1429,-4.1617,-4.2366,-4.297,-4.329,-4.329,-4.329,-4.329,-4.329,-4.297,-4.2132,-4.0831,-4.0831,-4.0337,-3.9343,-3.8317,-3.8257,-3.8886,0.0,-3.6941,-3.703,-3.73,-3.6881,-3.6118,-3.6761,-3.6611,-3.6058,-3.6058,-3.5818,-3.5504,0.0,0.0,0.0,0.0,0.0,0.0,0.0,0.0,0.0,0.0,0.0,0.0,0.0,0.0,0.0,0.0,0.0,0.0,0.0,0.0,0.0,0.0,0.0,0.0,0.0,0.0,0.0,0.0,0.0,0.0,0.0,0.0,0.0,0.0,0.0,0.0,0.0,0.0,0.0,0.0,0.0,0.0,0.0,0.0,0.0,0.0,0.0,0.0,0.0,0.0,-3.1478,-3.3546,-3.6474,-3.9046,-4.1416,-4.3538,-4.6114,-4.8632,-5.0016,-5.1911,-5.3281,-5.2353,-5.1426,-4.9588,-4.5033,-4.261,-3.9833,-3.4633,0.0,-2.9506,-2.8535,0.0,-2.6277,-2.8728,0.0,-3.2606,-3.5257,-3.8106,-4.034,-4.1531,-4.2381,-4.3061,-4.3593,-4.2947,-4.2731,-4.3245,-4.2821,-4.253,-4.253,-4.303,-4.329,-4.329,-4.329,-4.329,-4.329,-4.32,-4.2596,-4.1422,-4.1294,-4.0606,-3.9394,-3.8706,-3.8437,-3.8482,-3.7734,0.0,-3.6776,-3.7135,-3.6641,-3.5684,-3.6163,-3.6013,-3.5504,-3.5504,-3.5504,-3.5504,0.0,0.0,0.0,0.0,0.0,0.0,0.0,0.0,0.0,0.0,-1.4627,-1.5041,0.0,0.0,0.0,0.0,0.0,0.0,0.0,0.0,0.0,0.0,0.0,0.0,0.0,0.0,0.0,0.0,0.0,0.0,0.0,0.0,0.0,0.0,0.0,0.0,0.0,0.0,0.0,0.0,0.0,0.0,0.0,0.0,0.0,0.0,0.0,0.0,0.0,0.0,-3.3643,-3.7347,-3.9698,-4.2828,-4.594,-4.7564,-4.9272,-5.0828,-5.1691,-5.2689,-5.3112,-5.1557,-4.9809,-4.7138,-4.2062,-3.8402,0.0,0.0,0.0,-2.6418,-2.5257,-2.5518,0.0,-2.8907,0.0,0.0,0.0,0.0,-4.0207,0.0,0.0,0.0,0.0,0.0,0.0,0.0,0.0,-4.3125,-4.3125,-4.323,-4.329,-4.329,-4.329,-4.329,-4.329,-4.2806,-4.2186,-4.1407,-4.0831,-4.0172,-3.9394,-3.8706,-3.8691,-3.917,-3.7943,0.0,-3.7988,-3.7045,-3.6522,-3.6267,-3.5848,-3.5609,-3.5504,-3.5504,-3.5504,-3.5504,0.0,0.0,0.0,0.0,0.0,0.0,0.0,0.0,-1.3917,-1.4165,-1.4374,-1.483,-1.5712,-1.5799,0.0,0.0,0.0,0.0,0.0,0.0,0.0,0.0,0.0,0.0,0.0,0.0,0.0,0.0,0.0,0.0,0.0,0.0,0.0,0.0,0.0,0.0,0.0,0.0,0.0,0.0,0.0,0.0,0.0,0.0,0.0,0.0,0.0,0.0,0.0,0.0,-3.2171,-3.6366,-4.089,-4.413,-4.6494,-4.7866,-4.9381,-5.0766,-5.1396,-5.2505,-5.3112,-5.148,-4.9171,-4.5948,-4.0729,0.0,0.0,0.0,0.0,-2.478,-2.3853,0.0,0.0,0.0,0.0,0.0,0.0,0.0,0.0,0.0,0.0,0.0,0.0,0.0,0.0,0.0,0.0,-4.297,-4.3275,-4.329,-4.329,-4.329,-4.329,-4.329,-4.329,-4.2686,-4.2066,-4.1407,-4.0711,-4.0053,-3.9373,-3.908,-3.911,-3.9328,-3.8362,0.0,-3.7808,-3.6866,-3.6282,-3.5953,-3.5624,-3.5504,-3.5504,-3.5504,-3.5504,-3.5504,0.0,0.0,0.0,0.0,0.0,0.0,0.0,-1.3301,-1.3514,-1.3983,-1.4374,-1.4922,-1.5712,-1.5799,-1.5799,0.0,0.0,0.0,0.0,0.0,0.0,0.0,0.0,0.0,0.0,0.0,0.0,0.0,0.0,0.0,0.0,0.0,0.0,0.0,0.0,0.0,0.0,0.0,0.0,0.0,0.0,0.0,0.0,0.0,0.0,0.0,0.0,0.0,0.0,0.0,-2.9632,-3.3233,-3.9075,-4.2881,-4.539,-4.6306,-4.8008,-4.9784,-5.0691,-5.1776,-5.2318,-5.0992,-4.8293,-4.4541,-3.913,-3.5145,0.0,0.0,-2.4413,-2.3615,-2.3002,0.0,0.0,0.0,0.0,0.0,0.0,0.0,0.0,0.0,0.0,0.0,0.0,0.0,0.0,0.0,0.0,0.0,-4.3105,-4.3215,-4.329,-4.329,-4.3155,-4.3135,-4.3135,-4.2342,-4.1722,-4.116,-4.0502,-3.9918,-3.9388,-3.9388,-3.9298,-3.9155,-3.8482,0.0,0.0,-3.6582,-3.6058,-3.5699,-3.5564,-3.5504,-3.5504,-3.5504,-3.5504,-3.5504,0.0,0.0,0.0,0.0,0.0,0.0,0.0,-1.3564,-1.3983,-1.439,-1.4799,-1.524,-1.5741,-1.5799,-1.5799,0.0,0.0,0.0,0.0,0.0,0.0,0.0,0.0,0.0,0.0,0.0,0.0,0.0,0.0,0.0,0.0,0.0,0.0,0.0,0.0,0.0,0.0,0.0,0.0,0.0,0.0,0.0,0.0,0.0,0.0,0.0,0.0,0.0,0.0,0.0,0.0,-2.8851,-3.1825,-3.775,-4.3574,-4.332,0.0,0.0,-5.0539,-5.0478,-4.9641,-4.9069,-4.6125,-4.1773,-3.566,0.0,0.0,-2.3183,-2.2298,-2.2336,-2.1916,-2.2152,0.0,0.0,0.0,0.0,0.0,0.0,0.0,0.0,0.0,0.0,0.0,0.0,0.0,0.0,0.0,0.0,-4.2515,-4.3015,-4.329,-4.329,-4.2761,-4.2485,-4.2485,-4.1205,-4.0546,-4.0487,-3.9828,-3.9448,-3.9388,-3.9388,-3.908,-3.8437,-3.7778,0.0,0.0,-3.6103,-3.5908,-3.6342,-3.5744,-3.5504,-3.5504,-3.5504,-3.5504,-3.5504,0.0,0.0,0.0,0.0,0.0,0.0,-1.2689,-1.3395,-1.3967,-1.4117,-1.4705,-1.5165,-1.5359,-1.5624,-1.5799,0.0,0.0,0.0,0.0,0.0,0.0,0.0,0.0,0.0,0.0,0.0,0.0,0.0,0.0,0.0,0.0,0.0,0.0,0.0,0.0,0.0,0.0,0.0,0.0,0.0,0.0,0.0,0.0,0.0,0.0,0.0,0.0,0.0,0.0,0.0,0.0,0.0,-2.538,-2.941,0.0,0.0,-4.1131,-4.3842,-4.6749,-4.8161,-4.8679,-4.8177,-4.4578,-4.0246,-3.661,0.0,0.0,-2.3602,-2.23,-2.155,-2.067,-2.128,-2.2229,0.0,0.0,0.0,0.0,0.0,0.0,0.0,0.0,0.0,0.0,0.0,0.0,0.0,0.0,0.0,-4.1841,-4.2761,-4.329,-4.329,-4.2701,-4.2396,-4.2396,-4.1055,-4.0397,-4.0382,-3.9738,-3.9388,-3.9388,-3.9388,-3.9035,-3.8377,-3.8108,0.0,0.0,-3.6312,-3.6013,-3.5863,-3.5609,-3.5504,-3.5504,-3.5504,-3.5504,-3.5504,0.0,0.0,0.0,0.0,0.0,-1.2011,-1.235,-1.2996,-1.3618,-1.4022,-1.4564,-1.5028,-1.527,-1.5595,-1.5799,-1.5799,0.0,0.0,0.0,0.0,0.0,0.0,0.0,0.0,0.0,0.0,0.0,0.0,0.0,0.0,0.0,0.0,0.0,0.0,0.0,0.0,0.0,0.0,0.0,0.0,0.0,0.0,0.0,0.0,0.0,0.0,0.0,0.0,0.0,0.0,0.0,0.0,0.0,0.0,0.0,0.0,-3.6287,-3.9562,-4.235,-4.4819,-4.6542,-4.6108,-4.2443,-3.8373,0.0,0.0,-2.6143,-2.3576,-2.2093,-2.099,-2.0152,-2.0917,-2.1754,-2.1949,0.0,-2.4597,0.0,0.0,0.0,0.0,0.0,0.0,0.0,0.0,0.0,0.0,0.0,0.0,0.0,-4.2551,-4.2955,-4.2761,-4.2117,-4.1826,-4.1826,-4.0666,-4.0113,-4.0113,-3.9649,-3.9388,-3.9373,-3.9215,-3.8751,-3.8078,-3.7913,0.0,0.0,-3.6193,-3.5923,-3.5504,-3.5504,-3.5504,-3.5504,-3.5504,-3.5504,-3.5504,0.0,0.0,0.0,0.0,0.0,0.0,0.0,-1.2416,-1.2916,-1.4308,-1.4501,-1.483,-1.5712,-1.5799,-1.5799,-1.5799,0.0,0.0,0.0,0.0,0.0,0.0,0.0,0.0,0.0,0.0,-1.7697,-1.7712,-1.9031,-1.9016,0.0,0.0,0.0,0.0,0.0,0.0,0.0,0.0,0.0,0.0,0.0,0.0,0.0,0.0,0.0,0.0,0.0,0.0,0.0,0.0,0.0,0.0,0.0,0.0,0.0,0.0,-3.1048,-3.6221,-3.7922,-4.0419,-4.2497,-4.2317,-3.9361,-3.5703,0.0,0.0,-2.4948,-2.228,-2.1171,-2.0688,-2.0688,-2.1246,-2.1924,-2.2583,-2.3759,0.0,0.0,0.0,0.0,0.0,0.0,0.0,0.0,0.0,0.0,0.0,0.0,0.0,0.0,-4.2396,-4.2111,-4.1452,-4.0771,-4.0427,-4.0427,-3.9768,-3.9388,-3.9388,-3.9388,-3.9388,-3.9394,-3.8706,-3.8033,0.0,0.0,0.0,0.0,-3.5519,-3.5519,-3.5504,-3.5504,-3.5504,-3.5504,-3.5504,-3.5504,-3.5504,0.0,0.0,0.0,0.0,0.0,0.0,0.0,-1.2483,-1.3544,-1.3921,-1.4514,-1.5134,-1.5741,-1.5799,-1.5799,-1.5799,0.0,0.0,0.0,0.0,0.0,0.0,0.0,0.0,0.0,0.0,-1.7458,-1.8371,-1.8807,-1.9031,-1.9061,-1.8822,0.0,0.0,0.0,0.0,0.0,0.0,0.0,0.0,0.0,0.0,0.0,0.0,0.0,0.0,0.0,0.0,0.0,0.0,0.0,0.0,0.0,0.0,0.0,-2.1955,0.0,0.0,-3.2347,-3.4017,-3.4988,-3.5074,-3.2753,-3.0079,-2.8748,-2.5623,-2.2611,-2.1285,-2.0483,-2.0154,-2.0632,-2.1261,-2.2054,-2.3131,-2.4036,0.0,0.0,0.0,0.0,0.0,0.0,0.0,0.0,0.0,0.0,0.0,0.0,0.0,0.0,-4.1265,-4.113,-4.1407,-4.0741,-4.0397,-4.0397,-3.9753,-3.9388,-3.9388,-3.9388,-3.9388,-3.9394,-3.8706,-3.8033,0.0,0.0,0.0,0.0,-3.5504,-3.5504,-3.5504,-3.5504,-3.5504,-3.5504,-3.5504,-3.5504,-3.5504,0.0,0.0,0.0,0.0,0.0,0.0,0.0,-1.184,-1.2841,-1.3271,-1.4051,-1.4789,-1.5367,-1.5649,-1.5799,-1.5799,0.0,0.0,0.0,0.0,0.0,0.0,0.0,0.0,0.0,-1.6577,-1.7115,-1.7953,-1.8632,-1.9049,-1.9201,-1.9034,-1.9002,-1.9029,-1.9358,0.0,0.0,0.0,0.0,0.0,0.0,0.0,-2.1628,0.0,0.0,0.0,0.0,0.0,0.0,0.0,0.0,0.0,0.0,0.0,0.0,0.0,-2.1763,0.0,0.0,-2.9404,-3.0711,-3.0314,-2.8525,0.0,0.0,-2.3594,-2.1201,-2.0778,-2.0168,-1.9884,-2.0569,-2.1261,-2.2039,-2.3086,-2.4007,0.0,0.0,0.0,0.0,0.0,0.0,0.0,0.0,0.0,0.0,0.0,0.0,0.0,0.0,-4.0756,-4.0472,-4.0636,-4.0247,-4.0023,-4.0023,-3.9634,-3.9388,-3.9388,-3.9155,-3.9035,-3.899,-3.8078,-3.7449,0.0,0.0,0.0,0.0,-3.5504,-3.5504,-3.5504,-3.5504,-3.5504,-3.5504,-3.5504,-3.5504,-3.5504,0.0,0.0,0.0,0.0,0.0,0.0,0.0,0.0,-1.1215,-1.2458,-1.3246,-1.3955,-1.4613,-1.5365,-1.5784,-1.5739,0.0,0.0,0.0,0.0,0.0,0.0,0.0,0.0,0.0,-1.6398,-1.6741,-1.6802,-1.856,-1.9107,-1.8563,-1.9154,-1.9108,-1.8516,-1.8718,-1.9239,-2.0078,-2.1075,-2.1007,-2.0331,-2.1165,-2.1521,0.0,0.0,0.0,0.0,0.0,0.0,0.0,0.0,0.0,0.0,0.0,0.0,0.0,0.0,0.0,0.0,0.0,0.0,0.0,0.0,0.0,0.0,0.0,-2.2362,0.0,-2.0628,-2.0168,-1.9974,-2.0643,-2.1321,-2.1994,-2.2718,-2.3909,0.0,0.0,0.0,0.0,0.0,0.0,0.0,0.0,0.0,0.0,0.0,0.0,0.0,0.0,-4.0726,-4.0098,-3.9403,-3.9328,-3.9313,-3.9313,-3.9313,-3.9284,-3.9275,-3.8631,-3.8317,-3.8287,-3.7045,-3.6492,0.0,0.0,0.0,0.0,-3.5504,-3.5504,-3.5504,-3.5504,-3.5504,-3.5504,-3.5504,-3.5504,-3.5504,0.0,0.0,0.0,0.0,0.0,0.0,0.0,0.0,0.0,0.0,-1.287,-1.3699,-1.3668,-1.4941,-1.5589,0.0,0.0,0.0,0.0,0.0,0.0,0.0,0.0,0.0,0.0,-1.6518,-1.7075,-1.7854,-1.8888,-1.9557,-1.985,-1.9862,-1.9779,-1.9636,-1.9671,-1.9893,-2.0249,-2.0505,-2.0313,-1.9892,-2.0399,-2.083,0.0,0.0,0.0,0.0,-2.1613,-2.1197,0.0,0.0,0.0,0.0,0.0,0.0,0.0,0.0,-1.9764,-1.9828,-2.0456,0.0,-2.1985,-2.1634,-2.1325,-2.1055,0.0,-2.0382,-1.9947,-1.9947,0.0,0.0,-2.1335,-2.1994,-2.2853,-2.3962,-2.527,0.0,0.0,0.0,0.0,0.0,0.0,0.0,0.0,0.0,0.0,0.0,0.0,0.0,0.0,-4.0487,-4.0098,-3.9403,-3.8901,-3.8631,-3.8631,-3.8631,-3.8377,-3.7883,-3.7719,-3.7644,-3.7614,-3.6836,-3.6492,0.0,0.0,0.0,-3.5504,-3.5504,-3.5504,-3.5504,-3.5504,-3.5504,-3.5504,-3.5504,-3.5504,-3.5504,0.0,0.0,0.0,0.0,0.0,0.0,0.0,0.0,0.0,0.0,0.0,0.0,0.0,0.0,0.0,0.0,0.0,0.0,0.0,0.0,0.0,0.0,0.0,-1.587,-1.6067,-1.6202,-1.6834,-1.7973,-1.8811,-1.9704,-2.0633,-2.07,-2.0722,-2.0722,-2.0722,-2.0464,-2.0054,-2.0649,-2.055,-2.0017,-2.0448,0.0,0.0,0.0,0.0,0.0,-2.1613,-2.1086,0.0,-2.1243,-2.0894,-2.0054,0.0,0.0,0.0,0.0,-1.9708,-1.9708,-1.9708,-1.9708,-1.9708,-1.9708,-1.9708,-1.9708,-1.9708,0.0,0.0,0.0,0.0,0.0,0.0,0.0,0.0,0.0,0.0,0.0,0.0,0.0,0.0,0.0,0.0,0.0,0.0,0.0,0.0,0.0,0.0,0.0,0.0,-4.0113,-3.9783,-3.9388,-3.8751,-3.8392,-3.8392,-3.8093,-3.7764,-3.7404,-3.712,-3.6985,-3.6971,-3.6327,-3.6028,0.0,0.0,0.0,-3.5504,-3.5504,-3.5504,-3.5504,-3.5504,-3.5504,-3.5504,-3.5504,-3.5504,-3.5504,0.0,0.0,0.0,0.0,0.0,0.0,0.0,0.0,0.0,0.0,0.0,0.0,0.0,0.0,0.0,0.0,0.0,0.0,0.0,0.0,0.0,0.0,0.0,-1.5827,-1.5885,-1.5827,-1.6458,-1.7779,-1.8541,-1.9629,-2.1023,-2.1414,-2.1567,-2.1506,-2.1506,-2.083,-1.9764,-2.0927,-2.0943,-2.0229,-2.0649,0.0,0.0,0.0,0.0,0.0,0.0,0.0,0.0,-2.1086,-2.0699,-1.9764,-2.0176,0.0,0.0,0.0,0.0,0.0,-1.9708,-1.9708,-1.9708,-1.9708,-1.9708,-1.9708,-1.9708,0.0,0.0,0.0,0.0,0.0,0.0,0.0,0.0,0.0,0.0,0.0,0.0,0.0,0.0,0.0,0.0,0.0,0.0,0.0,0.0,0.0,0.0,0.0,0.0,-3.9469,-3.9074,-3.9074,-3.8452,-3.8108,-3.8108,-3.7539,-3.7225,-3.7105,-3.6582,-3.6342,-3.6312,-3.5759,-3.5504,-3.5504,0.0,0.0,-3.5504,-3.5504,-3.5504,-3.5504,-3.5504,-3.5504,-3.5504,-3.5504,-3.5504,-3.5489,0.0,0.0,0.0,0.0,0.0,0.0,0.0,0.0,0.0,0.0,0.0,0.0,0.0,0.0,0.0,0.0,0.0,0.0,0.0,0.0,0.0,0.0,-1.5799,-1.5926,-1.6219,-1.5956,-1.6562,-1.8115,-1.8376,-1.9342,-2.1023,-2.1414,-2.1414,-2.1086,-2.1086,-2.0565,-1.9744,-2.0263,-2.0227,-1.98,-1.9871,0.0,0.0,0.0,0.0,0.0,0.0,0.0,0.0,-2.078,-2.0465,-1.9764,-2.0176,0.0,0.0,0.0,0.0,0.0,-1.9708,-1.9708,-1.9708,-1.9708,-1.9708,-1.9708,-1.9708,0.0,0.0,0.0,0.0,0.0,0.0,0.0,0.0,0.0,0.0,0.0,0.0,0.0,0.0,0.0,0.0,0.0,0.0,0.0,0.0,0.0,0.0,0.0,0.0,-3.8078,-3.7719,-3.7719,-3.7105,-3.6776,-3.6776,-3.6671,-3.6342,-3.5789,-3.5699,-3.5654,-3.5654,-3.5549,-3.5504,-3.5504,0.0,-3.5504,-3.5504,-3.5504,-3.5504,-3.5504,-3.5504,-3.5504,-3.5504,-3.5504,-3.5504,-3.5429,0.0,0.0,0.0,0.0,0.0,0.0,0.0,0.0,0.0,0.0,0.0,0.0,0.0,0.0,0.0,0.0,0.0,0.0,0.0,0.0,0.0,-1.5799,-1.5799,-1.6006,-1.6499,-1.6368,-1.6999,-1.8472,-1.8999,-1.9736,-2.0633,-2.1071,-2.1039,-2.0633,-2.0878,-2.0531,-1.9744,-2.0124,-2.0177,-2.0017,0.0,0.0,0.0,0.0,0.0,0.0,0.0,0.0,0.0,0.0,-2.021,-1.9729,-1.9927,0.0,0.0,0.0,0.0,0.0,-1.9708,-1.9708,-1.9798,-2.0154,-2.0243,-2.0333,-2.0711,0.0,0.0,0.0,0.0,0.0,0.0,0.0,0.0,0.0,0.0,0.0,0.0,0.0,0.0,0.0,0.0,0.0,0.0,0.0,0.0,0.0,0.0,0.0,0.0,0.0,-3.7404,-3.7404,-3.6806,-3.6492,-3.6492,-3.6133,-3.5804,-3.5504,-3.5504,-3.5504,-3.5504,-3.5504,-3.5504,-3.5504,0.0,-3.5504,-3.5504,-3.5504,-3.5504,-3.5504,-3.5504,-3.5504,-3.5459,-3.5085,-3.4726,-3.4322,0.0,0.0,0.0,0.0,0.0,0.0,0.0,0.0,0.0,0.0,0.0,0.0,0.0,0.0,0.0,0.0,0.0,0.0,0.0,0.0,-1.5799,-1.5799,-1.5799,-1.6069,-1.6681,-1.6696,-1.7354,-1.8702,-1.9371,-1.9908,-2.0314,-2.0682,-2.0633,-2.0314,-2.0582,-2.0328,-1.9711,-2.0035,-2.0158,-2.0141,0.0,0.0,0.0,0.0,0.0,0.0,0.0,0.0,0.0,0.0,0.0,0.0,0.0,0.0,0.0,-1.9708,-1.9708,-1.9708,-1.9708,-1.9708,-1.9872,-2.0524,0.0,-2.0767,-2.1889,0.0,0.0,0.0,0.0,0.0,0.0,0.0,0.0,0.0,0.0,0.0,0.0,0.0,0.0,0.0,0.0,0.0,0.0,0.0,0.0,0.0,0.0,0.0,0.0,0.0,-3.6971,-3.6971,-3.6507,-3.6252,-3.6252,-3.5759,-3.5504,-3.5504,-3.5504,-3.5504,-3.5504,-3.5504,-3.5504,-3.5504,-3.5504,-3.5504,-3.5504,-3.5504,-3.5415,-3.528,-3.5444,-3.54,-3.5175,-3.4502,-3.3829,-3.3185,0.0,0.0,0.0,0.0,0.0,0.0,0.0,0.0,0.0,0.0,0.0,0.0,0.0,0.0,0.0,0.0,0.0,0.0,0.0,0.0,-1.5799,-1.5799,-1.5799,-1.6069,-1.6681,-1.6696,-1.7354,-1.8702,-1.8771,-1.9311,-2.0297,-2.0331,-2.0331,-2.0297,-1.9945,-1.9747,-1.9708,-1.9729,-1.9729,-1.9729,-1.9711,0.0,0.0,0.0,0.0,0.0,0.0,0.0,0.0,0.0,0.0,0.0,0.0,0.0,-1.9708,-1.9708,-1.9708,-1.9708,-1.9708,-1.9708,-1.9872,-2.0524,-2.0228,0.0,-2.2892,-2.3932,0.0,-2.6791,0.0,0.0,0.0,0.0,0.0,0.0,0.0,0.0,0.0,0.0,0.0,0.0,0.0,0.0,0.0,0.0,0.0,0.0,0.0,0.0,0.0,0.0,0.0,-3.5654,-3.5594,-3.5579,-3.5579,-3.5534,-3.5504,-3.5504,-3.5504,-3.5504,-3.5504,-3.5504,-3.5504,-3.5504,-3.5504,-3.5504,-3.5504,-3.5504,-3.513,-3.4638,-3.525,-3.5115,-3.4503,-3.3814,-3.3155,-3.2587,0.0,0.0,0.0,0.0,0.0,0.0,0.0,0.0,0.0,0.0,0.0,0.0,0.0,0.0,0.0,0.0,0.0,0.0,0.0,0.0,-1.5799,-1.5799,-1.5799,-1.6069,-1.6681,-1.6696,-1.7354,-1.8702,-1.9106,-1.9652,-2.0297,-2.0037,-1.9927,-1.9927,-1.9764,-1.9708,-1.9708,-1.9708,-1.9708,-1.9708,-1.9708,-1.9708,0.0,0.0,0.0,0.0,0.0,0.0,0.0,0.0,-1.9708,-1.9708,-1.9708,-1.9708,-1.9708,-1.9708,-1.9708,-1.9708,-1.9708,-1.9708,-1.9872,-2.0524,-2.0494,0.0,0.0,-2.4739,-2.557,-2.6746,-2.8472,0.0,0.0,0.0,0.0,0.0,0.0,0.0,0.0,0.0,0.0,0.0,0.0,0.0,0.0,0.0,0.0,0.0,0.0,0.0,0.0,0.0,-3.5504,-3.5504,-3.5504,-3.5295,-3.4861,-3.5295,-3.5295,-3.4861,-3.5295,-3.5504,-3.5504,-3.5504,-3.5504,-3.5489,-3.5055,-3.4861,-3.4863,-3.4427,-3.4098,-3.3888,-3.4158,-3.3844,-3.323,-3.2976,-3.2437,-3.1869,0.0,0.0,0.0,0.0,0.0,0.0,0.0,0.0,0.0,0.0,0.0,0.0,0.0,0.0,0.0,0.0,0.0,0.0,-1.4766,-1.5439,-1.5799,-1.5799,-1.5799,-1.5994,-1.6413,-1.6428,-1.7056,-1.8371,-1.9046,-1.9642,-2.0106,-1.9836,-1.9708,-1.9708,-1.9708,-1.9708,-1.9708,-1.9708,-1.9708,-1.9708,-1.9708,-1.9708,0.0,0.0,0.0,0.0,0.0,0.0,0.0,0.0,-1.9708,-1.9708,-1.9708,-1.9708,-1.9708,-1.9708,-1.9708,-1.9708,-1.9708,-1.9708,-1.9813,0.0,0.0,0.0,-2.4321,-2.5756,-2.6916,-2.8203,0.0,0.0,0.0,0.0,0.0,0.0,0.0,0.0,0.0,0.0,0.0,0.0,0.0,0.0,0.0,0.0,0.0,0.0,0.0,0.0,0.0,-3.5385,-3.54,-3.519,-3.5175,-3.4861,-3.4204,-3.4637,-3.4637,-3.4204,-3.4651,-3.4981,-3.5175,-3.4966,-3.4876,-3.4846,-3.4367,-3.4158,-3.4159,-3.3679,-3.3499,-3.3455,-3.3036,-3.2721,-3.2452,-3.2243,-3.1884,-3.1511,0.0,0.0,0.0,0.0,0.0,0.0,0.0,0.0,0.0,0.0,0.0,0.0,0.0,0.0,0.0,0.0,0.0,0.0,-1.4766,-1.5439,-1.5799,-1.5799,-1.5799,-1.5799,-1.5799,-1.5814,-1.6428,-1.7713,-1.8371,-1.9046,-1.9708,-1.9708,-1.9708,-1.9708,-1.9708,-1.9708,-1.9708,-1.9708,-1.9708,-1.9708,-1.9708,-1.9708,-1.9708,0.0,0.0,0.0,0.0,0.0,0.0,0.0,-1.9708,-1.9708,-1.9708,-1.9708,-1.9708,-1.9708,-1.9708,-1.9708,-1.9708,-1.9708,0.0,0.0,0.0,0.0,-2.5016,-2.7156,-2.9325,-3.1973,0.0,0.0,0.0,0.0,0.0,0.0,0.0,0.0,0.0,0.0,0.0,0.0,0.0,0.0,0.0,0.0,0.0,0.0,0.0,0.0,0.0,-3.5115,-3.5175,-3.4518,-3.4503,-3.4174,-3.3499,-3.3499,-3.3499,-3.3484,-3.3484,-3.3829,-3.4474,-3.3784,-3.3499,-3.3499,-3.3484,-3.3484,-3.3484,-3.3484,-3.3469,-3.335,-3.2004,-3.1899,-3.2392,-3.175,-3.1511,-3.1511,0.0,0.0,0.0,0.0,0.0,0.0,0.0,0.0,0.0,0.0,0.0,0.0,0.0,0.0,0.0,0.0,0.0,0.0,-1.5455,-1.5694,-1.5799,-1.5799,-1.5799,-1.5799,-1.5799,-1.6219,-1.6861,-1.7713,-1.8852,-1.9513,-1.9708,-1.9708,-1.9708,-1.9708,-1.9708,-1.9708,-1.9708,-1.9708,-1.9708,-1.9708,-1.9708,-1.9708,-1.9708,0.0,0.0,0.0,0.0,0.0,0.0,0.0,0.0,0.0,-1.9708,-1.9708,-1.9708,-1.9708,-1.9708,-1.9708,-1.9708,0.0,0.0,0.0,0.0,0.0,0.0,-2.6437,0.0,0.0,0.0,0.0,0.0,0.0,0.0,0.0,0.0,0.0,0.0,0.0,0.0,0.0,0.0,0.0,0.0,0.0,0.0,0.0,0.0,0.0,0.0,-3.3978,-3.3993,-3.3784,-3.3784,-3.3469,-3.2811,-3.326,-3.326,-3.2811,-3.2811,-3.3155,-3.3784,-3.3589,-3.3499,-3.3469,-3.3006,-3.2811,-3.2766,-3.2273,-3.2079,-3.2049,-3.166,-3.163,-3.1765,-3.157,-3.1511,-3.1436,0.0,0.0,0.0,0.0,0.0,0.0,0.0,0.0,0.0,0.0,0.0,0.0,0.0,0.0,0.0,0.0,0.0,0.0,0.0,-1.5799,-1.5799,-1.5799,-1.5799,-1.5904,-1.6144,-1.6756,-1.7428,-1.8102,-1.8912,-1.9453,-1.9708,-1.9708,-1.9708,-1.9708,-1.9708,-1.9708,-1.9708,-1.9708,-1.9708,-1.9708,-1.9708,-1.9708,-1.9708,0.0,0.0,0.0,0.0,0.0,0.0,0.0,0.0,0.0,-1.9708,-1.9708,-1.9708,-1.9708,-1.9708,-1.9708,-1.9708,0.0,0.0,0.0,0.0,0.0,0.0,0.0,0.0,0.0,0.0,0.0,0.0,0.0,0.0,0.0,0.0,0.0,0.0,0.0,0.0,0.0,0.0,0.0,0.0,0.0,0.0,0.0,0.0,0.0,0.0,-3.335,-3.338,-3.311,-3.3095,-3.2781,-3.2108,-3.2243,-3.2243,-3.2093,-3.1599,-3.1689,-3.2317,-3.2587,-3.2572,-3.2287,-3.1884,-3.1719,-3.1704,-3.1555,-3.1346,-3.1122,-3.1406,-3.1331,-3.1137,-3.1406,-3.1331,-3.1032,0.0,0.0,0.0,0.0,0.0,0.0,0.0,0.0,0.0,0.0,0.0,0.0,0.0,0.0,0.0,0.0,0.0,0.0,0.0,0.0,-1.5799,-1.5799,-1.5799,-1.6069,-1.6681,-1.7354,-1.8027,-1.8702,-1.8762,-1.9091,-1.9708,-1.9708,-1.9708,-1.9708,-1.9708,-1.9708,-1.9708,-1.9708,-1.9708,-1.9708,-1.9708,-1.9708,-1.9708,-1.9708,0.0,0.0,0.0,0.0,0.0,0.0,0.0,0.0,-1.9708,-1.9708,-1.9708,-1.9708,-1.9708,-1.9708,0.0,0.0,0.0,0.0,0.0,0.0,0.0,0.0,0.0,0.0,0.0,0.0,0.0,0.0,0.0,0.0,0.0,0.0,0.0,0.0,0.0,0.0,0.0,0.0,0.0,0.0,0.0,0.0,0.0,0.0,0.0,-3.2811,-3.2871,-3.2273,-3.2243,-3.1929,-3.1331,-3.0731,-3.0731,-3.1316,-3.0148,-2.9879,-3.0447,-3.1047,-3.0987,-3.0417,-3.0417,-3.0417,-3.0477,-3.1077,-3.0957,-3.0477,-3.1077,-3.0943,-3.0492,-3.1092,-3.0928,-3.0417,0.0,0.0,0.0,0.0,0.0,0.0,0.0,0.0,0.0,0.0,0.0,0.0,0.0,0.0,0.0,0.0,0.0,0.0,0.0,0.0,-1.5799,-1.5799,-1.5799,-1.6069,-1.6681,-1.7354,-1.8027,-1.8702,-1.9226,-1.9573,-1.9708,-1.9708,-1.9708,-1.9708,-1.9708,-1.9708,-1.9708,-1.9708,-1.9708,-1.9708,-1.9708,-1.9708,-1.9708,-1.9708,-1.9708,0.0,0.0,0.0,0.0,0.0,0.0,0.0,-1.9708,-1.9708,-1.9708,-1.9708,-1.9708,-1.9708,0.0,0.0,0.0,0.0,0.0,0.0,0.0,0.0,0.0,0.0,0.0,0.0,0.0,0.0,0.0,0.0,0.0,0.0,0.0,0.0,0.0,0.0,0.0,0.0,0.0,0.0,0.0,0.0,0.0,0.0,-3.0253,-3.0342,-3.0357,-3.0223,-3.0208,-3.0148,-2.9998,-2.9864,-2.9864,0.0,-2.9714,-2.9681,-2.9789,-2.9939,-2.9924,-2.9774,-2.9774,-2.9774,-2.9789,-2.9939,-2.9909,-2.9816,-2.9939,-2.9909,-2.9804,-2.9953,-2.9909,-2.9726,0.0,0.0,0.0,0.0,0.0,0.0,0.0,0.0,0.0,0.0,0.0,0.0,0.0,0.0,0.0,0.0,0.0,0.0,0.0,0.0,-1.5799,-1.5799,-1.5799,-1.6233,-1.716,-1.7518,-1.8192,-1.9166,-1.9528,-1.9708,-1.9708,-1.9708,-1.9708,-1.9708,-1.9708,-1.9708,-1.9708,-1.9708,-1.9708,-1.9708,-1.9708,-1.9708,-1.9708,-1.9708,-1.9708,-1.9708,-1.9708,0.0,0.0,0.0,0.0,0.0,0.0,0.0,-1.9708,-1.9708,-1.9708,-1.9708,0.0,0.0,0.0,0.0,0.0,0.0,0.0,0.0,0.0,0.0,0.0,0.0,0.0,0.0,0.0,0.0,0.0,0.0,0.0,0.0,0.0,0.0,0.0,0.0,0.0,0.0,0.0,0.0,0.0,-2.9924,-2.9621,-2.9606,-2.9606,-2.9606,-2.9606,-2.9606,-2.9606,-2.9265,-2.9265,-2.9592,-2.8963,-2.8648,-2.8663,-2.8966,-2.9116,-2.9116,-2.9116,-2.9116,-2.9146,-2.9472,-2.9427,-2.9146,-2.9487,-2.9412,-2.9146,-2.946,-2.9412,-2.9071,0.0,0.0,0.0,0.0,0.0,0.0,0.0,0.0,0.0,0.0,0.0,0.0,0.0,0.0,0.0,0.0,0.0,0.0,0.0,0.0,0.0,-1.5799,-1.5889,-1.6503,-1.7667,-1.7818,-1.8461,-1.9708,-1.9708,-1.9708,0.0,-1.9708,-1.9708,-1.9708,-1.9708,-1.9708,-1.9708,-1.9708,-1.9708,-1.9708,-1.9708,-1.9708,-1.9708,-1.9708,-1.9708,-1.9708,-1.9708,-1.9708,-1.9708,-1.9708,0.0,0.0,0.0,0.0,-1.9708,-1.9708,-1.9708,-1.9708,0.0,0.0,0.0,0.0,0.0,0.0,0.0,0.0,0.0,0.0,0.0,0.0,0.0,0.0,0.0,0.0,0.0,0.0,0.0,0.0,0.0,0.0,0.0,0.0,0.0,0.0,0.0,0.0,0.0,-2.9217,-2.9097,-2.9097,-2.9037,-2.8918,-2.8918,-2.8978,-2.9097,-2.8532,-2.8532,-2.9082,-2.7839,-2.7255,-2.727,-2.7829,-2.8203,-2.8427,-2.8427,-2.8427,-2.8472,-2.9037,-2.8921,-2.8472,-2.9052,-2.8906,-2.8487,-2.9052,-2.8891,-2.8427,0.0,0.0,0.0,0.0,0.0,0.0,0.0,0.0,0.0,0.0,0.0,0.0,0.0,0.0,0.0,0.0,0.0,0.0,-1.5799,0.0,0.0,-1.5799,-1.6293,-1.6936,-1.7667,-1.8267,-1.8942,-1.9708,-1.9708,0.0,0.0,0.0,0.0,-1.9708,-1.9708,-1.9708,-1.9708,-1.9708,-1.9708,-1.9708,-1.9708,-1.9708,-1.9708,-1.9708,-1.9708,-1.9708,-1.9708,-1.9708,-1.9708,-1.9708,-1.9708,0.0,0.0,0.0,-1.9708,-1.9708,-1.9708,-1.9708,0.0,0.0,0.0,0.0,0.0,0.0,0.0,0.0,0.0,0.0,0.0,0.0,0.0,0.0,0.0,0.0,0.0,0.0,0.0,0.0,0.0,0.0,0.0,0.0,0.0,0.0,0.0,0.0,-2.7869,-2.7615,-2.7021,-2.7016,-2.6722,-2.6153,-2.6138,-2.6408,-2.6976,-2.6901,-2.6901,-2.6976,-2.6228,-2.5869,-2.5869,-2.5974,-2.6632,-2.7735,-2.7735,-2.7735,-2.775,-2.7824,-2.7809,-2.775,-2.7824,-2.7809,-2.775,-2.7824,-2.7809,-2.7735,0.0,0.0,0.0,0.0,0.0,0.0,0.0,0.0,0.0,0.0,0.0,0.0,0.0,0.0,0.0,-1.5119,-1.5536,-1.5799,-1.5799,-1.5799,-1.5949,-1.6278,-1.6562,-1.7189,-1.8237,-1.8553,-1.9031,-1.9708,0.0,0.0,0.0,-1.9708,-1.9708,0.0,0.0,0.0,-1.9708,0.0,-1.9708,-1.9708,-1.9708,-1.9708,-1.9708,-1.9708,-1.9708,-1.9708,-1.9708,-1.9708,-1.9708,-1.9708,-1.9708,-1.9708,-1.9708,0.0,0.0,0.0,0.0,0.0,0.0,0.0,0.0,0.0,0.0,0.0,0.0,0.0,0.0,0.0,0.0,0.0,0.0,0.0,0.0,0.0,0.0,0.0,0.0,0.0,0.0,0.0,0.0,0.0,0.0,0.0,0.0,0.0,-2.6467,-2.6348,-2.6063,-2.6033,-2.5899,-2.5615,-2.5615,-2.5749,-2.6033,-2.6033,-2.6033,-2.6033,-2.5749,-2.5615,-2.5615,-2.5615,-2.5929,-2.6467,-2.6467,-2.6467,-2.6497,-2.6896,-2.7046,-2.7091,-2.745,-2.76,-2.76,-2.76,-2.76,-2.76,0.0,0.0,0.0,0.0,0.0,0.0,0.0,0.0,0.0,0.0,0.0,0.0,0.0,0.0,0.0,0.0,-1.5314,-1.5668,-1.5784,-1.5934,-1.6234,-1.6681,-1.704,-1.7684,-1.8687,-1.8867,-1.9196,-1.9708,0.0,0.0,-1.9708,-1.9708,-1.9708,0.0,-1.9708,-1.9708,0.0,0.0,0.0,-1.9708,-1.9708,-1.9708,-1.9708,-1.9708,-1.9813,-1.9944,-1.9944,-2.0049,-2.0187,-2.0022,-1.9944,-1.9914,-1.9753,-1.9708,0.0,0.0,0.0,0.0,0.0,0.0,0.0,0.0,0.0,0.0,0.0,0.0,0.0,0.0,0.0,0.0,0.0,0.0,0.0,0.0,0.0,0.0,0.0,0.0,0.0,0.0,0.0,0.0,0.0,0.0,0.0,0.0,-2.545,-2.5337,-2.5337,-2.5337,-2.5262,-2.5106,-2.5091,-2.5181,-2.5337,-2.5337,-2.5337,-2.5337,-2.5181,-2.5091,-2.5091,-2.5091,-2.5091,-2.5121,-2.563,-2.5764,-2.5674,-2.6497,-2.6761,-2.6686,-2.7345,-2.76,-2.76,-2.76,-2.76,-2.76,0.0,0.0,0.0,0.0,0.0,0.0,0.0,0.0,0.0,0.0,0.0,0.0,-1.3271,-1.4016,-1.4374,-1.4,-1.4674,-1.5329,-1.577,-1.6338,-1.6666,-1.6696,-1.7923,0.0,-1.8702,-1.9316,-1.9678,0.0,0.0,0.0,-1.9708,-1.9708,-1.9708,-1.9708,-1.9708,-1.9708,-1.9708,0.0,0.0,0.0,-1.9708,-1.9708,-1.9708,0.0,0.0,0.0,0.0,0.0,-2.15,-2.0872,-2.0643,-2.0543,0.0,0.0,0.0,0.0,0.0,0.0,0.0,0.0,0.0,0.0,0.0,0.0,0.0,0.0,0.0,0.0,0.0,0.0,0.0,0.0,0.0,0.0,0.0,0.0,0.0,0.0,0.0,0.0,0.0,0.0,0.0,0.0,0.0,0.0,-2.5008,-2.4649,-2.4649,-2.4649,-2.435,-2.3729,-2.3699,-2.4014,-2.4649,-2.4649,-2.4649,-2.4649,-2.4014,-2.3699,-2.3699,-2.3699,-2.3699,-2.3804,-2.5719,-2.6183,-2.5704,-2.7016,-2.718,-2.6686,-2.7345,-2.76,-2.76,-2.76,-2.76,-2.76,0.0,0.0,0.0,0.0,0.0,0.0,0.0,0.0,0.0,0.0,0.0,0.0,0.0,-1.4752,-1.5193,-1.5298,-1.5576,-1.5966,-1.6474,-1.6396,-1.6661,-1.7437,-1.7605,-1.8053,-1.8819,-1.9053,-1.9188,0.0,0.0,-1.953,-1.9188,-1.9548,-1.9708,-1.9708,-1.9708,-1.9708,-1.9708,-1.9708,0.0,0.0,0.0,0.0,0.0,0.0,0.0,0.0,0.0,0.0,0.0,0.0,0.0,0.0,0.0,0.0,0.0,0.0,0.0,0.0,0.0,0.0,0.0,0.0,0.0,0.0,0.0,0.0,0.0,0.0,0.0,0.0,0.0,0.0,0.0,0.0,0.0,0.0,0.0,0.0,0.0,0.0,0.0,0.0,0.0,0.0,0.0,0.0,0.0,-2.3969,-2.3969,-2.3969,-2.3849,-2.361,-2.3595,-2.3714,-2.3969,-2.3969,-2.3969,-2.3969,-2.3714,-2.3595,-2.3595,-2.3595,-2.3595,-2.367,-2.4822,-2.5173,-2.5053,-2.6393,-2.6821,-2.6686,-2.7345,-2.76,-2.76,-2.76,-2.76,-2.76,0.0,0.0,0.0,0.0,0.0,0.0,0.0,0.0,0.0,0.0,0.0,0.0,0.0,0.0,-1.5466,-1.586,-1.5914,-1.61,-1.6596,-1.6508,-1.6798,-1.7602,-1.7515,-1.7807,-1.8598,-1.8631,-1.8708,0.0,0.0,0.0,0.0,-1.935,-1.9424,-1.9442,-1.9621,-1.9708,0.0,0.0,0.0,-2.0034,0.0,0.0,-2.1051,0.0,0.0,0.0,0.0,0.0,0.0,0.0,0.0,0.0,0.0,0.0,0.0,0.0,0.0,0.0,0.0,0.0,0.0,0.0,0.0,0.0,0.0,0.0,0.0,0.0,0.0,0.0,0.0,0.0,0.0,0.0,0.0,0.0,0.0,0.0,0.0,0.0,0.0,0.0,0.0,0.0,0.0,0.0,0.0,0.0,-2.3595,-2.3595,-2.3595,-2.3595,-2.3595,-2.3595,-2.3595,-2.3595,-2.3595,-2.3595,-2.3595,-2.3595,-2.3595,-2.3595,-2.3595,-2.364,-2.4306,-2.447,-2.4365,-2.5719,-2.6258,-2.6318,-2.7001,-2.7405,-2.76,-2.76,-2.7465,-2.727,0.0,0.0,0.0,0.0,0.0,0.0,0.0,0.0,0.0,-1.4128,0.0,0.0,0.0,0.0,0.0,-1.55,-1.5537,-1.571,-1.61,-1.6737,-1.709,-1.7123,-1.771,-1.8066,-1.8086,-1.8086,-1.8341,0.0,0.0,0.0,0.0,0.0,-1.8874,-1.893,-1.9442,-1.969,-1.9708,0.0,-2.0094,-2.0703,0.0,-2.1111,-2.1724,0.0,0.0,0.0,-2.2718,-2.3107,0.0,0.0,0.0,0.0,0.0,0.0,0.0,0.0,0.0,0.0,0.0,0.0,0.0,0.0,0.0,0.0,0.0,0.0,0.0,0.0,0.0,0.0,0.0,0.0,0.0,0.0,0.0,0.0,0.0,0.0,0.0,0.0,0.0,0.0,0.0,0.0,0.0,0.0,-2.3595,-2.3595,-2.3595,-2.3595,-2.3595,-2.3595,-2.3595,-2.3595,-2.3595,-2.3595,-2.3595,-2.3595,-2.3595,-2.3595,-2.3595,-2.3595,-2.3595,-2.364,-2.4291,-2.4201,-2.3699,-2.5061,-2.5615,-2.5674,-2.6318,-2.6986,-2.757,-2.757,-2.7165,-2.6587,0.0,0.0,0.0,0.0,0.0,0.0,0.0,0.0,0.0,0.0,0.0,0.0,-1.5487,-1.5819,-1.6099,-1.6211,-1.6211,-1.6437,-1.6937,-1.6772,-1.6842,-1.7223,-1.7047,-1.7105,-1.7504,-1.7524,-1.7585,0.0,0.0,0.0,0.0,0.0,0.0,0.0,-1.9062,-1.935,-1.9708,-1.9708,0.0,0.0,-2.0703,-2.1395,0.0,0.0,0.0,0.0,0.0,-2.3445,-2.3565,0.0,-2.334,-2.3236,0.0,0.0,0.0,0.0,0.0,0.0,-1.9842,0.0,0.0,0.0,0.0,0.0,0.0,0.0,0.0,0.0,0.0,0.0,0.0,0.0,0.0,0.0,0.0,0.0,0.0,0.0,0.0,0.0,0.0,0.0,0.0,0.0,0.0,0.0,-2.3595,-2.3595,-2.3595,-2.3595,-2.3595,-2.3595,-2.3595,-2.3595,-2.3595,-2.3595,-2.3595,-2.3595,-2.3595,-2.3595,-2.3595,-2.3595,-2.3595,-2.361,-2.3804,-2.3774,-2.3699,-2.5061,-2.5615,-2.563,-2.5809,-2.6288,-2.6881,-2.6881,-2.6752,-2.6587,0.0,0.0,0.0,0.0,0.0,0.0,0.0,0.0,0.0,0.0,0.0,0.0,-1.6032,-1.63,-1.65,-1.65,-1.65,-1.6637,-1.6951,-1.668,-1.6637,-1.6951,-1.668,-1.6659,-1.6951,-1.6972,-1.7076,0.0,0.0,0.0,0.0,-1.7727,0.0,0.0,0.0,0.0,0.0,0.0,0.0,0.0,-2.0863,0.0,0.0,-2.3077,-2.3281,0.0,0.0,0.0,-2.3595,-2.3595,-2.3595,0.0,0.0,0.0,0.0,0.0,0.0,0.0,0.0,0.0,0.0,0.0,0.0,0.0,-1.9708,-2.0228,0.0,0.0,0.0,0.0,0.0,0.0,0.0,0.0,0.0,0.0,0.0,0.0,0.0,0.0,0.0,0.0,0.0,0.0,0.0,-2.3191,-2.3206,-2.3325,-2.3595,-2.3595,-2.3595,-2.3595,-2.3595,-2.3595,-2.3595,-2.3595,-2.3595,-2.3595,-2.3595,-2.3595,-2.3595,-2.3595,-2.3595,-2.3595,-2.3595,-2.3595,-2.3655,-2.4448,-2.4941,-2.5173,-2.5173,-2.5764,-2.6581,-2.6288,-2.6183,-2.6138,0.0,0.0,0.0,0.0,0.0,0.0,0.0,0.0,0.0,0.0,-1.6187,-1.65,-1.65,-1.65,-1.65,-1.65,-1.65,-1.65,-1.65,-1.65,-1.65,-1.65,-1.65,-1.65,-1.65,-1.65,-1.6731,0.0,0.0,0.0,0.0,0.0,-1.7229,0.0,0.0,0.0,0.0,0.0,0.0,-2.1759,-2.1304,-2.2049,0.0,0.0,-2.3551,0.0,-2.3573,-2.3595,-2.3595,-2.3595,-2.3595,0.0,0.0,0.0,0.0,0.0,-2.1395,0.0,0.0,0.0,0.0,0.0,0.0,0.0,-1.9813,-2.0273,-2.0673,0.0,0.0,0.0,0.0,0.0,0.0,0.0,0.0,0.0,0.0,0.0,0.0,0.0,0.0,0.0,0.0,-2.1695,-2.1934,-2.2538,-2.2583,-2.2868,-2.346,-2.349,-2.3535,-2.3595,-2.3595,-2.3595,-2.3595,-2.3595,-2.3595,-2.3595,-2.3595,-2.3595,-2.3595,-2.3595,-2.3595,-2.3595,-2.3595,-2.3595,-2.3595,-2.3595,-2.3947,-2.4485,-2.4485,-2.5247,-2.6303,-2.5719,-2.5495,-2.5397,-1.1701,0.0,0.0,0.0,0.0,0.0,0.0,0.0,0.0,-1.6337,-1.6437,-1.65,-1.65,-1.65,-1.65,-1.65,-1.65,-1.65,-1.65,-1.65,-1.65,-1.65,-1.65,-1.65,-1.65,-1.65,-1.6552,-1.6659,0.0,0.0,0.0,0.0,0.0,0.0,0.0,0.0,0.0,0.0,0.0,-2.2508,-2.239,0.0,-2.2934,-2.3421,-2.3312,-2.2942,-2.3421,-2.3595,-2.3595,0.0,-2.3595,-2.358,0.0,0.0,0.0,0.0,0.0,0.0,0.0,0.0,0.0,0.0,0.0,0.0,-2.0513,-2.0598,-2.0557,0.0,0.0,0.0,0.0,0.0,0.0,0.0,0.0,0.0,0.0,0.0,0.0,0.0,0.0,0.0,0.0,-2.1695,-2.1739,-2.1874,-2.1889,-2.2194,-2.2838,-2.2882,-2.3107,-2.358,-2.3595,-2.3595,-2.3595,-2.3595,-2.3595,-2.3595,-2.3595,-2.3595,-2.3595,-2.3595,-2.3595,-2.3595,-2.3595,-2.3595,-2.3595,-2.3595,-2.3684,-2.3804,-2.3804,-2.4276,-2.4963,-2.4844,-2.4799,-2.4784,-1.235,0.0,0.0,0.0,0.0,0.0,0.0,0.0,0.0,-1.65,-1.65,-1.65,-1.65,-1.65,-1.65,-1.65,-1.65,-1.65,-1.65,-1.65,-1.65,-1.65,-1.65,-1.65,-1.65,-1.65,-1.666,-1.6948,0.0,0.0,0.0,0.0,0.0,0.0,0.0,0.0,0.0,0.0,-2.0199,-2.1348,-2.1348,0.0,-2.3143,-2.3143,-2.3143,-2.3201,-2.3486,-2.3595,-2.3595,-2.3595,-2.3595,0.0,0.0,-2.3595,-2.3535,0.0,-2.2942,-2.2628,0.0,0.0,0.0,-2.162,0.0,0.0,0.0,-2.0453,-2.0109,0.0,0.0,0.0,0.0,0.0,0.0,0.0,0.0,0.0,0.0,0.0,0.0,0.0,0.0,0.0,0.0,-2.0711,-2.0842,-2.1186,-2.1515,-2.1844,-2.2194,-2.2209,-2.2493,-2.3137,-2.3152,-2.3295,-2.3595,-2.3595,-2.3595,-2.3595,-2.3595,-2.3595,-2.3595,-2.3595,-2.3595,-2.3595,-2.3595,-2.3595,-2.3595,-2.3595,-2.3595,-2.3595,-2.3595,-2.4007,-2.456,-2.4216,-2.4306,-2.4515,-1.3035,0.0,0.0,0.0,0.0,0.0,0.0,0.0,0.0,-1.65,-1.6588,-1.6663,-1.6663,0.0,0.0,0.0,-1.6826,-1.6826,0.0,0.0,0.0,-1.6826,-1.6826,-1.6826,-1.6826,-1.6826,-1.7074,-1.7561,0.0,0.0,0.0,0.0,0.0,0.0,0.0,0.0,0.0,0.0,0.0,-2.031,0.0,-2.1296,-2.3194,-2.2965,-2.3098,-2.3443,-2.3551,-2.353,-2.3443,-2.3551,0.0,-2.3443,-2.3551,-2.3595,0.0,0.0,0.0,0.0,0.0,0.0,0.0,0.0,0.0,-2.1096,0.0,0.0,0.0,0.0,0.0,0.0,0.0,0.0,0.0,0.0,0.0,0.0,0.0,0.0,0.0,0.0,0.0,0.0,0.0,-1.9708,-1.9914,-2.0483,-2.1006,-2.1365,-2.15,-2.1515,-2.1859,-2.2673,-2.2703,-2.3002,-2.3595,-2.3595,-2.3595,-2.3595,-2.3595,-2.3595,-2.3595,-2.3595,-2.3595,-2.3595,-2.3595,-2.3595,-2.3595,-2.3595,-2.3595,-2.3595,-2.3595,-2.3939,-2.4335,-2.3673,-2.3763,-2.4096,-1.3191,-1.3969,0.0,0.0,0.0,0.0,0.0,0.0,0.0,0.0,-1.6974,0.0,0.0,0.0,0.0,0.0,0.0,0.0,-1.8016,0.0,0.0,-1.8016,-1.8016,-1.8016,-1.8016,-1.8016,-1.8041,-1.8116,0.0,0.0,0.0,0.0,0.0,0.0,-1.8458,0.0,0.0,0.0,-2.0465,0.0,-2.028,-2.0678,0.0,-2.3091,-2.3224,-2.2875,-2.3421,-2.3268,-2.2875,0.0,-2.3231,-2.2897,0.0,-2.3595,-2.3595,0.0,0.0,0.0,0.0,0.0,0.0,0.0,-2.2921,0.0,0.0,0.0,0.0,0.0,0.0,0.0,0.0,0.0,0.0,0.0,0.0,0.0,0.0,0.0,0.0,0.0,0.0,0.0,0.0,0.0,-1.9738,-1.9813,-1.9887,-2.0183,-2.0778,-2.0808,-2.1395,-2.2658,-2.2703,-2.3002,-2.3595,-2.3595,-2.3595,-2.3595,-2.3595,-2.3595,-2.3595,-2.3595,-2.3595,-2.3595,-2.3595,-2.3595,-2.3595,-2.3595,-2.3595,-2.3595,-2.3595,-2.3655,-2.3634,-2.3016,-2.2865,-2.29,-1.4157,-1.4621,0.0,0.0,0.0,0.0,0.0,0.0,0.0,0.0,0.0,0.0,0.0,0.0,0.0,0.0,0.0,-1.8204,0.0,0.0,0.0,0.0,0.0,0.0,0.0,-1.8204,-1.8355,-1.8657,-1.8355,0.0,0.0,0.0,0.0,0.0,-1.9126,0.0,-1.9873,0.0,0.0,0.0,0.0,0.0,0.0,-2.1771,-2.2044,-2.2146,-2.2409,-2.2575,-2.274,0.0,-2.3143,0.0,0.0,0.0,0.0,0.0,0.0,0.0,0.0,0.0,0.0,0.0,0.0,0.0,-2.2703,0.0,-2.0592,0.0,0.0,0.0,0.0,0.0,0.0,0.0,0.0,0.0,0.0,0.0,0.0,0.0,0.0,0.0,0.0,0.0,0.0,0.0,-1.9708,-1.9828,-2.0094,-2.0124,-2.0557,-2.1515,-2.1924,-2.2433,-2.3077,-2.3415,-2.3595,-2.3595,-2.3595,-2.3595,-2.3595,-2.3595,-2.3595,-2.3595,-2.3595,-2.3595,-2.3595,-2.3595,-2.3595,-2.3595,-2.3595,-2.3595,-2.3573,-2.3312,-2.3209,-2.3179,-1.5262,0.0,0.0,0.0,0.0,0.0,0.0,0.0,0.0,0.0,0.0,0.0,-1.8392,-1.8706,0.0,0.0,-1.8794,-1.8819,0.0,0.0,-1.8643,0.0,0.0,0.0,0.0,0.0,-1.8844,-1.9221,0.0,0.0,0.0,0.0,0.0,0.0,0.0,-1.9798,-1.9798,0.0,0.0,-1.985,-2.0321,-2.0535,-2.0547,-2.0906,-2.1318,-2.1697,-2.1697,-2.1913,-2.2198,-2.2383,-2.2612,0.0,-2.2506,0.0,0.0,0.0,0.0,0.0,-2.3187,0.0,0.0,0.0,0.0,0.0,0.0,0.0,0.0,0.0,0.0,0.0,0.0,0.0,0.0,0.0,0.0,0.0,0.0,0.0,0.0,0.0,0.0,0.0,0.0,0.0,0.0,-1.9708,-1.9708,-1.9708,-1.9708,-1.9708,-2.0004,-2.0673,-2.135,-2.2009,-2.2688,-2.3295,-2.3595,-2.3595,-2.3595,-2.3595,-2.3595,-2.3595,-2.3595,-2.3595,-2.3595,-2.3595,-2.3595,-2.3595,-2.3595,-2.3595,-2.3595,-2.3595,-2.3573,-2.3421,-2.3341,-2.3253,-1.6333,-1.5983,0.0,0.0,0.0,0.0,0.0,0.0,0.0,0.0,0.0,0.0,0.0,0.0,0.0,0.0,0.0,-2.0377,-1.9786,0.0,-1.9748,0.0,0.0,-1.9748,0.0,0.0,0.0,0.0,0.0,0.0,0.0,0.0,0.0,0.0,0.0,-1.9798,-1.9798,-1.9798,-1.9798,-1.9798,-1.9824,-1.9824,-1.9978,0.0,-2.1673,-2.1697,-2.1697,0.0,0.0,-2.1544,-2.1366,0.0,0.0,0.0,0.0,0.0,0.0,0.0,0.0,0.0,0.0,-2.3465,0.0,0.0,0.0,0.0,-2.1635,0.0,0.0,0.0,0.0,0.0,0.0,0.0,0.0,0.0,0.0,0.0,0.0,0.0,0.0,0.0,0.0,0.0,0.0,-1.9708,-1.9708,-1.9708,-1.9708,-1.9708,-2.0004,-2.0673,-2.135,-2.2009,-2.2688,-2.3295,-2.3595,-2.3595,-2.3595,-2.3595,-2.3595,-2.3595,-2.3595,-2.3595,-2.3595,-2.3595,-2.3595,-2.3595,-2.3595,-2.3595,-2.3595,-2.3595,-2.353,-2.2942,-2.2717,-2.2634,0.0,0.0,0.0,0.0,0.0,0.0,0.0,-1.7272,0.0,0.0,0.0,0.0,0.0,-2.0991,-2.1006,0.0,0.0,-2.0815,-1.9861,-2.0162,0.0,0.0,0.0,-1.9798,0.0,0.0,0.0,0.0,0.0,0.0,0.0,0.0,0.0,0.0,0.0,-1.9798,0.0,0.0,0.0,0.0,0.0,-1.9798,-1.985,0.0,0.0,-2.0446,-2.0446,-2.0608,0.0,-2.1028,-2.1221,-2.1366,-2.1161,-2.1088,-2.1088,-2.1088,-2.1088,0.0,0.0,0.0,-2.21,-2.2294,0.0,0.0,0.0,0.0,0.0,0.0,0.0,0.0,0.0,0.0,0.0,0.0,0.0,0.0,0.0,0.0,0.0,0.0,0.0,0.0,0.0,0.0,0.0,-1.9708,-1.9708,-1.9708,-1.9708,-1.9708,-1.9813,-2.0034,-2.0692,-2.1365,-2.2024,-2.2688,-2.3191,-2.3595,-2.3595,-2.3595,-2.3595,-2.3595,-2.3595,-2.3595,-2.3595,-2.3595,-2.3595,-2.3595,-2.3595,-2.3595,-2.3595,-2.3355,-2.2965,-2.2777,-2.2694,-2.2558,-1.5986,0.0,0.0,0.0,0.0,0.0,0.0,0.0,0.0,0.0,-2.015,0.0,-2.1405,0.0,-2.1481,0.0,-2.1343,-2.1217,-1.9886,-2.0365,0.0,-1.9823,-1.9798,0.0,0.0,0.0,0.0,0.0,0.0,-1.9798,0.0,0.0,0.0,0.0,0.0,0.0,0.0,0.0,-1.9798,0.0,0.0,-1.9798,0.0,0.0,-1.9798,-1.9798,0.0,-2.008,-2.0446,-2.0446,-2.0695,-2.0977,-2.0559,-2.0446,-2.0446,-2.0446,-2.0446,-2.0597,-2.1197,-2.139,0.0,-2.1663,-2.1697,0.0,-2.2253,0.0,0.0,0.0,0.0,0.0,0.0,0.0,0.0,0.0,0.0,0.0,0.0,-1.8669,0.0,0.0,0.0,0.0,0.0,0.0,-1.9621,-1.9424,-1.9584,-1.9708,0.0,0.0,-1.9708,-1.9708,-2.0363,-2.1017,-2.168,-2.2358,-2.3002,-2.3595,-2.3595,-2.3595,-2.3595,-2.3595,-2.3595,-2.3595,-2.3595,-2.3595,-2.3595,-2.3595,-2.3465,-2.329,-2.329,-2.2905,-2.2369,-2.2603,-2.242,-2.1917,0.0,0.0,0.0,0.0,-1.7061,0.0,0.0,0.0,-1.9823,0.0,-2.084,-2.1543,-2.1568,-2.202,-2.1882,-2.083,-2.1656,0.0,-1.9911,-2.0365,0.0,0.0,-1.9798,-1.9798,-1.9798,0.0,0.0,0.0,0.0,0.0,0.0,0.0,0.0,0.0,-1.9798,0.0,-1.9798,-1.9798,-1.9798,-1.9798,-1.9798,-1.9798,-1.9798,-1.9798,-1.9798,-1.9798,-1.9798,-1.9798,-1.9798,-1.9798,-1.9798,-1.9798,-1.9798,-1.9798,-1.9798,-1.9798,-1.9798,-1.9952,-2.0572,-2.0746,-2.0881,-2.1472,0.0,0.0,0.0,0.0,-2.076,0.0,0.0,0.0,0.0,0.0,0.0,0.0,0.0,0.0,0.0,0.0,0.0,0.0,0.0,0.0,0.0,-1.9369,-1.946,-1.8987,-1.9387,0.0,0.0,0.0,-1.9708,-1.9708,-2.0318,-2.0991,-2.168,-2.2298,-2.2942,-2.3595,-2.3565,-2.3565,-2.3595,-2.3595,-2.3595,-2.3595,-2.3595,-2.3595,-2.3595,-2.3573,-2.3224,-2.2694,-2.2694,-2.23,-2.1767,-2.2369,-2.1823,-2.0746,-1.672,-1.7397,-1.7754,0.0,-1.789,-1.8129,0.0,0.0,0.0,0.0,-2.1669,-2.2259,-2.2644,-2.2443,-2.2033,-2.1343,-2.1543,0.0,0.0,0.0,0.0,-1.9823,-1.9798,-1.9798,-1.9798,-1.9798,0.0,-1.9798,0.0,0.0,-1.9798,0.0,0.0,0.0,0.0,0.0,-1.9798,-1.9798,-1.9798,-1.9798,-1.9798,-1.9798,0.0,0.0,-1.9798,-1.9798,-1.9798,-1.9798,-1.9798,-1.9798,-1.9798,-1.9798,-1.9798,-1.9798,-1.9798,-1.9798,-1.9798,-1.9824,-2.0003,-2.0055,-2.0093,-2.0257,-2.0308,-2.0421,0.0,0.0,0.0,0.0,0.0,0.0,0.0,0.0,0.0,0.0,0.0,0.0,0.0,0.0,0.0,-1.7706,0.0,0.0,0.0,-1.9024,-1.9207,-1.9479,-1.9244,0.0,0.0,0.0,0.0,-1.9708,-1.9872,-2.0513,-2.168,-2.138,-2.2024,-2.3595,-2.3152,-2.3182,-2.3595,-2.3595,-2.3595,-2.3595,-2.3595,-2.3595,-2.3573,-2.3135,-2.283,-2.2694,-2.2694,-2.23,-2.1687,-2.1379,-2.0758,-2.0055,-1.7143,0.0,0.0,-1.8544,0.0,0.0,-1.9334,0.0,0.0,-2.1408,-2.197,0.0,-2.238,-2.2543,-2.2347,-2.1556,-2.1707,0.0,-2.0277,0.0,0.0,-1.9823,-1.9798,-1.9798,-1.9798,-1.9798,0.0,-1.9798,0.0,0.0,-1.9798,0.0,0.0,0.0,0.0,-1.9798,0.0,-1.9798,-1.9798,-1.9798,-1.9798,0.0,0.0,-1.9798,-1.9798,-1.9798,-1.9798,-1.9798,-1.9798,-1.9798,-1.9798,-1.9798,-1.9798,-1.9798,-1.9798,-1.9798,-1.9798,-1.9798,-1.9798,-1.9798,-1.9798,-1.9798,-1.9798,-1.9901,-2.0283,-2.008,-1.9901,0.0,0.0,0.0,0.0,0.0,0.0,0.0,0.0,0.0,0.0,0.0,0.0,0.0,0.0,0.0,0.0,0.0,-1.9024,0.0,0.0,0.0,0.0,0.0,0.0,-1.9708,-1.9708,-2.0202,-2.1261,-2.1186,-2.1829,-2.3212,-2.3137,-2.3266,-2.3595,-2.3595,-2.3595,-2.3595,-2.3595,-2.3595,-2.3573,-2.3231,-2.2957,-2.2626,-2.2081,-2.1476,-2.083,-2.0484,-2.0131,-1.9798,0.0,0.0,0.0,0.0,0.0,0.0,0.0,-2.0541,0.0,-2.1443,0.0,-2.2096,-2.1543,-2.2284,-2.2393,-2.1496,0.0,-2.1581,-2.0641,-2.0578,-2.0352,-1.9823,-1.9798,-1.9798,-1.9798,-1.9798,0.0,0.0,0.0,0.0,0.0,0.0,0.0,0.0,0.0,0.0,0.0,-1.9798,-1.9798,0.0,-1.9798,-1.9849,-1.9911,-1.9911,-1.9911,-1.9911,-1.9911,-1.9861,-1.9798,-1.9798,-1.9798,-1.9798,-1.9798,-1.9798,-1.9798,-1.9798,-1.9798,-1.9798,-1.9798,-1.9798,-1.9798,-1.9798,-1.9798,-1.9798,-1.9798,-1.9798,-1.9798,-1.9798,-1.9798,-1.9497,0.0,0.0,0.0,0.0,0.0,0.0,0.0,0.0,0.0,0.0,0.0,0.0,0.0,0.0,0.0,0.0,0.0,0.0,0.0,0.0,0.0,-1.9612,-1.9755,-2.0146,-2.0812,0.0,-2.2089,-2.2823,-2.3266,-2.352,-2.3595,-2.3595,-2.3595,-2.3595,-2.3595,-2.3595,-2.3595,-2.3508,-2.312,-2.2452,-2.1272,-2.0446,-1.9927,-1.9927,-1.9875,-1.9798,0.0,0.0,0.0,0.0,0.0,-2.0817,-2.1142,-2.1669,-2.1895,-2.1543,-2.197,-2.2096,-2.1543,-2.1282,-2.1043,-2.0855,-2.0464,0.0,0.0,0.0,0.0,-1.9811,-1.9798,-1.9798,-1.9798,-1.9798,-1.9798,0.0,0.0,0.0,0.0,0.0,0.0,0.0,0.0,0.0,-1.9798,-1.9798,0.0,-1.9798,-1.9798,-2.0087,-2.0541,-2.0541,-2.0541,-2.0541,-2.0541,-2.0239,-1.9798,-1.9798,-1.9798,-1.9798,-1.9798,-1.9798,-1.9798,-1.9798,-1.9798,-1.9798,-1.9798,-1.9798,-1.9798,-1.9798,-1.9798,-1.9798,-1.9798,-1.9798,-1.9798,-1.9798,-1.9798,-1.961,-1.897,0.0,0.0,0.0,0.0,0.0,0.0,0.0,0.0,0.0,0.0,0.0,0.0,0.0,0.0,0.0,0.0,0.0,0.0,0.0,0.0,0.0,-2.0006,0.0,0.0,0.0,-2.2278,-2.343,-2.3047,-2.3122,-2.3595,-2.3595,-2.3595,-2.3595,-2.3595,-2.3595,-2.3551,-2.3054,-2.246,-2.1805,-2.1077,-2.0721,-2.0622,-2.0622,-2.027,-1.9798,0.0,0.0,0.0,0.0,0.0,0.0,0.0,-2.2355,0.0,-2.1995,-2.1895,-2.1782,-2.1518,-2.1282,-2.1119,-2.1119,-2.0603,-2.0277,-2.0277,-1.9962,-1.9798,-1.9798,-1.9798,0.0,-1.9798,-1.9798,-1.9798,-1.9798,0.0,0.0,0.0,0.0,0.0,0.0,0.0,-1.9962,0.0,0.0,0.0,-2.0627,-2.0037,-2.0326,-2.1081,-2.0805,-2.0691,-2.0729,-2.1018,-2.0754,-2.0239,-1.9911,-1.9999,-2.0277,-2.0277,-2.0277,-2.0277,-2.0277,-2.0037,-1.9798,-1.9798,-1.9798,-1.9798,-1.9798,-1.9798,-1.9798,-1.9798,-1.9798,-1.9798,-1.9798,-1.9798,-1.9723,-1.9447,-1.8756,0.0,0.0,0.0,0.0,0.0,0.0,0.0,0.0,0.0,0.0,0.0,0.0,0.0,0.0,0.0,0.0,0.0,0.0,0.0,0.0,0.0,0.0,0.0,0.0,0.0,-2.2636,-2.3003,-2.331,-2.3595,-2.3595,-2.3595,-2.3595,-2.3595,-2.3421,-2.3076,-2.2438,-2.1819,-2.121,-2.0906,-2.0597,-2.0283,-2.0283,-2.008,-1.9798,0.0,-1.8965,0.0,0.0,-2.0852,0.0,-2.2217,-2.2757,-2.2907,-2.2355,-2.1832,-2.1443,-2.1358,-2.1232,-2.1129,-2.1129,-2.0754,-2.0515,-2.0515,-2.0049,-1.9798,-1.9798,-1.9798,-1.9798,-1.9798,-1.9924,-1.9924,0.0,0.0,0.0,0.0,0.0,0.0,0.0,0.0,0.0,0.0,0.0,-2.0677,-2.1405,-2.0514,-2.0765,-2.1606,-2.1207,-2.1043,-2.1094,-2.1506,-2.1333,-2.0792,-2.0313,-2.049,-2.0867,-2.0867,-2.0779,-2.0691,-2.0691,-2.0289,-1.9798,-1.9798,-1.9798,-1.9798,-1.9798,-1.9798,-1.9798,-1.9798,-1.9798,-1.9798,-1.9798,-1.9798,-1.9798,-1.9798,-1.9108,0.0,0.0,0.0,0.0,0.0,0.0,0.0,0.0,0.0,0.0,0.0,0.0,0.0,0.0,0.0,0.0,0.0,0.0,0.0,0.0,0.0,-1.9831,-2.0016,0.0,-2.1835,-2.1703,-2.2849,-2.3421,-2.3421,-2.3421,-2.3421,-2.3421,-2.3421,-2.3054,-2.2452,-2.1795,-2.1221,-2.0795,-2.0646,-2.0245,-1.9798,-1.9798,-1.9798,-1.9798,0.0,0.0,0.0,0.0,0.0,0.0,-2.218,-2.2757,-2.2907,-2.2355,-2.1832,-2.1292,-2.083,-2.0302,-1.9962,-1.9962,-1.9911,-1.9874,-1.9874,-1.9823,-1.9798,-1.9798,-1.9798,-1.9798,-1.9798,-2.0352,-2.0352,0.0,0.0,0.0,0.0,0.0,0.0,0.0,0.0,0.0,0.0,-2.1355,-2.1393,-2.1481,-2.1368,-2.1694,-2.2234,-2.2184,-2.2159,-2.2171,-2.2221,-2.1882,-2.1405,-2.1343,-2.1395,-2.1446,-2.1446,-2.1094,-2.0691,-2.0691,-2.0289,-1.9798,-1.9798,-1.9798,-1.9798,-1.9798,-1.9798,-1.9798,-1.9798,-1.9798,-1.9798,-1.9798,-1.9798,-1.9798,-1.9798,-1.9723,-1.9673,0.0,0.0,0.0,0.0,0.0,0.0,0.0,0.0,0.0,0.0,0.0,0.0,0.0,0.0,0.0,0.0,0.0,0.0,-1.8336,0.0,-2.0138,-2.0697,-2.1969,-2.2306,-2.1708,-2.2446,-2.2785,-2.2785,-2.2785,-2.2785,-2.2785,-2.2785,-2.2415,-2.1758,-2.1137,-2.0845,-2.0746,-2.0131,-1.985,-1.9798,-1.9798,-1.9798,-1.9798,0.0,0.0,0.0,0.0,0.0,0.0,0.0,-2.2957,-2.302,-2.2807,-2.2033,-2.1531,-2.1644,-2.0539,-1.9936,-2.0314,-1.9999,-1.9798,-1.9798,-1.9798,-1.9798,-1.9798,-1.9798,-1.9798,-1.9798,-2.0402,-2.0578,0.0,0.0,0.0,0.0,0.0,0.0,0.0,0.0,-2.1669,-2.1958,-2.1631,-2.187,-2.2393,-2.1757,-2.202,-2.2744,-2.2406,-2.2309,-2.2347,-2.2656,-2.2447,-2.1983,-2.1983,-2.1757,-2.1493,-2.1493,-2.1131,-2.0691,-2.0691,-2.0289,-1.9798,-1.9798,-1.9798,-1.9798,-1.9798,-1.9798,-1.9798,-1.9798,-1.9798,-1.9798,-1.9798,-1.9798,-1.9798,-1.9798,-1.9798,-1.9798,0.0,0.0,0.0,0.0,0.0,0.0,0.0,0.0,0.0,0.0,0.0,0.0,0.0,0.0,0.0,0.0,0.0,0.0,-1.9144,0.0,-2.0375,-2.0194,-2.1462,-2.1795,-2.1161,-2.2221,-2.2498,-2.21,-2.2535,-2.2475,-2.2077,-2.1728,-2.1417,-2.1113,-2.0472,-2.0207,-2.0169,-1.9901,-1.9798,-1.9798,-1.9798,-1.9798,-1.9798,-1.8685,0.0,-1.9612,0.0,-2.0958,-2.168,-2.2912,-2.3108,-2.3108,-2.3108,-2.2309,-2.182,-2.2046,-2.0865,-2.015,-2.0415,-2.0037,-1.9798,-1.9798,-1.9798,-1.9798,-1.9798,-1.9798,0.0,-1.9798,-2.0553,-2.0855,-2.0691,-2.1408,0.0,0.0,0.0,0.0,0.0,-2.197,-2.2184,-2.2493,-2.2133,-2.2422,-2.3032,-2.2284,-2.2406,-2.3058,-2.2669,-2.2548,-2.2581,-2.2957,-2.2857,-2.2493,-2.2343,-2.1945,-2.1493,-2.1493,-2.1131,-2.0691,-2.0691,-2.0289,-1.9798,-1.9798,-1.9798,-1.9798,-1.9798,-1.9798,-1.9798,-1.9798,-1.9798,-1.9798,-1.9798,-1.9798,-1.9798,-1.9798,-1.9798,-1.9798,-1.9798,0.0,0.0,0.0,0.0,0.0,0.0,-1.65,-1.65,-1.65,0.0,0.0,0.0,0.0,0.0,0.0,0.0,0.0,0.0,0.0,0.0,0.0,-2.0879,-2.1124,-2.0522,-2.1633,-2.1903,-2.1448,-2.1927,-2.188,-2.14,-2.0782,-2.0497,-2.0472,-2.0003,-1.9798,-1.9798,-1.9798,-1.9798,-1.9798,-1.9798,-1.9798,-1.9798,-1.8685,-1.9302,-2.0027,-2.0508,-2.1322,-2.2156,-2.2975,-2.3108,-2.3108,-2.3108,-2.2619,-2.2096,-2.1556,-2.1018,-2.0453,-1.9861,-1.9798,-1.9798,-1.9798,-1.9798,-1.9798,0.0,0.0,-1.9798,-1.9798,-2.0903,-2.1232,-2.0691,0.0,0.0,-2.1493,0.0,-2.2556,-2.3083,-2.3083,-2.3083,-2.3095,-2.3083,-2.3095,-2.3108,-2.3095,-2.3095,-2.3108,-2.3095,-2.3095,-2.3095,-2.3108,-2.3095,-2.3007,-2.2498,-2.1945,-2.1493,-2.1493,-2.1131,-2.0691,-2.0691,-2.0289,-1.9798,-1.9798,-1.9798,-1.9798,-1.9798,-1.9798,-1.9798,-1.9798,-1.9798,-1.9798,-1.9798,-1.9798,-1.9798,-1.9798,-1.9798,-1.9798,-1.9798,0.0,0.0,0.0,0.0,0.0,0.0,-1.65,-1.65,-1.65,0.0,0.0,0.0,0.0,0.0,0.0,0.0,0.0,-1.8982,-1.902,0.0,-1.9798,-2.0472,-2.0472,-1.9824,-2.0497,-2.082,-2.0795,-2.082,-2.082,-2.0771,-2.0105,-1.9798,-1.9798,-1.9798,-1.9798,-1.9798,-1.9798,-1.9798,-1.9798,-1.9798,-1.9798,-1.9798,-1.8744,-1.8834,-1.917,-1.9637,-1.9944,-2.043,-2.1259,-2.1385,-2.1616,-2.2187,-2.1777,-2.1567,-2.2013,-2.1556,-2.1031,0.0,-2.0415,-2.0251,0.0,-1.9798,-1.9798,-1.9798,-2.0175,-2.0415,-2.0415,-2.1481,-2.197,-2.1782,0.0,0.0,0.0,-2.2757,-2.2945,-2.3108,-2.3108,-2.3108,-2.3108,-2.3108,-2.3108,-2.3108,-2.3108,-2.3108,-2.3108,-2.3108,-2.3108,-2.3058,-2.2681,-2.2543,-2.2406,-2.1506,-2.1094,-2.088,-2.0464,-2.0213,-2.0075,-2.0075,-1.9949,-1.9798,-1.9798,-1.9798,-1.9798,-1.9798,-1.9798,-1.9798,-1.9798,-1.9798,-1.9798,-1.9798,-1.9798,-1.9798,-1.9798,-1.951,-1.9246,-1.9246,-1.8355,0.0,0.0,0.0,0.0,0.0,-1.65,-1.65,0.0,-1.65,0.0,0.0,0.0,0.0,0.0,0.0,0.0,0.0,-1.9992,0.0,-1.9798,-2.0446,-2.0446,-1.9798,-2.0472,-2.0795,-2.0771,-2.0334,-2.0131,-2.0105,-1.9901,-1.9798,-1.9798,-1.9798,-1.9798,-1.9798,-1.9798,-1.9798,-1.9798,-1.9798,-1.9798,-1.9798,-1.8744,-1.8869,-1.9136,-1.9283,-1.9562,-1.9977,-2.0526,-2.059,-2.0814,-2.1333,-2.1074,-2.0979,-2.1344,-2.1365,0.0,-2.0727,-2.049,-2.0188,-1.9823,-1.9798,-1.9899,-2.0138,-2.0503,-2.0792,-2.0993,-2.1845,0.0,-2.2309,-2.2832,-2.3108,-2.3108,-2.3108,-2.3108,-2.3108,-2.3108,-2.3108,-2.3108,-2.3108,-2.3108,-2.3108,-2.3108,-2.3108,-2.3108,-2.3108,-2.3108,-2.3032,-2.2481,-2.2309,-2.2146,-2.1069,-2.0691,-2.0591,-1.9987,-1.9798,-1.9798,-1.9798,-1.9798,-1.9798,-1.9798,-1.9798,-1.9798,-1.9798,-1.9798,-1.9798,-1.9798,-1.9798,-1.9798,-1.9798,-1.9798,-1.9798,-1.9798,-1.9359,-1.9008,-1.9008,-1.8103,-1.741,-1.741,0.0,0.0,0.0,0.0,0.0,0.0,-1.65,-1.65,0.0,0.0,0.0,0.0,0.0,0.0,-1.9767,-2.0215,0.0,-1.9798,-2.0232,-2.0194,-1.9811,-2.022,-2.0421,-2.0396,-2.0003,-1.9798,-1.9798,-1.9798,-1.9798,-1.9798,-1.9798,-1.9798,-1.9798,-1.9798,-1.9798,-1.9798,-1.9798,-1.9798,-1.9798,-1.8734,-1.9298,-1.9674,0.0,-1.9901,0.0,-2.043,-2.043,-2.043,-2.0494,-2.0461,-2.0292,-1.9927,-2.0456,-2.0756,-2.0551,0.0,0.0,0.0,-1.9798,-2.0062,-2.0666,-2.0729,-2.1006,-2.1531,-2.2083,-2.2372,-2.2372,-2.2857,-2.3108,-2.3108,-2.3108,-2.3108,-2.3108,-2.3108,-2.3108,-2.3108,-2.3108,-2.3108,-2.3108,-2.3108,-2.3108,-2.3095,-2.3058,-2.3045,-2.297,-2.238,-2.2196,-2.2033,-2.0993,-2.0629,-2.0541,-1.9974,-1.9798,-1.9798,-1.9798,-1.9798,-1.9798,-1.9798,-1.9798,-1.9798,-1.9798,-1.9798,-1.9798,-1.9798,-1.9798,-1.9798,-1.9798,-1.9798,-1.9798,-1.9798,-1.9321,-1.8945,-1.8945,-1.8041,-1.7348,-1.7348,0.0,0.0,0.0,0.0,0.0,0.0,-1.65,-1.65,0.0,0.0,0.0,0.0,0.0,-1.9246,-1.9786,-1.9798,-1.9798,-1.9798,-1.9798,-1.9798,-1.9798,-1.9798,-1.9798,-1.9798,-1.9798,-1.9798,-1.9798,-1.9798,-1.9798,-1.9798,-1.9798,-1.9798,-1.9798,-1.9798,-1.9798,-1.9798,-1.9798,-1.9798,-1.9798,0.0,0.0,-1.8874,-1.8775,-1.8682,-1.862,-1.862,-1.862,-1.8854,-1.9529,-1.9254,-1.9232,-1.982,-1.9317,-1.8948,-1.9015,-1.9921,-2.0302,-1.9823,-1.9798,-2.0062,-2.0666,-2.1094,-2.1556,-2.2108,-2.2631,-2.2907,-2.2907,-2.3045,-2.3108,-2.3108,-2.3108,-2.3108,-2.3108,-2.3108,-2.3108,-2.3108,-2.3108,-2.3108,-2.3108,-2.3108,-2.3108,-2.3058,-2.2644,-2.2481,-2.2385,-2.1405,-2.1081,-2.0981,-2.0238,-2.0012,-1.9987,-1.9849,-1.9798,-1.9798,-1.9798,-1.9798,-1.9798,-1.9798,-1.9798,-1.9798,-1.9798,-1.9798,-1.9798,-1.9798,-1.9798,-1.9798,-1.9798,-1.9798,-1.9798,-1.9798,-1.9032,-1.8405,-1.8405,-1.7451,-1.6701,-1.6701,-1.6588,0.0,0.0,-1.65,-1.65,-1.65,-1.65,-1.65,0.0,0.0,0.0,0.0,-1.8707,-1.9246,-1.9786,-1.9798,-1.9798,-1.9798,-1.9798,-1.9798,-1.9798,-1.9798,-1.9798,-1.9798,-1.9798,-1.9798,-1.9798,-1.9798,-1.9798,-1.9798,-1.9798,-1.9798,-1.9798,-1.9798,-1.9798,-1.9798,-1.9798,-1.9798,-1.9798,-1.8994,-1.8763,-1.8598,-1.8598,-1.8412,-1.8198,-1.8037,-1.8008,-1.8168,-1.8654,-1.8441,-1.8414,-1.8733,-1.8364,-1.8016,-1.7926,-1.9077,-1.9638,-1.9331,-1.988,-2.0478,-2.1043,-2.1568,-2.2121,-2.2644,-2.2945,-2.3108,-2.3108,-2.3108,-2.3108,-2.3108,-2.3108,-2.3108,-2.3108,-2.3108,-2.3108,-2.3083,-2.2832,-2.2882,-2.3083,-2.2832,-2.2732,-2.2694,-2.2393,-2.2159,-2.1832,-2.0993,-2.0691,-2.0603,-1.9999,-1.9798,-1.9798,-1.9798,-1.9987,-2.015,-1.9874,-1.9798,-1.9798,-1.9798,-1.9798,-1.9798,-1.9798,-1.9798,-1.9798,-1.9798,-1.9798,-1.9798,-1.9798,-1.9798,-1.9798,-1.9798,-1.8932,-1.8204,-1.8204,-1.7227,-1.65,-1.65,-1.65,0.0,-1.65,-1.65,-1.65,-1.65,-1.65,-1.65,-1.65,-1.681,0.0,-1.8166,-1.8469,-1.8983,-1.9773,-1.9798,-1.9798,-1.9798,-1.9798,-1.9798,-1.9798,-1.9798,-1.9798,-1.9798,-1.9798,-1.9798,-1.9798,-1.9798,-1.9798,-1.9798,-1.9798,-1.9798,-1.9798,-1.9798,-1.9798,-1.9798,-1.9798,-1.9798,-1.9798,-1.8715,-1.8744,-1.8705,-1.8705,-1.8646,-1.8461,-1.8076,-1.8008,-1.8008,-1.8008,-1.8008,-1.7852,-1.7432,-1.7536,-1.7502,-1.715,-1.8053,-1.8691,-1.8688,-1.9953,-2.0943,-2.1496,-2.202,-2.2543,-2.3095,-2.3108,-2.3108,-2.3108,-2.3108,-2.3108,-2.3108,-2.3108,-2.3108,-2.3108,-2.3108,-2.3108,-2.307,-2.2606,-2.2681,-2.3058,-2.2506,-2.2309,-2.2297,-2.2133,-2.1769,-2.132,-2.0767,-2.0566,-2.049,-1.9962,-1.9798,-1.9823,-1.9911,-2.0302,-2.0591,-2.0075,-1.9936,-1.9911,-1.9823,-1.9798,-1.9798,-1.9798,-1.9798,-1.9798,-1.9798,-1.9798,-1.9798,-1.9798,-1.9798,-1.9798,-1.9798,-1.8932,-1.8204,-1.8204,-1.7325,-1.6647,-1.6647,0.0,-1.6751,-1.6751,-1.6697,-1.6647,-1.6647,-1.655,-1.65,-1.65,-1.65,-1.6989,-1.8141,-1.8204,-1.8694,-1.9773,-1.9798,-1.9798,-1.9798,-1.9798,-1.9798,-1.9798,-1.9798,-1.9798,-1.9798,-1.9798,-1.9798,-1.9798,-1.9798,-1.9798,-1.9798,-1.9798,-1.9798,-1.9798,-1.9798,-1.9798,-1.9798,-1.9798,-1.9798,-1.9798,-1.9629,-1.9434,-1.9189,-1.9189,-1.8841,-1.8461,-1.8076,-1.8008,-1.8008,-1.8008,-1.8008,-1.7852,-1.7432,-1.7088,-1.6857,-1.6788,-1.7862,-1.8568,-1.8697,-1.9953,-2.0943,-2.1496,-2.202,-2.2543,-2.3095,-2.3108,-2.3108,-2.3108,-2.3108,-2.3108,-2.3108,-2.3108,-2.3108,-2.3108,-2.3108,-2.3108,-2.3095,-2.3007,-2.302,-2.3058,-2.2506,-2.2309,-2.2209,-2.1307,-2.0893,-2.0742,-2.0137,-1.9936,-1.9924,-1.9836,-1.9798,-1.9886,-2.0402,-2.0616,-2.0679,-2.0591,-2.0553,-2.0453,-1.9936,-1.9798,-1.9798,-1.9798,-1.9798,-1.9798,-1.9798,-1.9798,-1.9798,-1.9798,-1.9798,-1.9798,-1.9798,-1.8932,-1.8204,-1.8204,-1.7664,-1.7272,-1.7272,0.0,-1.794,-1.794,-1.7539,-1.7272,-1.7272,-1.681,-1.65,-1.65,-1.65,-1.6989,-1.8141,-1.8204,-1.8694,-1.9773,-1.9798,-1.9798,-1.9798,-1.9798,-1.9798,-1.9798,-1.9798,-1.9798,-1.9798,-1.9798,-1.9798,-1.9798,-1.9798,-1.9798,-1.9798,-1.9798,-1.9798,-1.9798,-1.9798,-1.9798,-1.9798,-1.9798,-1.9798,-1.9798,-1.9104,-1.9258,-1.9209,-1.8984,-1.8965,-1.8769,-1.8105,-1.8008,-1.8008,-1.8008,-1.8008,-1.7939,-1.7744,-1.7096,-1.6794,-1.7061,-1.7281,-1.7721,-1.8444,-2.0433,-2.1531,-2.1493,-2.2297,-2.2844,-2.3095,-2.3108,-2.3108,-2.3108,-2.3108,-2.3108,-2.3108,-2.3108,-2.3108,-2.3108,-2.3108,-2.3108,-2.3058,-2.2468,-2.2393,-2.2594,-2.1769,-2.1458,-2.1368,-2.0893,-2.0503,-2.0189,-1.9899,-1.9798,-1.9798,-1.9798,-1.9798,-1.9911,-2.0515,-2.0691,-2.0691,-2.0691,-2.0465,-2.0137,-1.9874,-1.9798,-1.9798,-1.9798,-1.9798,-1.9798,-1.9798,-1.9798,-1.9798,-1.9798,-1.9798,-1.971,-1.9409,-1.8744,-1.8204,-1.8204,-1.7739,0.0,0.0,-1.8041,-1.8091,-1.779,-1.7561,-1.7262,-1.6948,-1.6961,-1.6986,-1.6986,-1.725,-1.7777,-1.8581,-1.8619,-1.8983,-1.9773,-1.9798,-1.9798,-1.9798,-1.9798,-1.9798,-1.9798,-1.9798,-1.9798,-1.9798,-1.9798,-1.9798,-1.9798,-1.9798,-1.9798,-1.9798,-1.9798,-1.9798,-1.9798,-1.9798,-1.9798,-1.9798,-1.9798,-1.9798,-1.9798,-1.852,-1.887,-1.9033,-1.8656,-1.8916,-1.8877,-1.8125,-1.8008,-1.8008,-1.8008,-1.8008,-1.7969,-1.7871,-1.7275,-1.7021,-1.7353,-1.7053,-1.7243,-1.8123,-2.0411,-2.1671,-2.1518,-2.2518,-2.3108,-2.3108,-2.3108,-2.3108,-2.3108,-2.3108,-2.3108,-2.3108,-2.3108,-2.3108,-2.3108,-2.3108,-2.3108,-2.3045,-2.2096,-2.192,-2.2221,-2.1131,-2.0691,-2.0679,-2.0541,-2.0188,-1.9798,-1.9798,-1.9798,-1.9798,-1.9798,-1.9798,-1.9911,-2.0515,-2.0691,-2.0691,-2.0691,-2.0289,-1.9798,-1.9798,-1.9798,-1.9798,-1.9798,-1.9798,-1.9798,-1.9798,-1.9798,-1.9798,-1.9798,-1.9798,-1.9673,-1.9259,-1.8756,-1.8392,-1.8392,0.0,0.0,0.0,-1.8392,-1.8242,-1.7815,-1.7652,-1.735,-1.6773,-1.7237,-1.7513,-1.741,-1.789,-1.8418,-1.897,-1.8882,-1.9058,-1.961,-1.9736,-1.9798,-1.9798,-1.9798,-1.9798,-1.9798,-1.9798,-1.9798,-1.9798,-1.9798,-1.9798,-1.9798,-1.9798,-1.9798,-1.9798,-1.9798,-1.9798,-1.9798,-1.9798,-1.9723,-1.9623,-1.9623,-1.9547,-1.9434,-1.852,-1.8627,-1.8637,-1.8607,-1.8627,-1.849,-1.8076,-1.8008,-1.8008,-1.8008,-1.8008,-1.7861,-1.7471,-1.7406,-1.7344,-1.7383,-1.7686,-1.7871,-1.783,-1.9243,-2.0504,-2.145,-2.2518,-2.3108,-2.3108,-2.3108,-2.3108,-2.3108,-2.3108,-2.3108,-2.3108,-2.3108,-2.3108,-2.3108,-2.3108,-2.3108,-2.3058,-2.2498,-2.2272,-2.2221,-2.1131,-2.0691,-2.0629,-2.0075,-1.9836,-1.9798,-1.9798,-1.9798,-1.9798,-1.9798,-1.9798,-1.9911,-2.0515,-2.0691,-2.0691,-2.0691,-2.0289,-1.9798,-1.9798,-1.9798,-1.9798,-1.9798,-1.9798,-1.9798,-1.9798,-1.9798,-1.9798,-1.9798,-1.9798,-1.9798,-1.9748,-1.9296,-1.8945,-1.8945,0.0,0.0,-1.8945,-1.8945,-1.8933,-1.8895,-1.8455,-1.7928,-1.7398,-1.7815,-1.794,-1.7448,-1.789,-1.8418,-1.897,-1.8519,-1.8494,-1.9045,-1.9547,-1.9798,-1.9798,-1.9798,-1.9798,-1.9798,-1.9798,-1.9798,-1.9798,-1.9798,-1.9798,-1.9798,-1.9798,-1.9798,-1.9798,-1.9798,-1.9798,-1.9798,-1.9798,-1.951,-1.9058,-1.9058,-1.8732,-1.8329,-1.8213,-1.8422,-1.852,-1.8256,-1.8432,-1.8461,-1.8076,-1.8008,-1.8008,-1.8008,-1.8008,-1.7852,-1.7432,-1.7383,-1.7275,-1.7002,-1.6874,-1.7114,-1.7749,-1.7874,-1.8823,-2.0852,-2.1331,-2.1803,-2.2353,-2.2353,-2.2598,-2.3108,-2.3108,-2.3108,-2.3095,-2.2757,-2.2594,-2.2594,-2.2594,-2.2406,-2.2096,-2.1895,-2.1606,-2.1257,-2.0465,-2.0125,-2.0138,-1.9886,-1.9798,-1.9798,-1.9798,-1.9798,-1.9798,-1.9798,-1.9798,-1.9911,-2.0515,-2.044,-2.0125,-2.0125,-1.9974,-1.9798,-1.9798,-1.9798,-1.9798,-1.9798,-1.9798,-1.9798,-1.9798,-1.9798,-1.9798,-1.9798,-1.9798,-1.971,-1.9359,-1.9133,-1.9008,-1.9008,0.0,-1.9121,-1.9434,-1.9208,-1.8882,-1.8531,-1.8028,-1.7476,-1.6898,-1.7677,-1.8116,-1.7903,-1.8706,-1.9284,-1.9497,-1.9309,-1.9145,-1.9008,-1.9509,-1.9798,-1.9798,-1.9798,-1.9798,-1.9798,-1.9798,-1.9798,-1.9798,-1.9798,-1.9798,-1.9798,-1.9798,-1.9798,-1.9798,-1.9798,-1.961,-1.9296,-1.9296,-1.897,-1.8494,-1.8494,-1.8356,-1.8204,-1.8008,-1.8208,-1.8315,-1.8057,-1.8217,-1.8305,-1.8057,-1.8008,-1.7959,-1.7832,-1.7812,-1.7598,-1.7063,-1.7249,-1.7148,-1.6572,-1.6525,-1.6782,-1.7399,-1.7131,-1.7916,-2.0106,-2.0462,-2.0878,-2.1491,-2.1753,-2.2168,-2.272,-2.2975,-2.3007,-2.2844,-2.2456,-2.2309,-2.2309,-2.2309,-2.2196,-2.1983,-2.1631,-2.1295,-2.088,-2.01,-1.9798,-1.9798,-1.9798,-1.9798,-1.9798,-1.9798,-1.9798,-1.9798,-1.9798,-1.9798,-1.9874,-2.0302,-2.0125,-1.9798,-1.9798,-1.9798,-1.9798,-1.9798,-1.9798,-1.9798,-1.9798,-1.9798,-1.9798,-1.9798,-1.9798,-1.9798,-1.9798,-1.9798,-1.9698,-1.9309,-1.9246,-1.9246,-1.9246,-1.9246,-1.9371,-1.9748,-1.9334,-1.8857,-1.8481,-1.8129,-1.7601,-1.6861,-1.7953,-1.8568,-1.8229,-1.9196,-1.9736,-1.9572,-1.971,-1.956,-1.902,-1.9509,-1.9798,-1.9798,-1.9798,-1.9798,-1.9798,-1.9798,-1.9798,-1.9798,-1.9798,-1.9798,-1.9798,-1.9798,-1.9798,-1.9798,-1.9623,-1.9321,-1.8983,-1.8807,-1.8406,-1.7953,-1.7953,-1.7827,-1.7677,-1.8018,-1.8008,-1.8008,-1.8018,-1.8008,-1.8008,-1.8008,-1.8008,-1.7861,-1.7474,-1.7393,-1.7083,-1.6202,-1.6887,-1.7063,-1.6173,-1.6907,-1.7197,-1.6736,-1.7148,-1.7955,-1.9212,-2.0107,-2.059,-2.059,-2.1459,-2.1908,-2.1908,-2.2689,-2.2832,-2.2309,-2.2309,-2.2297,-2.2297,-2.2297,-2.2569,-2.3007,-2.1945,-2.1481,-2.138,-2.0263,-1.9798,-1.9798,-1.9798,-1.9798,-1.9798,-1.9798,-1.9798,-1.9798,-1.9798,-1.9798,-1.9798,-1.9798,-1.9798,-1.9798,-1.9798,-1.9798,-1.9798,-1.9798,-1.9798,-1.9798,-1.9798,-1.9798,-1.9798,-1.9798,-1.9798,-1.9798,-1.9798,-1.9798,-1.9798,-1.9798,-1.9798,-1.9798,-1.9798,-1.9798,-1.9798,-1.9798,-1.9334,-1.9008,-1.9008,-1.9008,-1.8569,-1.7524,-1.8844,-1.9359,-1.8292,-1.9196,-1.9572,-1.9033,-1.9522,-1.956,-1.902,-1.9509,-1.9798,-1.9798,-1.9798,-1.9798,-1.9798,-1.9798,-1.9798,-1.9798,-1.9798,-1.9798,-1.9798,-1.9798,-1.9798,-1.9761,-1.9221,-1.9008,-1.8945,-1.8417,-1.7865,-1.7398,-1.7398,-1.7011,-1.65,-1.8354,-1.8178,-1.8105,-1.8364,-1.8203,-1.8008,-1.8008,-1.8008,-1.7969,-1.7842,-1.7822,-1.7607,-1.7083,-1.749,-1.7471,-1.6611,-1.7061,-1.7334,-1.7197,-1.7588,-1.7972,-1.8361,-1.863,-1.9332,-2.0558,-2.0846,-2.1553,-2.2732,-2.2975,-2.2832,-2.2297,-2.192,-2.1531,-2.1182,-2.1182,-2.1029,-2.0803,-2.0878,-2.0704,-2.0275,-1.9936,-1.9798,-1.9798,-1.9798,-1.9798,-1.9798,-1.9798,-1.9798,-1.9798,-1.9798,-1.9798,-1.9798,-1.9798,-1.9798,-1.9798,-1.9798,-1.9798,-1.9798,-1.9798,-1.9798,-1.9798,-1.9798,-1.9798,-1.9798,-1.9798,-1.9798,-1.9798,-1.9798,-1.9798,-1.9798,-1.9798,-1.9798,-1.9798,-1.9798,-1.9798,-1.9798,-1.9798,-1.9334,-1.9008,-1.9008,-1.8657,-1.8317,-1.799,-1.8744,-1.9108,-1.8782,-1.9422,-1.9736,-1.9572,-1.971,-1.956,-1.902,-1.9509,-1.9623,-1.9233,-1.9623,-1.9798,-1.9798,-1.9798,-1.9798,-1.9798,-1.9798,-1.9798,-1.9798,-1.9798,-1.9798,-1.9798,-1.9635,-1.9133,-1.8406,-1.8267,-1.7614,-1.6773,-1.6773,-1.6638,-1.65,-1.8305,-1.8286,-1.8247,-1.8344,-1.8286,-1.8169,-1.8037,-1.8008,-1.7949,-1.7783,-1.7764,-1.7598,-1.7178,-1.751,-1.749,-1.6755,-1.7129,-1.7484,-1.7627,-1.7871,-1.8008,-1.8008,-1.8008,-1.8496,-1.9562,-2.0236,-2.1101,-2.2113,-2.2781,-2.2832,-2.2297,-2.1744,-2.1333,-2.1006,-2.0792,-2.0616,-2.0476,-2.0641,-2.049,-2.0151,-1.9899,-1.9798,-1.9798,-1.9798,-1.9798,-1.9798,-1.9798,-1.9798,-1.9798,-1.9798,-1.9798,-1.9798,-1.9798,-1.9798,-1.9798,-1.9798,-1.9798,-1.9798,-1.9798,-1.9798,-1.9798,-1.9798,-1.9798,-1.9798,-1.9798,-1.9798,-1.9798,-1.9798,-1.9798,-1.9798,-1.9798,-1.9798,-1.9798,-1.9798,-1.9798,-1.9798,-1.9798,-1.9509,-1.9309,-1.9309,-1.9045,-1.8756,-1.8531,-1.8995,-1.9409,-1.966,-1.9962,-2.015,-2.015,-1.9924,-1.966,-1.9321,-1.9635,-1.9648,-1.9309,-1.9648,-1.9798,-1.9798,-1.9798,-1.9798,-1.9798,-1.9798,-1.9798,-1.9798,-1.9798,-1.9798,-1.9786,-1.9572,-1.8982,-1.8179,-1.7965,-1.7325,-1.65,-1.65,-1.65,-1.65,-1.8057,-1.8315,-1.8432,-1.8125,-1.8315,-1.8422,-1.8066,-1.8008,-1.7871,-1.749,-1.7441,-1.7285,-1.6853,-1.7207,-1.7275,-1.6853,-1.7207,-1.7598,-1.7988,-1.8008,-1.8008,-1.8008,-1.8008,-1.8008,-1.8008,-1.9585,-2.0482,-2.059,-2.2096,-2.2591,-2.218,-2.1618,-2.14,-2.1393,-2.0867,-2.0893,-2.1333,-2.083,-2.0616,-2.0566,-2.0012,-1.9798,-1.9798,-1.9798,-1.9798,-1.9798,-1.9798,-1.9798,-1.9798,-1.9798,-1.9798,-1.9798,-1.9798,-1.9798,-1.9798,-1.9798,-1.9798,-1.9798,-1.9798,-1.9798,-1.9798,-1.9798,-1.9798,-1.9798,-1.9798,-1.9798,-1.9798,-1.9798,-1.9849,-1.9874,-1.9874,-1.9924,-1.9949,-1.9949,-1.9949,-1.9936,-1.9886,-1.9924,-1.9936,-1.9886,-1.9924,-1.9761,-1.9271,-1.9673,-2.0175,-2.0729,-2.0717,-2.0691,-2.0691,-2.0138,-1.9798,-1.9798,-1.9798,-1.9798,-1.9798,-1.9798,-1.9798,-1.9798,-1.9798,-1.9798,-1.9798,-1.9798,-1.9798,-1.9798,-1.9798,-1.9798,-1.9761,-1.9271,-1.8757,-1.8229,-1.7664,-1.7099,-1.6563,-1.6513,-1.65,-1.65,-1.8403,-1.8276,-1.8188,-1.8422,-1.8266,-1.8115,-1.8018,-1.8008,-1.7978,-1.7881,-1.7871,-1.7842,-1.7744,-1.7822,-1.7842,-1.7744,-1.7822,-1.791,-1.8008,-1.8008,-1.8008,-1.8008,-1.8008,-1.8008,-1.8008,-1.8692,-1.9564,-2.059,-2.0605,-2.0843,-2.1278,-2.0737,-2.0632,-2.0842,-2.025,-2.0062,-2.0162,-2.0037,-1.9987,-1.9974,-1.9849,-1.9798,-1.9798,-1.9798,-1.9798,-1.9798,-1.9798,-1.9798,-1.9798,-1.9798,-1.9798,-1.9798,-1.9798,-1.9798,-1.9798,-1.9798,-1.9798,-1.9798,-1.9798,-1.9798,-1.9798,-1.9798,-1.9798,-1.9798,-1.9798,-1.9798,-1.9798,-1.9798,-2.0189,-2.0503,-2.0503,-2.0855,-2.1129,-2.1129,-2.1129,-2.0966,-2.0566,-2.088,-2.0993,-2.0553,-2.0893,-2.1079,-2.0966,-2.1054,-2.1179,-2.1333,-2.0943,-2.0691,-2.0691,-2.0138,-1.9798,-1.9798,-1.9798,-1.9798,-1.9798,-1.9798,-1.9798,-1.9798,-1.9798,-1.9798,-1.9798,-1.9798,-1.9798,-1.9798,-1.9798,-1.9798,-1.9798,-1.9673,-1.9296,-1.877,-1.8242,-1.7689,-1.7137,-1.6663,-1.65,-1.65,-1.8256,-1.8286,-1.8286,-1.8295,-1.8286,-1.8208,-1.8037,-1.8008,-1.8008,-1.8008,-1.8008,-1.8008,-1.8008,-1.8008,-1.8008,-1.8008,-1.8008,-1.8008,-1.8008,-1.8008,-1.8008,-1.8008,-1.8008,-1.8008,-1.8008,-1.8031,-1.8571,-1.9661,-2.0461,-2.0953,-2.1099,-2.116,-2.1161,-2.1069,-2.049,-2.0062,-1.9798,-1.9798,-1.9798,-1.9798,-1.9798,-1.9798,-1.9798,-1.9798,-1.9798,-1.9798,-1.9798,-1.9798,-1.9798,-1.9798,-1.9798,-1.9798,-1.9798,-1.9798,-1.9798,-1.9798,-1.9798,-1.9798,-1.9798,-1.9798,-1.9798,-1.9798,-2.0012,-2.0239,-2.0239,-2.0239,-2.0288,-2.0552,-2.0867,-2.1081,-2.1081,-2.132,-2.1493,-2.1493,-2.1493,-2.1393,-2.1131,-2.1333,-2.1408,-2.1119,-2.1345,-2.1493,-2.1493,-2.1732,-2.1882,-2.1882,-2.1606,-2.1443,-2.1443,-2.0916,-2.0602,-2.0602,-2.0351,-2.0239,-2.0239,-2.0239,-2.0239,-2.0239,-1.9936,-1.9949,-2.0239,-1.9924,-1.9798,-1.9798,-1.9798,-1.9798,-1.9798,-1.9798,-1.9497,-1.8945,-1.8417,-1.7865,-1.7335,-1.6713,-1.65,-1.65,-1.8008,-1.8256,-1.8383,-1.8076,-1.8266,-1.8383,-1.8057,-1.8008,-1.8008,-1.8008,-1.8008,-1.8008,-1.8008,-1.8008,-1.8008,-1.8008,-1.8008,-1.8008,-1.8008,-1.8008,-1.8008,-1.8008,-1.7939,-1.79,-1.79,-1.7559,-1.7723,-1.8383,-2.027,-2.1108,-2.0991,-2.1631,-2.1777,-2.1455,-2.0794,-2.0259,-1.9798,-1.9669,-1.9683,-1.9798,-1.9798,-1.9798,-1.9798,-1.9798,-1.9798,-1.9798,-1.9798,-1.9798,-1.9798,-1.9798,-1.9798,-1.9798,-1.9798,-1.9798,-1.9798,-1.9798,-1.9798,-1.9798,-1.9798,-1.9798,-1.9823,-1.9924,-2.0339,-2.0742,-2.093,-2.0893,-2.0968,-2.1393,-2.1556,-2.1631,-2.1631,-2.1707,-2.1769,-2.1769,-2.1769,-2.1732,-2.1644,-2.1707,-2.1732,-2.1644,-2.1707,-2.1769,-2.1769,-2.2184,-2.2447,-2.2447,-2.2359,-2.2309,-2.2309,-2.1782,-2.1493,-2.1493,-2.1069,-2.083,-2.083,-2.083,-2.088,-2.0968,-2.0363,-2.0288,-2.0679,-2.0189,-1.9899,-1.9798,-1.9798,-1.9798,-1.9798,-1.9798,-1.9547,-1.9083,-1.8555,-1.8066,-1.7589,-1.6911,-1.6588,-1.65,-1.8008,-1.8057,-1.8076,-1.8018,-1.8057,-1.8076,-1.8018,-1.8008,-1.8008,-1.8008,-1.8008,-1.8008,-1.8008,-1.8008,-1.8008,-1.8008,-1.8008,-1.8008,-1.8008,-1.8008,-1.8008,-1.8008,-1.7666,-1.7471,-1.7471,-1.7445,-1.7448,-1.757,-1.8093,-1.8942,-2.0075,-2.037,-2.084,-2.1468,-2.0275,-1.978,-1.9747,-1.9123,-1.9228,-1.9798,-1.9798,-1.9798,-1.9798,-1.9798,-1.9798,-1.9798,-1.9798,-1.9798,-1.9798,-1.9798,-1.9798,-1.9798,-1.9798,-1.9798,-1.9798,-1.9798,-1.9798,-1.9798,-1.9798,-1.9798,-1.9924,-2.0453,-2.0629,-2.0943,-2.187,-2.1719,-2.1393,-2.1509,-2.187,-2.2196,-2.2196,-2.2556,-2.2882,-2.2882,-2.2882,-2.2719,-2.2272,-2.2581,-2.2706,-2.2259,-2.2594,-2.2882,-2.2882,-2.2945,-2.2995,-2.2995,-2.2556,-2.2309,-2.2309,-2.1782,-2.1493,-2.1493,-2.1446,-2.1408,-2.1408,-2.1408,-2.1619,-2.2083,-2.1531,-2.1081,-2.0691,-2.0616,-2.0302,-1.9798,-1.9798,-1.9798,-1.9798,-1.9798,-1.9761,-1.9648,-1.9096,-1.8845,-1.8657,-1.7652,-1.6948,-1.65,-1.8008,-1.8008,-1.8008,-1.8008,-1.8008,-1.8008,-1.8008,-1.8008,-1.8008,-1.8008,-1.8008,-1.792,-1.7686,-1.7656,-1.7754,-1.7988,-1.8008,-1.8008,-1.8008,-1.8008,-1.8008,-1.8008,-1.7607,-1.7383,-1.7383,-1.7148,-1.6894,-1.6682,-1.7728,-1.8536,-1.9133,-2.0235,-2.0427,-1.9823,-1.9996,-1.9732,-1.9176,-1.8847,-1.9123,-1.9798,-1.9798,-1.9798,-1.9798,-1.9798,-1.9798,-1.9798,-1.9798,-1.9798,-1.9798,-1.9798,-1.9798,-1.9798,-1.9798,-1.9798,-1.9798,-1.9798,-1.9798,-1.9874,-2.02,-2.0314,-2.0453,-2.1018,-2.1355,-2.1707,-2.2196,-2.2359,-2.238,-2.238,-2.2569,-2.2744,-2.2744,-2.2945,-2.3108,-2.3108,-2.3108,-2.302,-2.2782,-2.2945,-2.3007,-2.2769,-2.2957,-2.3108,-2.3108,-2.3108,-2.3108,-2.3108,-2.2882,-2.2744,-2.2744,-2.2506,-2.238,-2.238,-2.2108,-2.1945,-2.1945,-2.1945,-2.2071,-2.2309,-2.2343,-2.2121,-2.1568,-2.1295,-2.0991,-2.0727,-2.044,-2.0314,-2.0289,-1.9936,-1.9798,-1.9748,-1.9208,-1.8619,-1.8016,-1.72,-1.6735,-1.65]}]]